     2              OBSERVATION DATA    GPS                 RINEX VERSION / TYPE
ASHTORIN 08 - MAY - 99 07:43                                PGM / RUN BY / DATE
                                                            COMMENT
Original Marker Name: NVAL                                  COMMENT
Campaign Name: dhl corners                                  COMMENT
4-Character Station Name: NVAL                              COMMENT
6-Character Antenna Code: DMRCHT                            COMMENT
Vertical Measurement Point: BCR                             COMMENT
Vertical Offset to Rinex Ref. Point: 0.0349                 COMMENT
Radial Measurement Point: ECF                               COMMENT
Radial Offset to Rinex Ref. Point: 0.1896                   COMMENT
Antenna Height from Field Measurement: 2.5220 m             COMMENT
Additional Antenna Identification Info.:                    COMMENT
Turborogue and Ashtech Choke Ring                           COMMENT
Original XYZ: 0.0000 0.0000 0.0000                          COMMENT
New XYZ position is based on association with SCEC monument COMMENT
E1D0J1O6+0011. Position of that monument is believed to be  COMMENT
valid to within 1 m horizontally; vertical accuracy         COMMENT
should be no worse than 3-times this value.                 COMMENT
                                                            COMMENT
Revised Rinex header created by UCSD GPS archive for        COMMENT
GSAC on 02-Jun-1999 (1999:153) 01:59:34 GMT                 COMMENT
For assistance contact dagnew@ucsd.edu or hjohnson@ucsd.edu COMMENT
                                                            COMMENT
DHL NORTH VAULT                                             MARKER NAME
                                                            MARKER NUMBER
SJB SCRIPPS INSTITUTION OF OCEANOGRAPHY                     OBSERVER / AGENCY
389 ASHTECH Z12-XII3 1F501D0                                REC # / TYPE / VERS
408 DORNE-MARGOL. TYPE T                                    ANT # / TYPE
 -2319027.0000 -4799561.0000  3490534.0000                  APPROX POSITION XYZ
        2.4800        0.0000        0.0000                  ANTENNA: DELTA H/E/N
     1     1     0                                          WAVELENGTH FACT L1/2
     7    L1    L2    C1    P1    P2    D1    D2            # / TYPES OF OBSERV
    30                                                      INTERVAL
  1999     5    10    17    22   30.000000                  TIME OF FIRST OBS
  1999     5    10    23    59   30.000000                  TIME OF LAST OBS
                                                            END OF HEADER
 99  5 10 17 22 30.0000000  0  5  4 24  7  9 16                      0.000000000
     -7678.010 9     -5422.83349  20439817.115    20439817.3094   20439826.2304
        -0.000          -0.000
   -181348.325 9   -133347.47048  21446464.389    21446464.3624   21446475.1694
        -0.000          -0.000
    153537.805 9    111723.49346  22824592.576    22824591.9144   22824603.8154
        -0.000          -0.000
     15897.995 9     11541.00948  21360756.110    21360755.8674   21360765.0064
        -0.000          -0.000
    -40910.30619    -28268.23644         0.000           0.0005   24733874.8374
        -0.000          -0.000
 99  5 10 17 23  0.0000000  3  2
NVAL                                                        MARKER NAME
--> THIS IS THE START OF A NEW SITE <---                    COMMENT
 99  5 10 17 23  0.0000000  0  6  4 24  7  9  2 16                   0.000636739
     -9391.669 9     -6758.14949  20439491.063    20439491.2054   20439500.1824
        -0.000          -0.000
   -255693.953 9   -191279.06748  21432316.515    21432316.8464   21432327.6694
        -0.000          -0.000
    216676.876 9    160922.66346  22836607.284    22836606.8764   22836618.8374
        -0.000          -0.000
     22932.864 9     17022.70748  21362095.519    21362094.6304   21362103.7354
        -0.000          -0.000
    189995.749 9    133458.42245  23633746.761    23633748.1274   23633762.3074
        -0.000          -0.000
    -57583.948 9    -41260.58845  24730687.752    24730687.5614   24730700.8624
        -0.000          -0.000
 99  5 10 17 23 30.0010000  0  6  4 24  7  9  2 16                   0.001000111
  -1012590.047 9   -788471.17249  20548381.228    20548381.3914   20548390.3604
        -0.000          -0.000
  -1331686.417 9  -1029714.70048  21527354.545    21527354.7124   21527365.6154
        -0.000          -0.000
   -722216.064 9   -570682.34647  22957734.418    22957734.0524   22957745.9334
        -0.000          -0.000
   -971563.618 9   -757909.64048  21472641.292    21472640.7404   21472649.8354
        -0.000          -0.000
   -736338.458 9   -588360.63545  23757264.826    23757264.3484   23757279.0014
        -0.000          -0.000
  -1075898.905 9   -834752.72445  24836701.339    24836701.3794   24836714.8104
        -0.000          -0.000
 99  5 10 17 24  0.0010000  0  6  4 24  7  9  2 16                   0.001000119
  -1012340.033 9   -788276.35349  20548428.857    20548429.0184   20548437.9884
        -0.000          -0.000
  -1404378.238 9  -1086357.62148  21513521.866    21513521.9094   21513532.8424
        -0.000          -0.000
   -658197.131 9   -520797.57547  22969917.121    22969916.6074   22969928.3864
        -0.000          -0.000
   -962623.014 9   -750942.95248  21474342.469    21474342.1124   21474351.2034
        -0.000          -0.000
   -659562.299 9   -528535.25045  23771875.000    23771874.5334   23771889.1334
        -0.000          -0.000
  -1090893.277 9   -846436.60245  24833848.109    24833847.8654   24833861.1504
        -0.000          -0.000
 99  5 10 17 24 30.0010000  0  6  4 24  7  9  2 16                   0.001000134
  -1011536.594 9   -787650.29849  20548581.735    20548581.9334   20548590.9064
        -0.000          -0.000
  -1476683.678 9  -1142699.46248  21499762.606    21499762.6244   21499773.5854
        -0.000          -0.000
   -594168.444 9   -470905.20647  22982101.537    22982101.0024   22982112.7694
        -0.000          -0.000
   -953124.186 9   -743541.29048  21476150.060    21476149.7714   21476158.8274
        -0.000          -0.000
   -582563.516 9   -468536.41645  23786527.514    23786526.9914   23786541.5784
        -0.000          -0.000
  -1105448.058 9   -857777.95145  24831078.432    24831077.7534   24831091.3884
        -0.000          -0.000
 99  5 10 17 25  0.0010000  0  6  4 24  7  9  2 16                   0.001000111
  -1010237.850 9   -786638.29749  20548828.861    20548829.0924   20548838.0584
        -0.000          -0.000
  -1548659.525 9  -1198784.47548  21486066.107    21486066.1064   21486077.0734
        -0.000          -0.000
   -530196.117 9   -421056.75047  22994275.241    22994274.7154   22994286.3434
        -0.000          -0.000
   -943129.236 9   -735753.04248  21478052.023    21478051.8044   21478060.8614
        -0.000          -0.000
   -505413.459 9   -408419.69845  23801208.871    23801208.2664   23801222.9744
        -0.000          -0.000
  -1119623.496 9   -868823.71245  24828380.870    24828380.0804   24828393.8484
        -0.000          -0.000
 99  5 10 17 25 30.0010000  0  6  4 24  7  9  2 16                   0.001000159
  -1008319.047 9   -785143.12749  20549194.030    20549194.2794   20549203.2354
        -0.000          -0.000
  -1620171.148 9  -1254507.75648  21472457.908    21472457.8674   21472468.8704
        -0.000          -0.000
   -466129.264 9   -371134.62247  23006466.919    23006466.3844   23006477.9354
        -0.000          -0.000
   -932497.873 9   -727468.88048  21480075.089    21480074.9144   21480083.9814
        -0.000          -0.000
   -427973.772 9   -348077.30245  23815945.286    23815944.7944   23815959.3424
        -0.000          -0.000
  -1133259.897 9   -879449.43645  24825785.869    24825785.1064   24825798.9394
        -0.000          -0.000
 99  5 10 17 26  0.0010000  0  7  4 24  5  7  9  2 16                0.001000182
  -1005901.718 9   -783259.49949  20549654.070    20549654.3204   20549663.2844
        -0.000          -0.000
  -1691347.015 9  -1309969.41048  21458913.602    21458913.5934   21458924.5674
        -0.000          -0.000
  -1258194.23118   -961685.99645         0.000           0.0005   22882058.2314
        -0.000          -0.000
   -402097.768 9   -321240.06347  23018651.761    23018651.2294   23018662.7864
        -0.000          -0.000
   -921370.020 9   -718797.85548  21482192.639    21482192.5084   21482201.5624
        -0.000          -0.000
   -350361.634 9   -287600.53546  23830714.608    23830714.0594   23830728.6914
        -0.000          -0.000
  -1146494.700 9   -889762.24845  24823267.360    24823266.6404   24823280.3404
        -0.000          -0.000
 99  5 10 17 26 30.0010000  0  7  4 24  5  7  9  2 16                0.001000191
  -1002973.213 9   -780977.54749  20550211.351    20550211.6254   20550220.5794
        -0.000          -0.000
  -1762193.558 9  -1365174.44748  21445431.968    21445431.9364   21445442.9034
        -0.000          -0.000
  -1339353.841 8  -1024927.16345  22866602.421    22866601.9514   22866615.2234
        -0.000          -0.000
   -338104.894 9   -271375.58547  23030829.342    23030828.8194   23030840.3604
        -0.000          -0.000
   -909771.117 9   -709759.76748  21484399.805    21484399.6904   21484408.8074
        -0.000          -0.000
   -272592.044 9   -227001.08546  23845513.937    23845513.5244   23845528.0124
        -0.000          -0.000
  -1159354.656 9   -899782.97645  24820820.212    24820819.5944   24820833.3884
        -0.000          -0.000
 99  5 10 17 27  0.0010000  0  7  4 24  5  7  9  2 16                0.001000118
   -999383.070 9   -778180.03749  20550894.549    20550894.8314   20550903.7764
        -0.000          -0.000
  -1832555.076 9  -1420001.54548  21432042.618    21432042.5764   21432053.5814
        -0.000          -0.000
  -1420384.836 8  -1088068.08245  22851182.724    22851180.5874   22851195.6274
        -0.000          -0.000
   -274007.747 9   -221429.86147  23043026.762    23043026.2344   23043037.8244
        -0.000          -0.000
   -897562.175 9   -700246.33448  21486723.050    21486722.9814   21486732.1314
        -0.000          -0.000
   -194524.832 9   -166169.73146  23860369.946    23860369.4604   23860384.1534
        -0.000          -0.000
  -1171699.371 9   -909402.23645  24818470.992    24818470.3814   24818484.5054
        -0.000          -0.000
 99  5 10 17 27 30.0010000  0  7  4 24  5  7  9  2 16                0.001000068
   -995130.083 9   -774866.02849  20551703.886    20551704.1714   20551713.1244
        -0.000          -0.000
  -1902419.573 9  -1474441.35848  21418747.796    21418747.7694   21418758.7524
        -0.000          -0.000
  -1501279.656 8  -1151102.88145  22835788.470    22835787.4644   22835801.8834
        -0.000          -0.000
   -209797.353 9   -171395.90247  23055245.664    23055245.1564   23055256.7884
        -0.000          -0.000
   -884744.955 9   -690258.92148  21489162.073    21489162.0334   21489171.2194
        -0.000          -0.000
   -116142.723 9   -105092.99146  23875285.804    23875285.3334   23875300.0284
        -0.000          -0.000
  -1183514.626 9   -918608.91345  24816222.596    24816222.0574   24816236.3864
        -0.000          -0.000
 99  5 10 17 28  0.0010000  0  7  4 24  5  7  9  2 16                0.001000017
   -990227.397 9   -771045.75449  20552636.883    20552637.1754   20552646.1414
        -0.000          -0.000
  -1971794.996 9  -1528500.07348  21405546.072    21405546.0294   21405557.0094
        -0.000          -0.000
  -1582057.861 8  -1214046.81845  22820416.682    22820415.6654   22820430.4184
        -0.000          -0.000
   -145504.188 9   -121297.44247  23067480.344    23067479.8464   23067491.4494
        -0.000          -0.000
   -871355.621 9   -679825.70248  21491710.009    21491709.9694   21491719.1854
        -0.000          -0.000
    -37473.256 9    -43792.32946  23890256.351    23890255.8794   23890270.5154
        -0.000          -0.000
  -1194833.978 9   -927429.20345  24814068.671    24814068.1284   24814082.6854
        -0.000          -0.000
 99  5 10 17 28 30.0010000  0  7  4 24  5  7  9  2 16                0.000999979
   -984678.774 9   -766722.15149  20553692.792    20553693.0944   20553702.0484
        -0.000          -0.000
  -2040684.281 9  -1582179.98248  21392436.873    21392436.8244   21392447.7954
        -0.000          -0.000
  -1662703.826 8  -1276887.72445  22805070.402    22805069.5784   22805084.2514
        -0.000          -0.000
    -81130.500 9    -71136.24847  23079730.350    23079729.8364   23079741.4494
        -0.000          -0.000
   -857391.600 9   -668944.67648  21494367.309    21494367.2694   21494376.5274
        -0.000          -0.000
     41484.615 9     17733.06546  23905281.820    23905281.3074   23905295.8944
        -0.000          -0.000
  -1205638.311 9   -935848.18145  24812012.667    24812012.1224   24812026.9394
        -0.000          -0.000
 99  5 10 17 29  0.0010000  0  7  4 24  5  7  9  2 16                0.000999977
   -978510.324 9   -761915.56149  20554866.648    20554866.9524   20554875.8954
        -0.000          -0.000
  -2109086.107 9  -1635480.04148  21379420.345    21379420.3054   21379431.2814
        -0.000          -0.000
  -1743204.734 8  -1339615.59945  22789751.905    22789751.4624   22789765.5144
        -0.000          -0.000
    -16689.001 9    -20922.19347  23091993.223    23091992.7664   23092004.3274
        -0.000          -0.000
   -842853.170 9   -657616.05048  21497133.865    21497133.8444   21497143.1104
        -0.000          -0.000
    120730.364 9     79482.79746  23920362.072    23920361.6184   23920376.0484
        -0.000          -0.000
  -1215913.022 9   -943854.47846  24810057.505    24810057.0744   24810072.0404
        -0.000          -0.000
 99  5 10 17 29 30.0010000  0  7  4 24  5  7  9  2 16                0.000999993
   -971759.902 9   -756655.49249  20556151.258    20556151.5624   20556160.4914
        -0.000          -0.000
  -2177036.214 9  -1688428.12148  21366489.870    21366489.8274   21366500.7824
        -0.000          -0.000
  -1823587.198 8  -1402251.21445  22774456.101    22774455.5624   22774469.1304
        -0.000          -0.000
     47780.819 9     29313.92847  23104261.573    23104261.0724   23104272.5524
        -0.000          -0.000
   -827779.854 9   -645870.64248  21500002.216    21500002.1884   21500011.4844
        -0.000          -0.000
    200232.608 9    141432.36746  23935491.053    23935490.6244   23935504.9854
        -0.000          -0.000
  -1225688.584 9   -951471.84546  24808197.284    24808196.8034   24808211.9514
        -0.000          -0.000
 99  5 10 17 30  0.0010000  0  7  4 24  5  7  9  2 16                0.000999980
   -964464.184 9   -750970.51549  20557539.592    20557539.9114   20557548.7994
        -0.000          -0.000
  -2244596.255 9  -1741072.25348  21353633.562    21353633.5174   21353644.4544
        -0.000          -0.000
  -1903911.388 9  -1464841.40745  22759171.228    22759170.7734   22759183.7134
        -0.000          -0.000
    112218.166 9     79524.74247  23116523.740    23116523.2434   23116534.6624
        -0.000          -0.000
   -812208.860 9   -633737.42448  21502965.345    21502965.3274   21502974.6404
        -0.000          -0.000
    279930.192 9    203534.15946  23950657.197    23950656.7344   23950671.2474
        -0.000          -0.000
  -1235019.728 9   -958742.90645  24806421.578    24806421.1724   24806436.4584
        -0.000          -0.000
 99  5 10 17 30 30.0010000  0  7  4 24  5  7  9  2 16                0.000999988
   -956557.948 9   -744809.80949  20559044.117    20559044.4404   20559053.3354
        -0.000          -0.000
  -2311711.046 9  -1793369.43548  21340862.003    21340861.9694   21340872.9004
        -0.000          -0.000
  -1984109.015 9  -1527333.01245  22743910.513    22743910.1884   22743922.5484
        -0.000          -0.000
    176695.666 9    129766.83247  23128793.545    23128793.0394   23128804.4674
        -0.000          -0.000
   -796055.034 9   -621150.05648  21506039.343    21506039.2994   21506048.6444
        -0.000          -0.000
    359897.694 9    265846.25846  23965874.690    23965874.2304   23965888.9294
        -0.000          -0.000
  -1243829.203 8   -965607.48345  24804745.274    24804744.8524   24804760.1784
        -0.000          -0.000
 99  5 10 17 31  0.0010000  0  7  4 24  5  7  9  2 16                0.000999979
   -948070.657 9   -738196.33149  20560659.227    20560659.5514   20560668.4384
        -0.000          -0.000
  -2378406.483 9  -1845339.84748  21328170.252    21328170.2154   21328181.1594
        -0.000          -0.000
  -2064220.731 9  -1589757.64445  22728665.923    22728665.6124   22728677.7004
        -0.000          -0.000
    241180.542 9    180014.67647  23141064.696    23141064.1954   23141075.6264
        -0.000          -0.000
   -779355.939 9   -608137.80248  21509217.128    21509217.0994   21509226.4544
        -0.000          -0.000
    440087.410 9    328331.50446  23981134.458    23981134.0064   23981148.8154
        -0.000          -0.000
  -1252159.716 8   -972098.85345  24803160.065    24803159.5894   24803175.1394
        -0.000          -0.000
 99  5 10 17 31 30.0010000  0  7  4 24  5  7  9  2 16                0.000999971
   -938937.327 9   -731079.45349  20562397.280    20562397.5984   20562406.4744
        -0.000          -0.000
  -2444624.701 9  -1896938.40848  21315569.269    21315569.2584   21315580.1824
        -0.000          -0.000
  -2144202.464 9  -1652081.02845  22713446.102    22713445.7294   22713457.5844
        -0.000          -0.000
    305731.775 9    230314.21647  23153348.485    23153348.0304   23153359.4384
        -0.000          -0.000
   -762055.743 9   -594657.16948  21512509.284    21512509.2594   21512518.6034
        -0.000          -0.000
    520547.024 9    391027.05946  23996445.602    23996445.1364   23996460.0734
        -0.000          -0.000
  -1259967.691 8   -978183.04145  24801674.322    24801673.9484   24801689.4914
        -0.000          -0.000
 99  5 10 17 32  0.0010000  0  7  4 24  5  7  9  2 16                0.000999972
   -929148.826 9   -723452.04949  20564259.998    20564260.3194   20564269.1624
        -0.000          -0.000
  -2510341.246 9  -1948146.05048  21303063.803    21303063.7764   21303074.6994
        -0.000          -0.000
  -2224040.413 9  -1714292.37745  22698253.472    22698253.1564   22698264.7404
        -0.000          -0.000
    370373.517 9    280684.29747  23165649.512    23165649.0654   23165660.4024
        -0.000          -0.000
   -744141.176 9   -580697.80048  21515918.361    21515918.3404   21515927.6784
        -0.000          -0.000
    601282.449 9    453937.53646  24011809.261    24011808.8304   24011823.9384
        -0.000          -0.000
  -1267239.907 8   -983849.75245  24800290.473    24800290.1064   24800305.7324
        -0.000          -0.000
 99  5 10 17 32 30.0010000  0  7  4 24  5  7  9  2 16                0.000999946
   -918795.115 9   -715384.22149  20566230.268    20566230.5954   20566239.4254
        -0.000          -0.000
  -2575612.195 9  -1999006.47248  21290643.080    21290643.0654   21290653.9724
        -0.000          -0.000
  -2303796.919 8  -1776440.25645  22683076.330    22683075.8544   22683087.4084
        -0.000          -0.000
    435026.726 9    331063.31247  23177952.763    23177952.3174   23177963.7384
        -0.000          -0.000
   -725702.400 9   -566329.95948  21519427.211    21519427.1904   21519436.5094
        -0.000          -0.000
    682225.814 8    517010.04446  24027212.510    24027212.0574   24027227.2664
        -0.000          -0.000
  -1274055.433 8   -989160.60045  24798993.530    24798993.1444   24799008.9854
        -0.000          -0.000
 99  5 10 17 33  0.0010000  0  7  4 24  5  7  9  2 16                0.000999926
   -907818.628 9   -706831.11849  20568319.055    20568319.3794   20568328.1994
        -0.000          -0.000
  -2640365.643 9  -2049463.65148  21278320.851    21278320.8354   21278331.7524
        -0.000          -0.000
  -2383415.442 8  -1838480.60845  22667925.291    22667924.8924   22667936.3224
        -0.000          -0.000
    499728.661 9    381480.29447  23190265.222    23190264.7744   23190276.1834
        -0.000          -0.000
   -706691.932 9   -551516.64748  21523044.809    21523044.7964   21523054.1184
        -0.000          -0.000
    763427.462 9    580283.80046  24042664.764    24042664.3304   24042679.7884
        -0.000          -0.000
  -1280361.860 8   -994074.77045  24797793.546    24797793.1164   24797809.1474
        -0.000          -0.000
 99  5 10 17 33 30.0010000  0  7  4 24  5  7  9  2 16                0.000999911
   -896238.797 9   -697807.87349  20570522.665    20570522.9934   20570531.8034
        -0.000          -0.000
  -2704626.911 9  -2099537.31248  21266092.290    21266092.2714   21266103.1814
        -0.000          -0.000
  -2462910.917 8  -1900425.07045  22652797.757    22652797.4054   22652808.6174
        -0.000          -0.000
    564452.296 9    431914.17247  23202581.736    23202581.3174   23202592.7754
        -0.000          -0.000
   -687116.499 9   -536263.10348  21526769.922    21526769.9174   21526779.2234
        -0.000          -0.000
    844883.823 8    643756.03046  24058165.572    24058165.1284   24058180.6684
        -0.000          -0.000
  -1286170.448 8   -998600.99745  24796688.118    24796687.7214   24796703.8774
        -0.000          -0.000
 99  5 10 17 34  0.0010000  0  7  4 24  5  7  9  2 16                0.000999922
   -884054.498 9   -688313.61549  20572841.279    20572841.5984   20572850.4204
        -0.000          -0.000
  -2768396.618 9  -2149227.93948  21253957.311    21253957.2924   21253968.1904
        -0.000          -0.000
  -2542267.945 8  -1962261.64345  22637696.540    22637696.2594   22637707.3484
        -0.000          -0.000
    629198.290 9    482365.49246  23214902.568    23214902.1284   23214913.6904
        -0.000          -0.000
   -666969.580 9   -520564.24448  21530603.823    21530603.8234   21530613.1284
        -0.000          -0.000
    926618.186 8    707444.88446  24073719.225    24073718.7214   24073734.4954
        -0.000          -0.000
  -1291460.364 8  -1002723.04645  24795681.350    24795680.8884   24795697.3654
        -0.000          -0.000
 99  5 10 17 34 30.0010000  0  7  4 24  5  7  9  2 16                0.000999930
   -871323.182 9   -678393.11849  20575263.951    20575264.2714   20575273.1334
        -0.000          -0.000
  -2831743.536 9  -2198589.12248  21241902.751    21241902.7174   21241913.6404
        -0.000          -0.000
  -2621544.070 8  -2024035.20245  22622610.848    22622610.4834   22622621.5694
        -0.000          -0.000
    693908.410 9    532788.84646  23227216.632    23227216.1634   23227227.8424
        -0.000          -0.000
   -646296.471 9   -504455.38048  21534537.803    21534537.8104   21534547.1414
        -0.000          -0.000
   1008586.914 8    771316.36346  24089317.384    24089316.9134   24089332.9774
        -0.000          -0.000
  -1296281.321 8  -1006479.65645  24794763.676    24794763.3124   24794779.9974
        -0.000          -0.000
 99  5 10 17 35  0.0010000  0  7  4 24  5  7  9  2 16                0.000999953
   -858015.620 9   -668023.59849  20577796.276    20577796.5984   20577805.4894
        -0.000          -0.000
  -2894654.325 9  -2247610.46448  21229931.192    21229931.1744   21229942.1004
        -0.000          -0.000
  -2700711.600 8  -2085724.13045  22607545.738    22607545.4824   22607556.2564
        -0.000          -0.000
    758625.297 9    583217.48346  23239531.899    23239531.4474   23239543.1984
        -0.000          -0.000
   -625059.252 9   -487906.94548  21538579.165    21538579.1624   21538588.5244
        -0.000          -0.000
   1090817.921 8    835392.18545  24104965.440    24104964.9204   24104981.2984
        -0.000          -0.000
  -1300597.536 8  -1009842.96145  24793942.031    24793941.6034   24793958.5994
        -0.000          -0.000
 99  5 10 17 35 30.0010000  0  7  4 24  5  7  9  2 16                0.000999999
   -844148.385 9   -657217.96649  20580435.093    20580435.4214   20580444.3434
        -0.000          -0.000
  -2957135.621 9  -2296297.13848  21218041.387    21218041.3664   21218052.2724
        -0.000          -0.000
  -2779769.254 8  -2147327.44845  22592501.613    22592501.3274   22592512.0174
        -0.000          -0.000
    823367.039 9    633665.48346  23251851.942    23251851.4884   23251863.2344
        -0.000          -0.000
   -603264.643 9   -470924.17348  21542726.556    21542726.5614   21542735.9514
        -0.000          -0.000
   1173317.146 8    899677.00745  24120664.585    24120664.0924   24120680.6234
        -0.000          -0.000
  -1304407.276 7  -1012811.60645  24793216.674    24793215.4144   24793233.0304
        -0.000          -0.000
 99  5 10 17 36  0.0010000  0  7  4 24  5  7  9  2 16                0.001000039
   -829763.391 9   -646008.88849  20583172.470    20583172.7964   20583181.7674
        -0.000          -0.000
  -3019211.987 9  -2344668.28648  21206228.593    21206228.6034   21206239.4874
        -0.000          -0.000
  -2858746.746 8  -2208868.28545  22577472.632    22577472.3714   22577482.8774
        -0.000          -0.000
    888109.480 9    684114.03246  23264172.078    23264171.6394   23264183.5104
        -0.000          -0.000
   -580966.311 9   -453548.89548  21546969.847    21546969.8534   21546979.2874
        -0.000          -0.000
   1256038.351 8    964134.81445  24136406.122    24136405.6434   24136422.0684
        -0.000          -0.000
  -1307751.654 7  -1015417.61945  24792579.856    24792578.2754   24792597.4664
        -0.000          -0.000
 99  5 10 17 36 30.0010000  0  7  4 24  5  7  9  2 16                0.001000060
   -814860.989 9   -634396.63249  20586008.283    20586008.6034   20586017.6154
        -0.000          -0.000
  -3080886.426 9  -2392726.23848  21194492.317    21194492.3084   21194503.2114
        -0.000          -0.000
  -2937644.724 8  -2270347.16745  22562458.799    22562458.4764   22562469.1254
        -0.000          -0.000
    952854.654 9    734564.69946  23276492.671    23276492.2404   23276504.3854
        -0.000          -0.000
   -558170.395 9   -435785.88548  21551307.806    21551307.8104   21551317.2874
        -0.000          -0.000
   1338965.204 8   1028752.86245  24152186.916    24152186.4284   24152202.8854
        -0.000          -0.000
  -1310650.968 7  -1017676.85345  24792027.833    24792026.7884   24792045.5364
        -0.000          -0.000
 99  5 10 17 37  0.0010000  0  7  4 24  5  7  9  2 16                0.001000073
   -799402.257 9   -622350.87549  20588949.967    20588950.3164   20588959.3134
        -0.000          -0.000
  -3142109.363 9  -2440432.37448  21182841.958    21182841.9544   21182852.8334
        -0.000          -0.000
  -3016428.917 8  -2331737.38945  22547466.556    22547466.1934   22547477.0794
        -0.000          -0.000
   1017637.907 9    785045.05046  23288820.505    23288820.0364   23288832.4154
        -0.000          -0.000
   -534855.415 9   -417618.41548  21555744.496    21555744.5194   21555754.0184
        -0.000          -0.000
   1422119.265 8   1093547.96945  24168010.944    24168010.5044   24168026.8794
        -0.000          -0.000
  -1313068.735 7  -1019560.82545  24791567.299    24791566.1264   24791585.1684
        -0.000          -0.000
 99  5 10 17 37 30.0010000  0  7  4 24  5  7  9  2 16                0.001000087
   -783340.492 9   -609835.22649  20592006.435    20592006.7904   20592015.7774
        -0.000          -0.000
  -3202835.718 9  -2487751.56748  21171286.085    21171286.1044   21171296.9464
        -0.000          -0.000
  -3095064.337 8  -2393011.67845  22532502.628    22532502.4934   22532513.2514
        -0.000          -0.000
   1082491.609 9    835580.28946  23301161.762    23301161.3814   23301173.8814
        -0.000          -0.000
   -510993.115 9   -399024.45748  21560285.383    21560285.3854   21560294.9094
        -0.000          -0.000
   1505523.818 8   1158538.23645  24183882.528    24183882.1254   24183898.6464
        -0.000          -0.000
  -1314962.197 7  -1021036.27445  24791206.581    24791205.8064   24791225.2044
        -0.000          -0.000
 99  5 10 17 38  0.0010000  0  7  4 24  5  7  9  2 16                0.001000068
   -766695.248 9   -596864.91649  20595173.953    20595174.3074   20595183.2824
        -0.000          -0.000
  -3263102.795 9  -2534712.87448  21159817.653    21159817.6634   21159828.4604
        -0.000          -0.000
  -3173583.402 8  -2454195.29645  22517560.853    22517560.6784   22517571.5194
        -0.000          -0.000
   1147378.023 8    886141.02546  23313509.194    23313508.8244   23313521.4324
        -0.000          -0.000
   -486616.494 9   -380029.73148  21564924.134    21564924.1344   21564933.6754
        -0.000          -0.000
   1589130.984 8   1223686.36945  24199792.706    24199792.3324   24199809.0014
        -0.000          -0.000
  -1316369.138 7  -1022132.61045  24790938.598    24790937.4914   24790957.4334
        -0.000          -0.000
 99  5 10 17 38 30.0010000  0  7  4 24  5  7  9  2 16                0.001000057
   -749410.936 9   -583396.63849  20598463.042    20598463.4004   20598472.3544
        -0.000          -0.000
  -3322847.027 9  -2581266.77148  21148448.709    21148448.7044   21148459.4864
        -0.000          -0.000
  -3251931.806 8  -2515245.92845  22502651.477    22502651.4794   22502662.4784
        -0.000          -0.000
   1212348.052 9    936766.92646  23325872.656    23325872.3244   23325884.9874
        -0.000          -0.000
   -461658.289 9   -360581.82348  21569673.578    21569673.5764   21569683.1444
        -0.000          -0.000
   1673001.640 9   1289039.85045  24215753.061    24215752.6924   24215769.2624
        -0.000          -0.000
  -1317226.212 7  -1022800.43945  24790775.581    24790774.7924   24790794.1154
        -0.000          -0.000
 99  5 10 17 39  0.0010000  0  7  4 24  5  7  9  2 16                0.001000027
   -731518.877 9   -569454.79249  20601867.745    20601868.1044   20601877.0624
        -0.000          -0.000
  -3382100.854 9  -2627438.53948  21137173.055    21137173.0404   21137183.7964
        -0.000          -0.000
  -3330148.459 8  -2576193.88545  22487767.139    22487767.1624   22487778.2434
        -0.000          -0.000
   1277355.311 9    987421.81446  23338243.191    23338242.8204   23338255.5894
        -0.000          -0.000
   -436161.654 9   -340714.35748  21574525.459    21574525.4674   21574535.0524
        -0.000          -0.000
   1757102.411 8   1354572.64245  24231757.095    24231756.7144   24231773.3344
        -0.000          -0.000
  -1317571.522 7  -1023069.51545  24790710.168    24790709.2894   24790728.4634
        -0.000          -0.000
 99  5 10 17 39 30.0010000  0  7  4 24  5  7  9  2 16                0.001000024
   -712955.375 9   -554989.74449  20605400.305    20605400.6784   20605409.6304
        -0.000          -0.000
  -3440811.157 9  -2673186.77848  21126000.849    21126000.8444   21126011.5684
        -0.000          -0.000
  -3408153.539 8  -2636977.01845  22472923.131    22472922.9804   22472934.2214
        -0.000          -0.000
   1342458.066 9   1038151.10646  23350632.036    23350631.6934   23350644.4604
        -0.000          -0.000
   -410059.117 9   -320374.76248  21579492.653    21579492.6584   21579502.2474
        -0.000          -0.000
   1841499.740 9   1420336.49245  24247817.516    24247817.1854   24247834.0014
        -0.000          -0.000
  -1317343.173 7  -1022891.55945  24790753.739    24790753.0194   24790772.0424
        -0.000          -0.000
 99  5 10 17 40  0.0010000  0  7  4 24  5  7  9  2 16                0.001000007
   -693826.657 9   -540084.27249  20609040.429    20609040.7884   20609049.7264
        -0.000          -0.000
  -3499067.811 9  -2718581.53048  21114914.961    21114914.9394   21114925.6514
        -0.000          -0.000
  -3486030.151 8  -2697659.98845  22458103.524    22458103.4184   22458114.7314
        -0.000          -0.000
   1407563.890 9   1088882.79046  23363021.476    23363021.1374   23363033.9124
        -0.000          -0.000
   -383430.064 9   -299624.89648  21584559.993    21584560.0104   21584569.6034
        -0.000          -0.000
   1926115.529 9   1486270.55645  24263919.520    24263919.1084   24263936.1454
        -0.000          -0.000
  -1316644.244 7  -1022346.96045  24790886.994    24790886.1374   24790905.0424
        -0.000          -0.000
 99  5 10 17 40 30.0010000  0  7  4 24  5  7  9  2 16                0.001000020
   -674076.022 9   -524694.18949  20612798.917    20612799.2664   20612808.2034
        -0.000          -0.000
  -3556807.247 9  -2763573.25348  21103927.509    21103927.4854   21103938.1554
        -0.000          -0.000
  -3563718.216 8  -2758196.09045  22443320.125    22443319.9534   22443331.2444
        -0.000          -0.000
   1472729.276 9   1139660.89146  23375422.268    23375421.9414   23375434.5974
        -0.000          -0.000
   -356208.422 9   -278413.27248  21589740.140    21589740.1544   21589749.7444
        -0.000          -0.000
   2011012.864 8   1552424.02345  24280075.108    24280074.6834   24280091.8144
        -0.000          -0.000
  -1315409.836 7  -1021385.09845  24791122.123    24791121.4234   24791139.5904
        -0.000          -0.000
 99  5 10 17 41  0.0010000  0  7  4 24  5  7  9  2 16                0.001000058
   -653710.757 9   -508825.17149  20616674.347    20616674.6934   20616683.6154
        -0.000          -0.000
  -3614036.203 9  -2808167.19748  21093037.197    21093037.1744   21093047.8184
        -0.000          -0.000
  -3641215.973 8  -2818583.85945  22428572.900    22428572.6824   22428583.9094
        -0.000          -0.000
   1537951.295 9   1190483.10746  23387833.853    23387833.4794   23387846.1404
        -0.000          -0.000
   -328404.167 9   -256747.66048  21595031.142    21595031.1514   21595040.7314
        -0.000          -0.000
   2096177.354 8   1618785.65645  24296281.494    24296281.0644   24296298.3584
        -0.000          -0.000
  -1313638.669 7  -1020004.95945  24791459.377    24791458.6404   24791476.5584
        -0.000          -0.000
 99  5 10 17 41 30.0010000  0  7  4 24  5  7  9  2 16                0.001000084
   -632821.895 9   -492548.16149  20620649.400    20620649.7514   20620658.6414
        -0.000          -0.000
  -3670815.268 9  -2852410.58648  21082232.496    21082232.5044   21082243.1064
        -0.000          -0.000
  -3718594.098 8  -2878878.46245  22413848.502    22413848.3654   22413858.8934
        -0.000          -0.000
   1603165.764 9   1241299.43546  23400243.913    23400243.4784   23400256.1594
        -0.000          -0.000
   -300085.914 9   -234681.54148  21600419.912    21600419.9304   21600429.5284
        -0.000          -0.000
   2181524.246 8   1685289.40345  24312522.557    24312522.1514   24312539.5474
        -0.000          -0.000
  -1311381.215 8  -1018245.93345  24791889.236    24791888.5134   24791906.1164
        -0.000          -0.000
 99  5 10 17 42  0.0010000  0  8  8  4 24  5  7  9  2 16             0.001000080
  -1150603.374 8   -886723.96152         0.000           0.0004          0.0005
        -0.000          -0.000
   -611438.186 9   -475885.55249  20624718.652    20624719.0044   20624727.8664
        -0.000          -0.000
  -3727151.726 9  -2896309.08048  21071511.991    21071511.9864   21071522.5844
        -0.000          -0.000
  -3795892.902 8  -2939111.24945  22399139.215    22399139.0684   22399149.1494
        -0.000          -0.000
   1668352.379 9   1292094.07346  23412648.684    23412648.2704   23412660.8874
        -0.000          -0.000
   -271283.958 9   -212238.50648  21605900.790    21605900.8064   21605910.4264
        -0.000          -0.000
   2267036.593 8   1751922.09145  24328795.264    24328794.7054   24328812.2824
        -0.000          -0.000
  -1308664.032 8  -1016128.63045  24792406.555    24792406.1134   24792422.9474
        -0.000          -0.000
 99  5 10 17 42 30.0010000  0  8  8  4 24  5  7  9  2 16             0.001000101
  -1203560.924 8   -801209.58342         0.000           0.0004          0.0004
        -0.000          -0.000
   -589488.230 9   -458781.71349  20628895.662    20628896.0124   20628904.8474
        -0.000          -0.000
  -3782967.880 9  -2939802.15148  21060890.514    21060890.5294   21060901.1254
        -0.000          -0.000
  -3873054.885 8  -2999237.44245  22384455.887    22384455.6544   22384465.8104
        -0.000          -0.000
   1733573.479 9   1342915.56546  23425060.048    23425059.6384   23425072.2134
        -0.000          -0.000
   -241954.261 9   -189384.25249  21611482.128    21611482.1424   21611491.7754
        -0.000          -0.000
   2352785.575 9   1818739.18445  24345113.004    24345112.4294   24345130.0474
        -0.000          -0.000
  -1305406.089 8  -1013589.99345  24793026.901    24793026.4544   24793042.7254
        -0.000          -0.000
 99  5 10 17 43  0.0010000  0  8  8  4 24  5  7  9  2 16             0.001000078
  -1256016.800 7   -842082.19952         0.000           0.0004          0.0005
        -0.000          -0.000
   -567039.867 9   -441289.50649  20633167.462    20633167.8054   20633176.6304
        -0.000          -0.000
  -3838322.505 9  -2982935.58748  21050356.832    21050356.8414   21050367.4434
        -0.000          -0.000
  -3950132.055 8  -3059297.48345  22369788.649    22369788.4284   22369798.6734
        -0.000          -0.000
   1798774.705 9   1393721.57946  23437467.553    23437467.0894   23437479.6894
        -0.000          -0.000
   -212168.138 9   -166174.33549  21617150.302    21617150.3284   21617159.9714
        -0.000          -0.000
   2438713.825 8   1885695.94845  24361464.930    24361464.4884   24361481.9514
        -0.000          -0.000
  -1301662.921 8  -1010673.24845  24793739.510    24793739.0714   24793755.1874
        -0.000          -0.000
 99  5 10 17 43 30.0010000  0  8  8  4 24  5  7  9  2 16             0.001000050
  -1307946.92117   -882544.56552         0.000           0.0005          0.0005
        -0.000          -0.000
   -544046.351 9   -423372.49249  20637543.021    20637543.3664   20637552.1934
        -0.000          -0.000
  -3893189.121 9  -3025688.75548  21039916.010    21039916.0194   21039926.6354
        -0.000          -0.000
  -4027086.437 8  -3119261.88545  22355144.708    22355144.3064   22355154.6564
        -0.000          -0.000
   1863995.268 9   1444542.65846  23449878.723    23449878.3264   23449890.8984
        -0.000          -0.000
   -181887.696 9   -142579.23449  21622912.547    21622912.5694   21622922.2194
        -0.000          -0.000
   2524869.751 9   1952830.15045  24377860.120    24377859.6084   24377877.1004
        -0.000          -0.000
  -1297404.085 8  -1007354.68445  24794550.132    24794549.9094   24794565.8284
        -0.000          -0.000
 99  5 10 17 44  0.0010000  0  8  8  4 24  5  7  9  2 16             0.001000035
  -1359321.951 7   -799589.96342         0.000           0.0004          0.0004
        -0.000          -0.000
   -520467.225 9   -404999.16549  20642030.017    20642030.3604   20642039.1894
        -0.000          -0.000
  -3947555.116 9  -3068051.82848  21029570.488    21029570.4914   21029581.1064
        -0.000          -0.000
  -4103881.890 8  -3179102.44045  22340531.030    22340530.6534   22340541.0694
        -0.000          -0.000
   1929256.577 9   1495395.48446  23462297.717    23462297.3094   23462309.8674
        -0.000          -0.000
   -151082.568 9   -118575.28749  21628774.656    21628774.6714   21628784.3334
        -0.000          -0.000
   2611297.416 9   2020176.04945  24394307.059    24394306.5734   24394324.0434
        -0.000          -0.000
  -1292613.050 8  -1003621.41945  24795462.042    24795461.7894   24795477.6384
        -0.000          -0.000
 99  5 10 17 44 30.0010000  0  8  8  4 24  5  7  9  2 16             0.001000036
  -1410127.624 7   -839198.23552         0.000           0.0004          0.0005
        -0.000          -0.000
   -496294.286 9   -386163.12249  20646629.997    20646630.3354   20646639.1734
        -0.000          -0.000
  -4001427.176 9  -3110030.02248  21019318.909    21019318.9084   21019329.5384
        -0.000          -0.000
  -4180487.998 8  -3238795.46045  22325953.220    22325952.9254   22325963.3654
        -0.000          -0.000
   1994557.465 9   1546279.15146  23474724.201    23474723.7274   23474736.3954
        -0.000          -0.000
   -119736.059 9    -94149.48649  21634739.744    21634739.7514   21634749.4324
        -0.000          -0.000
   2697986.538 9   2087725.69945  24410803.815    24410803.2824   24410820.4494
        -0.000          -0.000
  -1287285.427 8   -999470.04945  24796475.961    24796475.7374   24796491.6814
        -0.000          -0.000
 99  5 10 17 45  0.0010000  0  8  8  4 24  5  7  9  2 16             0.001000026
  -1460399.678 7   -878399.62052         0.000           0.0004          0.0005
        -0.000          -0.000
   -471564.588 9   -366893.24449  20651335.893    20651336.2374   20651345.1044
        -0.000          -0.000
  -4054850.405 9  -3151658.47848  21009152.782    21009152.7764   21009163.4264
        -0.000          -0.000
  -4256927.235 8  -3298358.42545  22311407.169    22311406.7164   22311417.7274
        -0.000          -0.000
   2059855.325 9   1597160.46146  23487150.025    23487149.5554   23487162.2874
        -0.000          -0.000
    -87865.295 9    -69315.16849  21640804.579    21640804.5934   21640814.2954
        -0.000          -0.000
   2784887.012 9   2155440.02445  24427340.769    24427340.2444   24427357.3314
        -0.000          -0.000
  -1281470.633 8   -994939.06945  24797582.528    24797582.3014   24797598.3084
        -0.000          -0.000
 99  5 10 17 45 30.0010000  0  8  8  4 24  5  7  9  2 16             0.001000018
  -1510108.981 7   -798471.95642         0.000           0.0004          0.0004
        -0.000          -0.000
   -446240.611 9   -347160.29249  20656154.888    20656155.2214   20656164.1404
        -0.000          -0.000
  -4107788.471 9  -3192908.88548  20999078.941    20999078.9604   20999089.5884
        -0.000          -0.000
  -4333181.033 8  -3357776.88245  22296896.368    22296895.5824   22296907.0504
        -0.000          -0.000
   2125169.571 9   1648054.52546  23499579.005    23499578.5804   23499591.3944
        -0.000          -0.000
    -55438.613 9    -44047.67349  21646975.213    21646975.2114   21646984.9564
        -0.000          -0.000
   2872029.396 9   2223342.90145  24443923.687    24443923.1234   24443940.1394
        -0.000          -0.000
  -1275148.160 8   -990012.46845  24798785.719    24798785.3894   24798801.5884
        -0.000          -0.000
 99  5 10 17 46  0.0010000  0  8  8  4 24  5  7  9  2 16             0.001000038
  -1559206.357 7   -836729.82352         0.000           0.0004          0.0005
        -0.000          -0.000
   -420307.803 9   -326952.92549  20661089.711    20661090.0454   20661098.9884
        -0.000          -0.000
  -4160186.913 9  -3233738.80848  20989107.839    20989107.8534   20989118.4554
        -0.000          -0.000
  -4409215.951 8  -3417024.80345  22282427.290    22282426.6574   22282437.5124
        -0.000          -0.000
   2190527.175 9   1698982.38946  23512016.244    23512015.8104   23512028.6814
        -0.000          -0.000
    -22432.188 9    -18328.42749  21653256.170    21653256.1634   21653265.9394
        -0.000          -0.000
   2959437.703 8   2291452.96045  24460557.297    24460556.7984   24460573.6154
        -0.000          -0.000
  -1268280.377 8   -984660.98345  24800092.615    24800092.3634   24800108.6814
        -0.000          -0.000
 99  5 10 17 46 30.0010000  0  8  8  4 24  5  7  9  2 16             0.001000059
  -1607733.16417   -874542.92244         0.000           0.0005   22213350.9174
        -0.000          -0.000
   -393825.563 9   -306317.43449  20666129.091    20666129.4264   20666138.4034
        -0.000          -0.000
  -4212074.471 9  -3274170.63848  20979233.951    20979233.9684   20979244.5714
        -0.000          -0.000
  -4485085.001 8  -3476143.48445  22267989.826    22267989.1704   22267999.9464
        -0.000          -0.000
   2255899.259 9   1749921.53546  23524456.247    23524455.7984   23524468.6614
        -0.000          -0.000
     11106.117 9      7805.26949  21659638.301    21659638.2954   21659648.1294
        -0.000          -0.000
   3047058.442 8   2359728.50445  24477231.300    24477230.9454   24477247.7244
        -0.000          -0.000
  -1260908.749 8   -978916.88245  24801495.466    24801495.1824   24801511.5024
        -0.000          -0.000
 99  5 10 17 47  0.0010000  0  8  8  4 24  5  7  9  2 16             0.001000063
  -1655706.281 7   -911924.51544  22204208.757    22204210.8454   22204221.4074
        -0.000          -0.000
   -366826.193 9   -285278.98149  20671266.922    20671267.2594   20671276.2094
        -0.000          -0.000
  -4263468.164 9  -3314217.63748  20969454.102    20969454.1194   20969464.7104
        -0.000          -0.000
  -4560840.102 8  -3535173.36845  22253573.971    22253573.1824   22253583.9464
        -0.000          -0.000
   2321277.619 9   1800865.57546  23536897.395    23536896.9454   23536909.8524
        -0.000          -0.000
     45128.750 9     34316.36649  21666112.586    21666112.5824   21666122.4774
        -0.000          -0.000
   3134869.100 8   2428152.06745  24493941.449    24493941.0864   24493957.9384
        -0.000          -0.000
  -1253048.830 8   -972792.29045  24802991.185    24802990.8864   24803007.3564
        -0.000          -0.000
 99  5 10 17 47 30.0010000  0  8  8  4 24  5  7  9  2 16             0.001000063
  -1703103.867 8   -948857.58844  22195189.300    22195189.1904   22195201.2624
        -0.000          -0.000
   -339291.304 9   -263823.24449  20676506.636    20676506.9624   20676515.9454
        -0.000          -0.000
  -4314347.531 9  -3353863.86849  20959772.035    20959772.0524   20959782.6284
        -0.000          -0.000
  -4636464.468 8  -3594101.39445  22239183.125    22239182.3434   22239193.0174
        -0.000          -0.000
   2386699.654 9   1851843.63846  23549346.871    23549346.4564   23549359.4224
        -0.000          -0.000
     79645.772 9     61212.69249  21672680.958    21672680.9654   21672690.8874
        -0.000          -0.000
   3222890.382 8   2496739.70445  24510691.591    24510691.2214   24510708.3054
        -0.000          -0.000
  -1244669.041 8   -966262.63745  24804585.810    24804585.4634   24804602.0734
        -0.000          -0.000
 99  5 10 17 48  0.0010000  0  8  8  4 24  5  7  9  2 16             0.001000054
  -1749942.603 8   -985355.27045  22186276.354    22186277.2004   22186288.6454
        -0.000          -0.000
   -311237.997 9   -241963.54449  20681844.990    20681845.3364   20681854.3184
        -0.000          -0.000
  -4364726.071 9  -3393119.84149  20950185.314    20950185.3094   20950195.8724
        -0.000          -0.000
  -4711948.181 8  -3652919.84345  22224819.085    22224818.4874   22224828.5934
        -0.000          -0.000
   2452158.886 9   1902850.68846  23561803.391    23561802.9534   23561816.0194
        -0.000          -0.000
    114657.319 9     88494.36849  21679343.463    21679343.4634   21679353.4374
        -0.000          -0.000
   3311104.857 8   2565477.87845  24527478.283    24527477.9504   24527495.5214
        -0.000          -0.000
  -1235776.007 8   -959333.02745  24806278.067    24806277.7814   24806294.3014
        -0.000          -0.000
 99  5 10 17 48 30.0010000  0  8  8  4 24  5  7  9  2 16             0.001000019
  -1796247.616 8  -1021437.07445  22177464.928    22177465.4484   22177477.2164
        -0.000          -0.000
   -282660.960 9   -219695.74149  20687283.047    20687283.3824   20687292.3814
        -0.000          -0.000
  -4414630.690 9  -3432006.52549  20940688.766    20940688.7634   20940699.3104
        -0.000          -0.000
  -4787299.343 8  -3711634.96245  22210480.312    22210479.8854   22210489.9944
        -0.000          -0.000
   2517640.874 9   1953875.47946  23574264.257    23574263.7574   23574276.9484
        -0.000          -0.000
    150155.340 9    116155.10949  21686098.519    21686098.5364   21686108.5284
        -0.000          -0.000
   3399499.326 8   2634356.29845  24544299.174    24544298.8054   24544316.7734
        -0.000          -0.000
  -1226387.272 8   -952017.17445  24808064.658    24808064.3454   24808080.9644
        -0.000          -0.000
 99  5 10 17 49  0.0010000  0  8  8  4 24  5  7  9  2 16             0.000999983
  -1841985.684 8  -1057077.12445  22168761.502    22168761.7074   22168773.5724
        -0.000          -0.000
   -253494.193 9   -196968.41049  20692833.336    20692833.6594   20692842.6424
        -0.000          -0.000
  -4464023.380 9  -3470494.30549  20931289.674    20931289.6604   20931300.1754
        -0.000          -0.000
  -4862455.696 8  -3770198.29845  22196178.592    22196178.1654   22196187.9334
        -0.000          -0.000
   2583169.715 9   2004936.77446  23586734.029    23586733.5644   23586746.7264
        -0.000          -0.000
    186183.616 9    144229.03849  21692954.519    21692954.5404   21692964.5634
        -0.000          -0.000
   3488127.242 8   2703416.67145  24561164.764    24561164.3494   24561182.5574
        -0.000          -0.000
  -1216451.630 8   -944275.16745  24809955.377    24809955.0354   24809971.7414
        -0.000          -0.000
 99  5 10 17 49 30.0010000  0  8  8  4 24  5  7  9  2 16             0.000999973
  -1887135.299 8  -1092258.65045  22160170.050    22160170.0724   22160181.6444
        -0.000          -0.000
   -223698.102 9   -173750.70449  20698503.358    20698503.6844   20698512.6694
        -0.000          -0.000
  -4512871.878 9  -3508558.04449  20921994.077    20921994.0854   20922004.5834
        -0.000          -0.000
  -4937354.729 8  -3828561.14445  22181925.717    22181925.2534   22181935.3944
        -0.000          -0.000
   2648753.712 9   2056041.04446  23599214.276    23599213.8144   23599227.1284
        -0.000          -0.000
    222794.524 9    172756.95949  21699921.381    21699921.3974   21699931.4284
        -0.000          -0.000
   3577037.768 7   2772697.18145  24578083.977    24578083.6074   24578102.1804
        -0.000          -0.000
  -1205933.721 8   -936079.45345  24811956.890    24811956.6504   24811973.3124
        -0.000          -0.000
 99  5 10 17 50  0.0010000  0  8  8  4 24  5  7  9  2 16             0.000999966
  -1931732.059 8  -1127009.38345  22151683.886    22151683.6494   22151694.7554
        -0.000          -0.000
   -193327.845 9   -150085.59249  20704282.621    20704282.9334   20704291.9394
        -0.000          -0.000
  -4561219.936 9  -3546231.82249  20912793.743    20912793.7344   20912804.2154
        -0.000          -0.000
  -5012042.939 8  -3886759.65145  22167712.952    22167712.4234   22167722.6354
        -0.000          -0.000
   2714327.542 9   2107137.38846  23611692.664    23611692.1654   23611705.5154
        -0.000          -0.000
    259934.429 9    201697.09648  21706988.928    21706988.9544   21706998.9874
        -0.000          -0.000
   3666189.610 7   2842165.69945  24595049.097    24595049.6514   24595068.6844
        -0.000          -0.000
  -1194892.802 8   -927476.19545  24814057.899    24814057.6854   24814074.3934
        -0.000          -0.000
 99  5 10 17 50 30.0010000  0  8  8  4 24  5  7  9  2 16             0.000999976
  -1975748.664 8  -1161308.05445  22143308.087    22143307.5974   22143318.3274
        -0.000          -0.000
   -162374.160 9   -125965.86149  20710172.914    20710173.2554   20710182.2574
        -0.000          -0.000
  -4609045.462 9  -3583498.43349  20903692.821    20903692.8254   20903703.3104
        -0.000          -0.000
  -5086525.844 8  -3944798.23545  22153539.287    22153538.6244   22153548.7124
        -0.000          -0.000
   2779919.746 9   2158248.06546  23624174.534    23624174.0444   23624187.4354
        -0.000          -0.000
    297607.003 9    231052.29148  21714157.824    21714157.8514   21714167.8694
        -0.000          -0.000
   3755605.842 8   2911840.25545  24612064.846    24612065.3214   24612083.9694
        -0.000          -0.000
  -1183304.494 8   -918446.40045  24816263.098    24816262.8794   24816279.6384
        -0.000          -0.000
 99  5 10 17 51  0.0010000  0  7  8  4 24  5  7  9 16                0.000999985
  -2019150.596 9  -1195127.71345  22135049.123    22135048.3254   22135059.3584
        -0.000          -0.000
   -130826.375 9   -101383.20249  20716176.293    20716176.6294   20716185.6194
        -0.000          -0.000
  -4656319.360 9  -3620335.20549  20894696.869    20894696.8724   20894707.3544
        -0.000          -0.000
  -5160786.624 8  -4002663.73245  22139407.788    22139407.0464   22139417.1054
        -0.000          -0.000
   2845562.343 9   2209398.01246  23636665.972    23636665.4774   23636678.8834
        -0.000          -0.000
    335838.677 9    260843.14748  21721433.153    21721433.1854   21721443.1714
        -0.000          -0.000
  -1171143.082 8   -908970.01745  24818577.324    24818577.0174   24818593.9904
        -0.000          -0.000
 99  5 10 17 51 30.0010000  0  7  8  4 24  5  7  9 16                0.001000000
  -2061973.632 9  -1228496.30645  22126900.303    22126899.4274   22126910.4404
        -0.000          -0.000
    -98760.596 9    -76396.90949  20722278.210    20722278.5554   20722287.5234
        -0.000          -0.000
  -4703083.745 9  -3656774.95349  20885797.879    20885797.8834   20885808.3654
        -0.000          -0.000
  -5234894.788 8  -4060410.31745  22125305.333    22125304.9404   22125314.9284
        -0.000          -0.000
   2911216.394 9   2260556.88846  23649159.486    23649159.0184   23649172.5254
        -0.000          -0.000
    374569.019 9    291022.57548  21728803.415    21728803.4324   21728813.3884
        -0.000          -0.000
  -1158471.834 8   -899096.36145  24820988.613    24820988.1484   24821005.3244
        -0.000          -0.000
 99  5 10 17 52  0.0010000  0  7  8  4 24  5  7  9 16                0.001000035
  -2104203.402 9  -1261402.61645  22118864.382    22118863.5594   22118874.3164
        -0.000          -0.000
    -66181.886 9    -51010.92749  20728477.782    20728478.1234   20728487.0664
        -0.000          -0.000
  -4749331.249 9  -3692811.93749  20876997.250    20876997.2464   20877007.7214
        -0.000          -0.000
  -5308860.686 8  -4118046.04045  22111229.978    22111229.6154   22111239.1804
        -0.000          -0.000
   2976909.070 9   2311745.83746  23661660.390    23661659.8844   23661673.5724
        -0.000          -0.000
    413784.136 9    321579.75148  21736265.850    21736265.8664   21736275.8134
        -0.000          -0.000
  -1145292.657 8   -888826.91945  24823496.509    24823495.9924   24823513.2124
        -0.000          -0.000
 99  5 10 17 52 30.0010000  0  7  8  4 24  5  7  9 16                0.001000065
  -2145892.360 8  -1293887.51945  22110931.376    22110930.5814   22110941.1884
        -0.000          -0.000
    -33125.037 9    -25252.36849  20734768.323    20734768.6684   20734777.5864
        -0.000          -0.000
  -4795102.379 9  -3728477.72049  20868287.268    20868287.2654   20868297.7294
        -0.000          -0.000
  -5382725.905 8  -4175603.31445  22097173.759    22097173.2264   22097183.1884
        -0.000          -0.000
   3042612.186 9   2362942.94146  23674163.314    23674162.8584   23674176.7054
        -0.000          -0.000
    453447.018 9    352485.82448  21743813.518    21743813.5314   21743823.4794
        -0.000          -0.000
  -1131638.425 8   -878187.30445  24826094.764    24826094.2724   24826111.5164
        -0.000          -0.000
 99  5 10 17 53  0.0010000  0  7  8  4 24  5  7  9 16                0.001000079
  -2187009.613 8  -1325926.90445  22103106.987    22103106.1084   22103117.0854
        -0.000          -0.000
       444.730 9       905.86949  20741156.505    20741156.8464   20741165.7134
        -0.000          -0.000
  -4840376.392 9  -3763756.14149  20859671.899    20859671.9004   20859682.3514
        -0.000          -0.000
  -5456437.502 8  -4233040.86145  22083146.842    22083146.4464   22083156.5344
        -0.000          -0.000
   3108333.593 9   2414154.29946  23686669.768    23686669.3204   23686683.2344
        -0.000          -0.000
    493570.648 9    383750.92748  21751448.856    21751448.8554   21751458.8114
        -0.000          -0.000
  -1117489.330 8   -867162.05445  24828787.196    24828786.6694   24828804.0894
        -0.000          -0.000
 99  5 10 17 53 30.0010000  0  7  8  4 24  5  7  9 16                0.001000079
  -2227553.201 8  -1357519.29745  22095391.711    22095390.9594   22095401.9954
        -0.000          -0.000
     34525.236 9     27462.08949  20747641.870    20747642.1864   20747651.0044
        -0.000          -0.000
  -4885156.641 9  -3798649.81149  20851150.484    20851150.5094   20851160.9484
        -0.000          -0.000
  -5529976.593 8  -4290343.99745  22069152.698    22069152.1454   22069162.6514
        -0.000          -0.000
   3174072.254 9   2465379.09546  23699179.427    23699179.0504   23699193.0124
        -0.000          -0.000
    534154.299 9    415374.48348  21759171.699    21759171.6994   21759181.6534
        -0.000          -0.000
  -1102837.798 8   -855745.27545  24831575.254    24831574.9484   24831592.2164
        -0.000          -0.000
 99  5 10 17 54  0.0010000  0  7  8  4 24  5  7  9 16                0.001000069
  -2267513.805 8  -1388657.41545  22087787.365    22087786.6344   22087797.5984
        -0.000          -0.000
     69137.041 9     54432.30549  20754228.304    20754228.6364   20754237.4444
        -0.000          -0.000
  -4929434.442 9  -3833151.96449  20842724.688    20842724.7124   20842735.1504
        -0.000          -0.000
  -5603307.340 8  -4347484.76245  22055198.282    22055197.6644   22055208.4054
        -0.000          -0.000
   3239850.599 8   2516634.82946  23711696.660    23711696.2344   23711710.4124
        -0.000          -0.000
    575227.122 9    447379.21448  21766987.641    21766987.6384   21766997.5984
        -0.000          -0.000
  -1087669.448 8   -843925.81345  24834461.648    24834461.3314   24834478.5924
        -0.000          -0.000
 99  5 10 17 54 30.0010000  0  7  8  4 24  5  7  9 16                0.001000052
  -2306891.840 8  -1419341.56645  22080293.736    22080293.0824   22080304.3904
        -0.000          -0.000
    104284.557 9     81819.96049  20760916.715    20760917.0364   20760925.8554
        -0.000          -0.000
  -4973207.940 9  -3867261.15749  20834394.865    20834394.8594   20834405.3104
        -0.000          -0.000
  -5676419.707 8  -4404455.37545  22041285.423    22041284.8564   22041295.6834
        -0.000          -0.000
   3305657.275 8   2567912.62645  23724219.112    23724218.7354   23724233.0524
        -0.000          -0.000
    616803.412 9    479776.25748  21774899.426    21774899.4114   21774909.3714
        -0.000          -0.000
  -1071981.271 8   -831701.25245  24837446.986    24837446.6534   24837463.8964
        -0.000          -0.000
 99  5 10 17 55  0.0010000  0  7  8  4 24  5  7  9 16                0.001000007
  -2345718.944 7  -1449596.42445  22072904.718    22072904.2854   22072915.7604
        -0.000          -0.000
    139925.456 9    109592.06749  20767698.997    20767699.3014   20767708.1154
        -0.000          -0.000
  -5016523.402 9  -3901013.43549  20826152.220    20826152.2054   20826162.6734
        -0.000          -0.000
  -5749342.302 8  -4461278.11245  22027408.662    22027408.2224   22027419.0664
        -0.000          -0.000
   3371442.112 8   2619173.41445  23736737.524    23736737.1894   23736751.6994
        -0.000          -0.000
    658846.422 9    512536.98048  21782899.993    21782899.9824   21782909.9404
        -0.000          -0.000
  -1055804.174 8   -819095.71145  24840525.341    24840525.0324   24840542.3404
        -0.000          -0.000
 99  5 10 17 55 30.0010000  0  7  8  4 24  5  7  9 16                0.000999985
  -2383939.344 7  -1479378.50544  22065630.957    22065630.6534   22065642.3964
        -0.000          -0.000
    176112.940 9    137790.08449  20774585.246    20774585.5544   20774594.3754
        -0.000          -0.000
  -5059311.738 9  -3934354.97149  20818009.835    20818009.8324   20818020.2814
        -0.000          -0.000
  -5822022.005 8  -4517911.59545  22013578.240    22013577.8164   22013588.6054
        -0.000          -0.000
   3437273.693 8   2670470.62446  23749264.885    23749264.5464   23749279.0304
        -0.000          -0.000
    701429.755 9    545718.73048  21791003.426    21791003.4224   21791013.3774
        -0.000          -0.000
  -1039081.933 8   -806065.36645  24843707.430    24843707.2114   24843724.4534
        -0.000          -0.000
 99  5 10 17 56  0.0010000  0  7  8  4 24  5  7  9 16                0.000999961
  -2421579.868 7  -1508708.66644  22058467.372    22058467.2014   22058479.4954
        -0.000          -0.000
    212825.543 9    166397.28249  20781571.433    20781571.7374   20781580.6044
        -0.000          -0.000
  -5101594.091 9  -3967302.23549  20809963.761    20809963.7424   20809974.1874
        -0.000          -0.000
  -5894497.762 9  -4574386.16945  21999786.615    21999786.2154   21999796.9184
        -0.000          -0.000
   3503116.732 8   2721776.77746  23761794.496    23761794.1124   23761808.7184
        -0.000          -0.000
    744512.931 9    579289.97148  21799201.970    21799201.9664   21799211.9174
        -0.000          -0.000
  -1021842.679 8   -792632.16345  24846987.950    24846987.4094   24847004.7364
        -0.000          -0.000
 99  5 10 17 56 30.0010000  0  7  8  4 24  5  7  9 16                0.000999938
  -2458623.822 7  -1537574.05644  22051418.188    22051418.6104   22051430.9834
        -0.000          -0.000
    250076.641 9    195424.09249  20788660.127    20788660.4504   20788669.2924
        -0.000          -0.000
  -5143369.546 9  -3999854.51149  20802014.132    20802014.1254   20802024.5734
        -0.000          -0.000
  -5966763.252 9  -4630696.89345  21986034.962    21986034.5464   21986045.0924
        -0.000          -0.000
   3568958.039 8   2773081.56146  23774323.762    23774323.2984   23774338.0074
        -0.000          -0.000
    788090.336 9    613246.33148  21807494.541    21807494.5454   21807504.4954
        -0.000          -0.000
  -1004054.596 8   -778771.32445  24850372.828    24850372.6244   24850389.4724
        -0.000          -0.000
 99  5 10 17 57  0.0010000  0  7  8  4 24  5  7  9 16                0.000999919
  -2495053.056 8  -1565960.47844  22044486.428    22044486.0884   22044498.4564
        -0.000          -0.000
    287871.153 9    224874.34049  20795852.209    20795852.5214   20795861.3744
        -0.000          -0.000
  -5184629.215 9  -4032004.87849  20794162.693    20794162.6814   20794173.1234
        -0.000          -0.000
  -6038802.839 9  -4686831.58845  21972326.275    21972325.7964   21972336.2604
        -0.000          -0.000
   3634812.762 9   2824396.80546  23786855.715    23786855.2524   23786869.8624
        -0.000          -0.000
    832165.360 9    647590.43648  21815881.808    21815881.8094   21815891.7594
        -0.000          -0.000
   -985716.430 8   -764481.80245  24853862.441    24853862.1694   24853878.6624
        -0.000          -0.000
 99  5 10 17 57 30.0010000  0  7  8  4 24  5  7  9 16                0.000999890
  -2530889.022 8  -1593884.60045  22037667.585    22037667.2494   22037678.9294
        -0.000          -0.000
    326179.676 9    254725.12049  20803142.110    20803142.4144   20803151.2984
        -0.000          -0.000
  -5225388.639 9  -4063765.43849  20786406.438    20786406.4204   20786416.8324
        -0.000          -0.000
  -6110640.927 8  -4742809.28645  21958655.885    21958655.3194   21958665.5344
        -0.000          -0.000
   3700672.089 8   2875715.63546  23799388.523    23799388.0564   23799402.5204
        -0.000          -0.000
    876708.285 9    682299.13548  21824358.107    21824358.0914   21824368.0484
        -0.000          -0.000
   -966860.724 8   -749788.99844  24857450.538    24857449.9264   24857465.8784
        -0.000          -0.000
 99  5 10 17 58  0.0010000  0  7  8  4 24  5  7  9 16                0.000999871
  -2566103.232 8  -1621324.22845  22030967.077    22030967.1694   22030978.1364
        -0.000          -0.000
    365035.642 9    285002.46949  20810536.151    20810536.4654   20810545.3654
        -0.000          -0.000
  -5265629.874 9  -4095122.22349  20778748.786    20778748.7914   20778759.1654
        -0.000          -0.000
  -6182256.165 8  -4798613.31745  21945027.814    21945027.4544   21945037.4594
        -0.000          -0.000
   3766561.561 8   2927057.94646  23811926.988    23811926.4964   23811941.0854
        -0.000          -0.000
    921749.848 9    717396.38648  21832929.315    21832929.2974   21832939.2604
        -0.000          -0.000
   -947453.784 8   -734666.63244  24861143.627    24861143.2674   24861158.4014
        -0.000          -0.000
 99  5 10 17 58 30.0010000  0  8  8 10  4 24  5  7  9 16             0.000999936
  -2600802.004 8  -1648362.21945  22024364.354    22024364.0004   22024375.0624
        -0.000          -0.000
  -6061763.318 8  -4709926.87845  24903681.891    24903681.0914   24903700.5614
        -0.000          -0.000
    404326.872 9    315618.99349  20818013.057    20818013.3694   20818022.2624
        -0.000          -0.000
  -5305457.005 9  -4126156.32249  20771169.923    20771169.9184   20771180.2734
        -0.000          -0.000
  -6253756.491 9  -4854327.79145  21931421.647    21931421.2644   21931431.5304
        -0.000          -0.000
   3832382.618 8   2978346.93646  23824452.451    23824451.9554   23824466.4884
        -0.000          -0.000
    967191.836 9    752805.66948  21841576.673    21841576.6314   21841586.6444
        -0.000          -0.000
   -927618.792 8   -719210.71644  24864918.130    24864917.7144   24864932.2764
        -0.000          -0.000
 99  5 10 17 59  0.0010000  0  8  8 10  4 24  5  7  9 16             0.000999959
  -2634860.638 8  -1674901.42845  22017883.495    22017883.5254   22017893.8984
        -0.000          -0.000
  -6156493.479 8  -4783742.45245  24885655.240    24885654.3714   24885673.7614
        -0.000          -0.000
    444185.123 9    346677.34149  20825597.841    20825598.1584   20825607.0394
        -0.000          -0.000
  -5344711.905 9  -4156744.53449  20763699.925    20763699.9304   20763710.2434
        -0.000          -0.000
  -6325004.090 9  -4909845.34045  21917863.592    21917863.2194   21917873.7824
        -0.000          -0.000
   3898284.033 9   3029698.56746  23836993.265    23836992.8134   23837007.2814
        -0.000          -0.000
   1013183.510 9    788643.26048  21850328.621    21850328.5824   21850338.6104
        -0.000          -0.000
   -907241.329 8   -703332.09944  24868795.904    24868795.6314   24868808.7894
        -0.000          -0.000
 99  5 10 17 59 30.0010000  0  8  8 10  4 24  5  7  9 16             0.000999995
  -2668283.063 8  -1700944.88145  22011523.644    22011523.4504   22011533.6644
        -0.000          -0.000
  -6251280.203 9  -4857602.09945  24867617.795    24867616.9684   24867636.2234
        -0.000          -0.000
    484611.071 9    378178.05449  20833290.682    20833291.0034   20833299.8864
        -0.000          -0.000
  -5383394.940 9  -4186887.13549  20756338.793    20756338.7964   20756349.0754
        -0.000          -0.000
  -6396019.696 9  -4965182.12645  21904349.729    21904349.3954   21904360.0294
        -0.000          -0.000
   3964259.047 9   3081107.53946  23849548.149    23849547.6814   23849561.9924
        -0.000          -0.000
   1059713.877 9    824900.62048  21859183.091    21859183.0824   21859193.1114
        -0.000          -0.000
   -886314.253 8   -687025.17544  24872778.256    24872777.9344   24872791.8004
        -0.000          -0.000
 99  5 10 18  0  0.0010000  0  8  8 10  4 24  5  7  9 16             0.001000015
  -2701106.646 8  -1726521.71845  22005277.846    22005277.5444   22005287.5794
        -0.000          -0.000
  -6346170.173 8  -4931542.21945  24849560.715    24849559.9584   24849579.1324
        -0.000          -0.000
    525573.014 9    410096.42549  20841085.511    20841085.8364   20841094.7154
        -0.000          -0.000
  -5421537.736 9  -4216608.76549  20749080.430    20749080.4214   20749090.6894
        -0.000          -0.000
  -6466841.850 9  -5020368.16445  21890872.757    21890872.4044   21890882.9714
        -0.000          -0.000
   4030255.777 9   3132533.41646  23862107.009    23862106.5274   23862120.9204
        -0.000          -0.000
   1106748.967 9    861551.28048  21868133.653    21868133.6364   21868143.7234
        -0.000          -0.000
   -864873.387 8   -670318.02545  24876858.301    24876857.7594   24876873.0174
        -0.000          -0.000
 99  5 10 18  0 30.0010000  0  8  8 10  4 24  5  7  9 16             0.001000016
  -2733327.487 8  -1751628.88745  21999146.491    21999146.1884   21999155.9204
        -0.000          -0.000
  -6441170.482 8  -5005568.26545  24831482.450    24831481.6244   24831500.9674
        -0.000          -0.000
    567052.578 9    442418.13249  20848978.815    20848979.1424   20848988.0344
        -0.000          -0.000
  -5459135.545 9  -4245905.73449  20741925.802    20741925.8044   20741936.0114
        -0.000          -0.000
  -6537456.681 9  -5075392.66545  21877435.288    21877434.8774   21877445.4614
        -0.000          -0.000
   4096271.511 9   3183974.11046  23874669.548    23874669.1004   23874683.4374
        -0.000          -0.000
   1154272.971 9    898582.90048  21877177.179    21877177.1654   21877187.3084
        -0.000          -0.000
   -842923.679 8   -653214.33345  24881035.259    24881034.7884   24881050.6504
        -0.000          -0.000
 99  5 10 18  1  0.0010000  0  8  8 10  4 24  5  7  9 16             0.001000019
  -2764926.603 8  -1776251.57345  21993133.527    21993133.1214   21993143.0874
        -0.000          -0.000
  -6536267.194 8  -5079669.44645  24813385.825    24813385.0524   24813404.5604
        -0.000          -0.000
    609052.409 9    475145.24249  20856971.164    20856971.4694   20856980.3924
        -0.000          -0.000
  -5496191.610 9  -4274780.56349  20734874.253    20734874.2454   20734884.4324
        -0.000          -0.000
  -6607841.793 9  -5130238.16045  21864041.448    21864041.0694   21864051.6554
        -0.000          -0.000
   4162316.574 9   3235437.67746  23887237.773    23887237.3594   23887251.5014
        -0.000          -0.000
   1202287.559 9    935996.79948  21886314.083    21886314.0804   21886324.2544
        -0.000          -0.000
   -820435.291 8   -635690.88545  24885314.807    24885314.2564   24885330.5084
        -0.000          -0.000
 99  5 10 18  1 30.0010000  0  8  8 10  4 24  5  7  9 30             0.001000024
  -2795927.708 8  -1800408.27244  21987234.386    21987233.8754   21987244.0374
        -0.000          -0.000
  -6631491.777 8  -5153870.25445  24795264.933    24795264.1664   24795283.8144
        -0.000          -0.000
    651511.373 9    508230.11849  20865050.854    20865051.1954   20865060.1094
        -0.000          -0.000
  -5532771.749 9  -4303284.54449  20727913.265    20727913.2544   20727923.4114
        -0.000          -0.000
  -6678047.897 9  -5184944.18245  21850681.694    21850681.3284   21850691.9404
        -0.000          -0.000
   4228349.961 9   3286892.12246  23899803.706    23899803.3004   23899817.4124
        -0.000          -0.000
   1250725.525 9    973740.59348  21895531.564    21895531.5394   21895541.7624
        -0.000          -0.000
  -6783337.988 9  -2323309.34345  24867513.300    24867513.8484   24867528.7074
        -0.000          -0.000
 99  5 10 18  2  0.0010000  0  8  8 10  4 24  5  7  9 30             0.001000021
  -2826304.381 8  -1824078.45244  21981453.963    21981453.6274   21981463.4714
        -0.000          -0.000
  -6726789.900 8  -5228128.38945  24777130.114    24777129.3114   24777149.0424
        -0.000          -0.000
    694449.610 9    541688.44949  20873221.747    20873222.0794   20873230.9934
        -0.000          -0.000
  -5568839.624 9  -4331389.35949  20721049.723    20721049.7364   20721059.8814
        -0.000          -0.000
  -6748021.171 9  -5239468.78245  21837366.203    21837365.9164   21837376.3494
        -0.000          -0.000
   4294414.475 9   3338370.80846  23912375.522    23912375.0674   23912389.2204
        -0.000          -0.000
   1299628.727 9   1011846.90348  21904837.539    21904837.5364   21904847.8024
        -0.000          -0.000
  -6882909.116 8  -2400897.12344  24848565.544    24848565.9664   24848580.5034
        -0.000          -0.000
 99  5 10 18  2 30.0010000  0  8  8 10  4 24  5  7  9 30             0.001000005
  -2856104.515 8  -1847299.39044  21975783.220    21975783.0524   21975792.4154
        -0.000          -0.000
  -6822203.361 8  -5302476.41045  24758973.508    24758972.8994   24758992.5004
        -0.000          -0.000
    737803.145 9    575470.39349  20881471.687    20881472.0284   20881480.9454
        -0.000          -0.000
  -5604444.839 9  -4359133.66049  20714274.260    20714274.2764   20714284.4104
        -0.000          -0.000
  -6817811.348 9  -5293850.69945  21824085.486    21824085.2414   21824095.5784
        -0.000          -0.000
   4360474.887 9   3389846.31646  23924946.637    23924946.1744   23924960.2294
        -0.000          -0.000
   1348936.238 9   1050268.26648  21914220.462    21914220.4714   21914230.7554
        -0.000          -0.000
  -6982530.671 8  -2478524.19753  24829608.154    24829609.2664          0.0005
        -0.000          -0.000
 99  5 10 18  3  0.0010000  0  8  8 10  4 24  5  7  9 30             0.000999959
  -2885360.881 8  -1870096.56254  21970215.936    21970215.5264          0.0005
        -0.000          -0.000
  -6917758.100 8  -5376934.50845  24740789.941    24740789.3684   24740808.9474
        -0.000          -0.000
    781552.233 9    609560.56049  20889796.920    20889797.2444   20889806.1704
        -0.000          -0.000
  -5639608.537 9  -4386533.92149  20707582.819    20707582.8394   20707592.9874
        -0.000          -0.000
  -6887460.121 9  -5348122.44445  21810831.713    21810831.4964   21810841.7274
        -0.000          -0.000
   4426503.776 9   3441297.26646  23937511.704    23937511.1854   23937525.2324
        -0.000          -0.000
   1398612.719 9   1088977.13948  21923673.635    21923673.6374   21923683.9614
        -0.000          -0.000
  -7082220.92418  -2556204.84053         0.000           0.0005          0.0005
        -0.000          -0.000
 99  5 10 18  3 30.0010000  0  8  8 10  4 24  5  7  9 30             0.000999941
  -2913993.71717  -1892407.95154         0.000           0.0005          0.0005
        -0.000          -0.000
  -7013355.893 8  -5451426.17145  24722598.253    24722597.6624   24722617.1724
        -0.000          -0.000
    825793.301 9    644034.08849  20898215.742    20898216.0664   20898225.0064
        -0.000          -0.000
  -5674214.383 9  -4413499.49049  20700997.501    20700997.5184   20701007.6794
        -0.000          -0.000
  -6956874.774 9  -5402211.76046  21797622.514    21797622.3304   21797632.6274
        -0.000          -0.000
   4492589.370 9   3492792.38546  23950087.551    23950087.0894   23950101.0864
        -0.000          -0.000
   1448745.873 9   1128041.85748  21933213.689    21933213.6924   21933224.0514
        -0.000          -0.000
  -7181873.04418  -2633856.06254         0.000           0.0005          0.0005
        -0.000          -0.000
 99  5 10 18  4  0.0010000  0  8  8 10  4 24  5  7  9 30             0.000999946
  -2942024.19217  -1914249.97453         0.000           0.0005          0.0005
        -0.000          -0.000
  -7109001.185 8  -5525954.82545  24704397.538    24704396.9524   24704416.4404
        -0.000          -0.000
    870549.611 9    678909.10349  20906732.608    20906732.9204   20906741.9144
        -0.000          -0.000
  -5708243.615 9  -4440015.75049  20694521.929    20694521.9614   20694532.1084
        -0.000          -0.000
  -7026042.024 9  -5456108.28746  21784460.398    21784460.1524   21784470.4684
        -0.000          -0.000
   4558715.284 9   3544318.91446  23962671.029    23962670.5184   23962684.4694
        -0.000          -0.000
   1499342.798 9   1167467.95948  21942841.975    21942841.9874   21942852.3714
        -0.000          -0.000
  -7281467.28818  -2711461.84545  24772722.024    24772725.5025   24772724.9744
        -0.000          -0.000
 99  5 10 18  4 30.0010000  0  8  8 10  4 24  5  7  9 30             0.000999957
  -2969444.447 7   -821110.63342         0.000           0.0004          0.0004
        -0.000          -0.000
  -7204705.964 8  -5600529.84045  24686185.388    24686184.9304   24686204.2274
        -0.000          -0.000
    915842.390 9    714202.14549  20915351.564    20915351.8934   20915360.8974
        -0.000          -0.000
  -5741693.785 9  -4466080.79649  20688156.524    20688156.5474   20688166.7094
        -0.000          -0.000
  -7094958.656 9  -5509809.52146  21771345.975    21771345.7214   21771356.1354
        -0.000          -0.000
   4624872.675 9   3595869.97045  23975260.474    23975260.0634   23975273.9314
        -0.000          -0.000
   1550389.529 9   1207244.56248  21952555.893    21952555.9324   21952566.2904
        -0.000          -0.000
  -7381024.067 8  -2789038.32745  24753776.862    24753779.4564   24753783.1604
        -0.000          -0.000
 99  5 10 18  5  0.0010000  0  8  8 10  4 24  5  7  9 30             0.000999937
  -2996296.24917   -842161.19652         0.000           0.0005          0.0005
        -0.000          -0.000
  -7300506.358 8  -5675179.36845  24667955.101    24667954.6714   24667973.8914
        -0.000          -0.000
    961643.307 9    749891.13949  20924067.204    20924067.5494   20924076.5864
        -0.000          -0.000
  -5774607.474 9  -4491727.80449  20681893.252    20681893.2834   20681903.4514
        -0.000          -0.000
  -7163648.865 9  -5563334.32046  21758274.624    21758274.3414   21758284.8344
        -0.000          -0.000
   4691009.384 9   3647404.95546  23987846.074    23987845.6294   23987859.4324
        -0.000          -0.000
   1601853.738 9   1247346.46848  21962349.258    21962349.2824   21962359.6524
        -0.000          -0.000
  -7480607.845 8  -2866635.90845  24734826.605    24734828.6064   24734835.4584
        -0.000          -0.000
 99  5 10 18  5 30.0010000  0  8  8 10  4 24  5  7  9 30             0.000999904
  -3022553.00016   -862748.12052         0.000           0.0005          0.0005
        -0.000          -0.000
  -7396364.512 8  -5749873.88945  24649713.743    24649713.2004   24649732.3034
        -0.000          -0.000
   1007981.264 9    785998.60749  20932885.043    20932885.3954   20932894.4514
        -0.000          -0.000
  -5806971.191 9  -4516946.26749  20675734.631    20675734.6574   20675744.8344
        -0.000          -0.000
  -7232062.519 9  -5616643.62646  21745255.913    21745255.6234   21745266.0244
        -0.000          -0.000
   4757147.901 9   3698941.34746  24000431.926    24000431.4364   24000445.1164
        -0.000          -0.000
   1653788.110 9   1287814.73748  21972232.106    21972232.1204   21972242.5114
        -0.000          -0.000
  -7580194.186 8  -2944235.47345  24715875.912    24715877.4454   24715886.6124
        -0.000          -0.000
 99  5 10 18  6  0.0010000  0  7 10  4 24  5  7  9 30                0.000999886
  -7492198.963 8  -5824549.93345  24631476.855    24631476.2944   24631495.2584
        -0.000          -0.000
   1054944.065 9    822592.96049  20941821.820    20941822.1684   20941831.2464
        -0.000          -0.000
  -5838709.220 9  -4541677.18849  20669695.031    20669695.0884   20669705.2714
        -0.000          -0.000
  -7300109.843 9  -5669667.48246  21732306.915    21732306.6074   21732316.9224
        -0.000          -0.000
   4823379.521 9   3750550.25746  24013035.477    24013035.0014   24013048.7474
        -0.000          -0.000
   1706290.160 9   1328725.35048  21982222.966    21982222.9834   21982233.3594
        -0.000          -0.000
  -7679710.219 8  -3021780.26945  24696938.612    24696939.8754   24696950.6544
        -0.000          -0.000
 99  5 10 18  6 30.0010000  0  7 10  4 24  5  7  9 30                0.000999931
  -7588005.008 8  -5899203.86645  24613245.397    24613244.8364   24613263.6514
        -0.000          -0.000
   1102498.487 9    859648.32449  20950871.138    20950871.4834   20950880.5824
        -0.000          -0.000
  -5869843.414 9  -4565937.58249  20663770.412    20663770.4394   20663780.6374
        -0.000          -0.000
  -7367800.301 9  -5722413.26346  21719425.938    21719425.5954   21719435.8084
        -0.000          -0.000
   4889712.432 9   3802238.10845  24025658.260    24025657.7734   24025671.5704
        -0.000          -0.000
   1759355.508 9   1370074.89348  21992321.024    21992321.0434   21992331.4524
        -0.000          -0.000
  -7779175.622 9  -3099285.63045  24678010.924    24678011.8694   24678023.9464
        -0.000          -0.000
 99  5 10 18  7  0.0010000  0  7 10  4 24  5  7  9 30                0.000999964
  -7683874.762 8  -5973907.42845  24595001.780    24595001.1654   24595019.9454
        -0.000          -0.000
   1150499.843 9    897051.94749  20960005.543    20960005.8804   20960014.9944
        -0.000          -0.000
  -5900498.165 9  -4589824.38049  20657936.962    20657936.9884   20657947.1694
        -0.000          -0.000
  -7435246.933 9  -5774969.04846  21706591.256    21706590.9104   21706601.0884
        -0.000          -0.000
   4956044.654 9   3853925.43545  24038280.954    24038280.3954   24038294.2414
        -0.000          -0.000
   1812887.968 9   1411788.41548  22002508.009    22002508.0314   22002518.4584
        -0.000          -0.000
  -7878682.066 9  -3176822.95445  24659075.378    24659076.0674   24659088.9264
        -0.000          -0.000
 99  5 10 18  7 30.0010000  0  7 10  4 24  5  7  9 30                0.000999942
  -7779884.660 8  -6048720.17145  24576731.515    24576730.9534   24576749.6904
        -0.000          -0.000
   1198849.177 9    934726.71849  20969206.134    20969206.4704   20969215.5794
        -0.000          -0.000
  -5930758.496 9  -4613403.83949  20652178.628    20652178.6544   20652188.8344
        -0.000          -0.000
  -7502541.989 9  -5827406.73146  21693785.462    21693785.0954   21693795.2104
        -0.000          -0.000
   5022307.163 9   3905558.42445  24050890.285    24050889.8154   24050903.6004
        -0.000          -0.000
   1866793.708 9   1453792.80848  22012765.977    22012766.0094   22012776.4424
        -0.000          -0.000
  -7978296.928 9  -3254444.74945  24640119.284    24640119.9924   24640133.7764
        -0.000          -0.000
 99  5 10 18  8  0.0010000  0  7 10  4 24  5  7  9 30                0.000999917
  -7875954.062 8  -6123579.28545  24558449.935    24558449.4904   24558468.1784
        -0.000          -0.000
   1247608.986 9    972721.34649  20978484.846    20978485.1774   20978494.2674
        -0.000          -0.000
  -5960539.872 9  -4636610.08449  20646511.397    20646511.4184   20646521.5944
        -0.000          -0.000
  -7569627.867 9  -5879681.39246  21681019.437    21681019.0934   21681029.2314
        -0.000          -0.000
   5088585.498 9   3957203.75445  24063502.593    24063502.0554   24063516.1694
        -0.000          -0.000
   1921116.886 9   1496122.47848  22023103.473    22023103.5024   22023113.9244
        -0.000          -0.000
  -8077940.805 9  -3332089.02654  24621157.738    24621158.2664          0.0005
        -0.000          -0.000
 99  5 10 18  8 30.0010000  0  7 10  4 24  5  7  9 30                0.000999915
  -7972038.392 8  -6198450.00945  24540165.613    24540165.0684   24540183.7514
        -0.000          -0.000
   1296794.839 9   1011047.94648  20987844.633    20987844.9474   20987854.0414
        -0.000          -0.000
  -5989828.709 9  -4659432.54049  20640937.905    20640937.9264   20640948.0984
        -0.000          -0.000
  -7636489.303 9  -5931781.17546  21668296.040    21668295.7414   21668305.7824
        -0.000          -0.000
   5154898.833 9   4008876.35145  24076121.656    24076121.2284   24076135.3024
        -0.000          -0.000
   1975863.481 9   1538782.07548  22033521.505    22033521.5104   22033531.9104
        -0.000          -0.000
  -8177576.596 9  -3409726.97954  24602197.615    24602198.3824          0.0005
        -0.000          -0.000
 99  5 10 18  9  0.0010000  0  7 10  4 24  5  7  9 30                0.000999950
  -8068112.289 8  -6273312.60645  24521883.340    24521882.7244   24521901.3754
        -0.000          -0.000
   1346461.137 9   1049748.92748  20997295.842    20997296.1644   20997305.2894
        -0.000          -0.000
  -6018578.718 9  -4681835.12049  20635466.922    20635466.9634   20635477.1374
        -0.000          -0.000
  -7703089.512 9  -5983677.39646  21655622.334    21655622.0264   21655632.1684
        -0.000          -0.000
   5221267.282 9   4060591.89945  24088751.226    24088750.7954   24088764.9574
        -0.000          -0.000
   2031057.359 9   1581790.20848  22044024.648    22044024.6594   22044035.0614
        -0.000          -0.000
  -8277158.999 8  -3487323.42544  24583247.623    24583248.0734   24583263.7104
        -0.000          -0.000
 99  5 10 18  9 30.0010000  0  7 10  4 24  5  7  9 30                0.000999973
  -8164227.764 8  -6348207.60345  24503593.191    24503592.4764   24503611.0674
        -0.000          -0.000
   1396586.065 9   1088807.27448  21006834.328    21006834.6614   21006843.7974
        -0.000          -0.000
  -6046817.612 9  -4703839.43349  20630093.224    20630093.2444   20630103.4384
        -0.000          -0.000
  -7769470.609 9  -6035402.88346  21642990.310    21642989.9704   21643000.1684
        -0.000          -0.000
   5287623.845 9   4112298.19745  24101378.461    24101377.9434   24101392.2744
        -0.000          -0.000
   2086638.110 9   1625099.79348  22054601.437    22054601.4174   22054611.8294
        -0.000          -0.000
  -8376747.391 8  -3564924.65044  24564296.353    24564296.5224   24564312.3124
        -0.000          -0.000
 99  5 10 18 10  0.0010000  0  7 10  4 24  5  7  9 30                0.001000006
  -8260341.477 8  -6423101.22845  24485303.224    24485302.5584   24485321.0794
        -0.000          -0.000
   1447225.947 9   1128266.88248  21016470.796    21016471.1304   21016480.2704
        -0.000          -0.000
  -6074491.968 9  -4725403.84549  20624826.947    20624826.9704   20624837.1784
        -0.000          -0.000
  -7835586.387 9  -6086921.62446  21630408.815    21630408.4604   21630418.7244
        -0.000          -0.000
   5353997.167 9   4164017.52745  24114008.939    24114008.4594   24114023.0104
        -0.000          -0.000
   2142660.197 9   1668753.27548  22065262.138    22065262.1374   22065272.5344
        -0.000          -0.000
  -8476298.173 8  -3642496.51245  24545352.330    24545352.4254   24545367.9944
        -0.000          -0.000
 99  5 10 18 10 30.0010000  0  7 10  4 24  5  7  9 30                0.000999984
  -8356555.549 8  -6498073.02545  24466994.144    24466993.5234   24467011.8734
        -0.000          -0.000
   1498296.748 9   1168062.27048  21026189.292    21026189.6324   21026198.7594
        -0.000          -0.000
  -6101691.451 9  -4746598.23049  20619651.009    20619651.0434   20619661.2484
        -0.000          -0.000
  -7901515.048 9  -6138294.57446  21617863.006    21617862.6754   21617872.8924
        -0.000          -0.000
   5420287.059 8   4215671.83645  24126623.585    24126623.0974   24126637.8964
        -0.000          -0.000
   2199046.561 9   1712690.60448  22075992.196    22075992.2084   22076002.5854
        -0.000          -0.000
  -8575896.348 8  -3720105.35445  24526399.305    24526399.4874   24526414.8894
        -0.000          -0.000
 99  5 10 18 11  0.0010000  0  7 10  4 24  5  7  9 30                0.000999979
  -8452754.024 8  -6573032.65345  24448687.957    24448687.3464   24448705.7074
        -0.000          -0.000
   1549924.700 9   1208291.80248  21036013.784    21036014.1204   21036023.2354
        -0.000          -0.000
  -6128262.548 9  -4767302.95749  20614594.722    20614594.7434   20614604.9424
        -0.000          -0.000
  -7967108.375 9  -6189406.22546  21605381.019    21605380.7264   21605390.8214
        -0.000          -0.000
   5486621.576 9   4267360.90845  24139246.655    24139246.1774   24139260.9254
        -0.000          -0.000
   2255937.657 9   1757021.23548  22086818.317    22086818.3144   22086828.6924
        -0.000          -0.000
  -8675419.500 8  -3797655.68045  24507460.489    24507460.6984   24507475.7164
        -0.000          -0.000
 99  5 10 18 11 30.0010000  0  7 10  4 24  5  7  9 30                0.000999963
  -8548993.581 8  -6648024.29145  24430374.023    24430373.5244   24430391.5574
        -0.000          -0.000
   1602034.420 9   1248896.73648  21045929.981    21045930.3154   21045939.4064
        -0.000          -0.000
  -6154278.774 9  -4787575.31949  20609643.995    20609644.0004   20609654.2054
        -0.000          -0.000
  -8032427.808 9  -6240304.44946  21592951.175    21592950.8914   21592960.9784
        -0.000          -0.000
   5552969.110 9   4319060.14146  24151872.332    24151871.9674   24151886.7044
        -0.000          -0.000
   2313275.629 9   1801700.07948  22097729.502    22097729.4804   22097739.8704
        -0.000          -0.000
  -8774919.007 8  -3875187.56445  24488526.060    24488526.4384   24488541.6504
        -0.000          -0.000
 99  5 10 18 12  0.0010000  0  7 10  4 24  5  7  9 30                0.000999945
  -8645282.011 8  -6723054.00845  24412050.807    24412050.3704   24412068.1234
        -0.000          -0.000
   1654609.296 9   1289864.12648  21055934.721    21055935.0494   21055944.1264
        -0.000          -0.000
  -6179758.304 9  -4807429.47749  20604795.385    20604795.3774   20604805.5724
        -0.000          -0.000
  -8097477.452 9  -6290992.45046  21580572.730    21580572.3914   21580582.4124
        -0.000          -0.000
   5619343.917 9   4370780.62846  24164503.257    24164502.9024   24164517.4714
        -0.000          -0.000
   2371058.783 9   1846725.81348  22108725.327    22108725.2984   22108735.6844
        -0.000          -0.000
  -8874382.273 8  -3952691.26044  24469598.595    24469599.0804   24469614.0104
        -0.000          -0.000
 99  5 10 18 12 30.0010000  0  7 10  4 24  5  7  9 30                0.000999927
  -8741622.307 8  -6798124.12745  24393717.602    24393717.1114   24393734.6654
        -0.000          -0.000
   1707623.964 9   1331174.20848  21066023.070    21066023.3964   21066032.4644
        -0.000          -0.000
  -6204715.537 9  -4826876.65149  20600046.156    20600046.1654   20600056.3614
        -0.000          -0.000
  -8162261.770 9  -6341473.69846  21568244.694    21568244.3554   21568254.3634
        -0.000          -0.000
   5685749.918 9   4422525.42746  24177140.093    24177139.7444   24177154.1814
        -0.000          -0.000
   2429267.101 9   1892082.84648  22119802.102    22119802.0894   22119812.4474
        -0.000          -0.000
  -8973815.380 8  -4030171.51944  24450676.918    24450677.4514   24450692.0624
        -0.000          -0.000
 99  5 10 18 13  0.0010000  0  7 10  4 24  5  7  9 30                0.000999920
  -8837989.159 8  -6873214.94145  24375379.466    24375378.9464   24375396.5174
        -0.000          -0.000
   1761080.565 9   1372828.65048  21076195.553    21076195.8934   21076204.9374
        -0.000          -0.000
  -6229146.957 9  -4845914.10249  20595397.030    20595397.0234   20595407.2154
        -0.000          -0.000
  -8226770.366 9  -6391740.09446  21555969.104    21555968.8234   21555978.8064
        -0.000          -0.000
   5752204.378 9   4474307.96746  24189786.174    24189785.7594   24189800.2654
        -0.000          -0.000
   2487902.783 9   1937772.88248  22130960.227    22130960.2054   22130970.5564
        -0.000          -0.000
  -9073211.026 8  -4107622.55844  24431762.557    24431762.7004   24431777.3914
        -0.000          -0.000
 99  5 10 18 13 30.0010000  0  7 10  4 24  5  7  9 30                0.000999938
  -8934364.669 9  -6948312.51545  24357039.716    24357039.3534   24357056.6774
        -0.000          -0.000
   1814983.779 9   1414831.10648  21086453.040    21086453.3624   21086462.4094
        -0.000          -0.000
  -6253062.957 9  -4864549.92849  20590845.953    20590845.9644   20590856.1094
        -0.000          -0.000
  -8291004.946 9  -6441792.97446  21543745.661    21543745.3854   21543755.3614
        -0.000          -0.000
   5818715.281 9   4526134.47646  24202443.052    24202442.6574   24202457.1164
        -0.000          -0.000
   2546960.433 9   1983791.72848  22142198.591    22142198.5854   22142208.8904
        -0.000          -0.000
  -9172548.352 8  -4185028.13644  24412859.416    24412860.1674   24412874.1504
        -0.000          -0.000
 99  5 10 18 14  0.0010000  0  7 10  4 24  5  7  9 30                0.000999941
  -9030777.144 8  -7023438.88045  24338692.947    24338692.3544   24338709.7674
        -0.000          -0.000
   1869273.803 9   1457134.96848  21096784.114    21096784.4204   21096793.5114
        -0.000          -0.000
  -6276500.192 9  -4882812.69149  20586386.023    20586386.0224   20586396.1624
        -0.000          -0.000
  -8355013.211 9  -6491669.49946  21531565.285    21531565.0374   21531575.0124
        -0.000          -0.000
   5885200.181 9   4577940.72946  24215094.900    24215094.4484   24215108.9064
        -0.000          -0.000
   2606381.542 9   2030093.78848  22153506.124    22153506.1274   22153516.4214
        -0.000          -0.000
  -9271891.441 8  -4262438.15344  24393955.018    24393955.8554   24393970.0674
        -0.000          -0.000
 99  5 10 18 14 30.0010000  0  7 10  4 24  5  7  9 30                0.000999946
  -9127183.452 8  -7098560.42745  24320347.292    24320346.6944   24320364.0634
        -0.000          -0.000
   1923978.855 9   1499762.22848  21107194.158    21107194.4734   21107203.5774
        -0.000          -0.000
  -6299424.306 9  -4900675.62249  20582023.710    20582023.7214   20582033.8144
        -0.000          -0.000
  -8418749.446 9  -6541334.06046  21519436.697    21519436.4544   21519446.4564
        -0.000          -0.000
   5951684.962 9   4629746.88446  24227746.720    24227746.2904   24227760.7304
        -0.000          -0.000
   2666187.101 9   2076695.42048  22164886.856    22164886.8384   22164897.1334
        -0.000          -0.000
  -9371218.281 8  -4339835.55754  24375053.953    24375054.5204          0.0005
        -0.000          -0.000
 99  5 10 18 15  0.0010000  0  7 10  4 24  5  7  9 30                0.000999976
  -9223537.118 8  -7173640.94945  24302011.725    24302011.1694   24302028.4114
        -0.000          -0.000
   1979161.453 9   1542761.60248  21117695.099    21117695.4234   21117704.5424
        -0.000          -0.000
  -6321781.557 9  -4918096.84249  20577769.239    20577769.2474   20577779.3114
        -0.000          -0.000
  -8482150.218 9  -6590737.22546  21507371.962    21507371.6674   21507381.7244
        -0.000          -0.000
   6018214.475 9   4681587.89746  24240407.052    24240406.6054   24240420.9754
        -0.000          -0.000
   2726426.405 9   2123635.03548  22176350.108    22176350.1124   22176360.3864
        -0.000          -0.000
  -9470479.890 8  -4417182.27154  24356165.252    24356165.6884          0.0005
        -0.000          -0.000
 99  5 10 18 15 30.0010000  0  7 10  4 24  5  7  9 30                0.000999962
  -9319941.717 8  -7248761.16445  24283666.403    24283665.9084   24283683.1494
        -0.000          -0.000
   2034714.329 9   1586049.50148  21128266.534    21128266.8554   21128275.9784
        -0.000          -0.000
  -6343675.040 9  -4935156.68549  20573603.044    20573603.0614   20573613.0904
        -0.000          -0.000
  -8545321.836 9  -6639961.82546  21495350.787    21495350.4694   21495360.5434
        -0.000          -0.000
   6084681.531 9   4733380.25546  24253055.464    24253055.0394   24253069.5534
        -0.000          -0.000
   2786988.932 9   2170826.50248  22187874.829    22187874.8334   22187885.1434
        -0.000          -0.000
  -9569783.346 8  -4494561.59654  24337268.447    24337268.6034          0.0005
        -0.000          -0.000
 99  5 10 18 16  0.0010000  0  7 10  4 24  5  7  9 30                0.000999972
  -9416281.148 8  -7323830.58445  24265333.520    24265333.0604   24265350.2064
        -0.000          -0.000
   2090763.038 9   1629723.76548  21138932.306    21138932.6414   21138941.7594
        -0.000          -0.000
  -6364985.048 9  -4951761.87549  20569547.902    20569547.9084   20569557.9234
        -0.000          -0.000
  -8608137.424 9  -6688908.99946  21483397.342    21483397.0444   21483407.1264
        -0.000          -0.000
   6151212.828 9   4785222.66146  24265716.115    24265715.6554   24265730.2494
        -0.000          -0.000
   2847997.797 9   2218365.77248  22199484.492    22199484.4974   22199494.8454
        -0.000          -0.000
  -9669023.578 8  -4571891.49754  24318383.673    24318383.3254          0.0005
        -0.000          -0.000
 99  5 10 18 16 30.0010000  0  7 10  4 24  5  7  9 30                0.000999969
  -9512635.280 8  -7398911.49745  24246997.774    24246997.2534   24247014.3194
        -0.000          -0.000
   2147259.044 9   1673746.57448  21149683.182    21149683.5094   21149692.6324
        -0.000          -0.000
  -6385777.970 9  -4967964.13949  20565591.143    20565591.1674   20565601.1574
        -0.000          -0.000
  -8670658.185 9  -6737626.43646  21471499.954    21471499.6314   21471509.7494
        -0.000          -0.000
   6217774.173 8   4837088.46346  24278382.357    24278381.8964   24278396.6964
        -0.000          -0.000
   2909392.178 9   2266205.44748  22211167.450    22211167.4494   22211177.8534
        -0.000          -0.000
  -9768257.062 8  -4649216.17854  24299500.271    24299499.9544          0.0005
        -0.000          -0.000
 99  5 10 18 17  0.0010000  0  7 10  4 24  5  7  9 30                0.000999954
  -9608997.937 8  -7473999.05545  24228660.363    24228659.8294   24228676.8464
        -0.000          -0.000
   2204207.648 9   1718122.05248  21160520.174    21160520.5064   21160529.6514
        -0.000          -0.000
  -6406047.088 9  -4983758.24549  20561734.067    20561734.0884   20561744.0904
        -0.000          -0.000
  -8732909.279 9  -6786133.74146  21459653.897    21459653.5814   21459663.7314
        -0.000          -0.000
   6284372.684 8   4888983.22245  24291055.660    24291055.2224   24291070.2544
        -0.000          -0.000
   2971176.386 9   2314348.87648  22222924.657    22222924.6694   22222935.0924
        -0.000          -0.000
  -9867476.398 8  -4726529.93854  24280619.410    24280619.6484          0.0005
        -0.000          -0.000
 99  5 10 18 17 30.0010000  0  7 10  4 24  5  7  9 30                0.000999951
  -9705330.908 8  -7549063.46245  24210328.503    24210327.9004   24210344.8844
        -0.000          -0.000
   2261625.554 9   1762863.22148  21171446.512    21171446.8524   21171455.9774
        -0.000          -0.000
  -6425780.620 9  -4999135.01549  20557978.908    20557978.9374   20557988.9254
        -0.000          -0.000
  -8794891.096 9  -6834431.23446  21447859.093    21447858.7764   21447868.9794
        -0.000          -0.000
   6351030.732 8   4940924.38245  24303740.254    24303739.8814   24303755.0504
        -0.000          -0.000
   3033369.733 9   2362811.11348  22234759.736    22234759.7164   22234770.2184
        -0.000          -0.000
  -9966653.98618  -4803811.13154         0.000           0.0005          0.0005
        -0.000          -0.000
 99  5 10 18 18  0.0010000  0  7 10  4 24  5  7  9 30                0.000999963
  -9801626.481 8  -7624098.74145  24192003.790    24192003.2954   24192020.1964
        -0.000          -0.000
   2319519.732 9   1807975.50848  21182463.484    21182463.8354   21182472.9384
        -0.000          -0.000
  -6444965.891 9  -5014084.57149  20554328.088    20554328.1054   20554338.0994
        -0.000          -0.000
  -8856589.316 9  -6882507.74647  21436118.325    21436117.9944   21436128.1404
        -0.000          -0.000
   6417755.153 8   4992917.27345  24316437.439    24316437.1304   24316452.4824
        -0.000          -0.000
   3095986.941 9   2411603.63148  22246675.442    22246675.4574   22246685.9954
        -0.000          -0.000
 -10065776.63317  -4881049.47254         0.000           0.0005          0.0005
        -0.000          -0.000
 99  5 10 18 18 30.0010000  0  7 10  4 24  5  7  9 30                0.000999967
  -9897917.364 8  -7699130.37745  24173680.031    24173679.5104   24173696.3594
        -0.000          -0.000
   2377844.154 9   1853423.06048  21193562.299    21193562.6624   21193571.7564
        -0.000          -0.000
  -6463634.241 9  -5028631.32349  20550775.608    20550775.6044   20550785.5924
        -0.000          -0.000
  -8918051.318 9  -6930400.18747  21424422.507    21424422.1814   21424432.2514
        -0.000          -0.000
   6484490.735 8   5044918.85845  24329136.821    24329136.5194   24329152.0804
        -0.000          -0.000
   3158992.518 9   2460698.77448  22258665.072    22258665.0774   22258675.7104
        -0.000          -0.000
 -10164876.308 7  -4958269.87854  24224025.819    24224025.9274          0.0005
        -0.000          -0.000
 99  5 10 18 19  0.0010000  0  8  8 10  4 24  5  7  9 30             0.000999983
  -1036437.845 8   -806211.40942         0.000           0.0004          0.0004
        -0.000          -0.000
  -9994161.761 8  -7774125.80045  24155365.150    24155364.6194   24155381.4174
        -0.000          -0.000
   2436619.234 9   1899221.77248  21204746.872    21204747.2194   21204756.2954
        -0.000          -0.000
  -6481759.988 9  -5042755.27049  20547326.403    20547326.4124   20547336.3864
        -0.000          -0.000
  -8979233.058 9  -6978074.25047  21412780.047    21412779.6804   21412789.7164
        -0.000          -0.000
   6551246.552 8   5096936.21345  24341840.084    24341839.6954   24341855.4384
        -0.000          -0.000
   3222413.560 9   2510117.65948  22270733.768    22270733.7724   22270744.4834
        -0.000          -0.000
 -10263903.56017  -5035433.80254  24205181.328    24205180.7155          0.0005
        -0.000          -0.000
 99  5 10 18 19 30.0010000  0  7  8 10  4 24  5  7  9                0.000999949
  -1045441.526 8   -813227.23352         0.000           0.0004          0.0005
        -0.000          -0.000
 -10090408.424 8  -7849122.97545  24137049.853    24137049.2194   24137066.1544
        -0.000          -0.000
   2495791.594 9   1945330.05848  21216007.035    21216007.3844   21216016.4374
        -0.000          -0.000
  -6499398.907 9  -5056499.87149  20543969.825    20543969.8464   20543979.8134
        -0.000          -0.000
  -9040145.006 9  -7025538.07347  21401188.846    21401188.5254   21401198.5204
        -0.000          -0.000
   6617967.977 8   5148926.76045  24354536.639    24354536.2764   24354552.2124
        -0.000          -0.000
   3286207.255 9   2559826.91748  22282873.367    22282873.3874   22282884.1834
        -0.000          -0.000
 99  5 10 18 20  0.0010000  0  7  8 10  4 24  5  7  9                0.000999928
  -1053786.91118   -819730.13345         0.000           0.0005   21850445.7244
        -0.000          -0.000
 -10186619.826 8  -7924092.69645  24118741.187    24118740.6044   24118757.4654
        -0.000          -0.000
   2555398.871 9   1991777.23148  21227349.987    21227350.3414   21227359.3534
        -0.000          -0.000
  -6516491.609 9  -5069818.85049  20540717.163    20540717.1874   20540727.1624
        -0.000          -0.000
  -9100716.449 9  -7072736.57947  21389662.427    21389662.0854   21389672.1004
        -0.000          -0.000
   6684701.171 8   5200926.48845  24367235.559    24367235.0354   24367251.4484
        -0.000          -0.000
   3350424.650 9   2609866.33048  22295093.626    22295093.6284   22295104.4844
        -0.000          -0.000
 99  5 10 18 20 30.0010000  0  7  8 10  4 24  5  7  9                0.000999939
  -1061446.022 8   -825698.27845  21848977.469    21848976.8084   21848989.5884
        -0.000          -0.000
 -10282783.200 8  -7999024.98245  24100441.735    24100441.1024   24100457.9964
        -0.000          -0.000
   2615446.387 9   2038567.45648  21238776.703    21238777.0414   21238786.0404
        -0.000          -0.000
  -6533037.241 9  -5082711.53949  20537568.621    20537568.6474   20537578.6214
        -0.000          -0.000
  -9160935.263 9  -7119660.30647  21378203.071    21378202.7484   21378212.7404
        -0.000          -0.000
   6751459.715 8   5252945.95945  24379939.221    24379938.6794   24379955.6834
        -0.000          -0.000
   3415056.092 9   2660228.37948  22307392.637    22307392.6634   22307403.5814
        -0.000          -0.000
 99  5 10 18 21  0.0010000  0  7  8 10  4 24  5  7  9                0.000999935
  -1068509.100 8   -831202.01445  21847633.271    21847632.8784   21847644.7184
        -0.000          -0.000
 -10378969.518 9  -8073975.16845  24082137.954    24082137.3244   24082154.1994
        -0.000          -0.000
   2675844.815 9   2085631.11448  21250270.153    21250270.4844   21250279.4714
        -0.000          -0.000
  -6549121.690 9  -5095244.86949  20534507.824    20534507.8564   20534517.8114
        -0.000          -0.000
  -9220870.396 9  -7166362.98447  21366797.764    21366797.4444   21366807.3714
        -0.000          -0.000
   6818178.031 8   5304934.09845  24392635.509    24392635.8704   24392651.6284
        -0.000          -0.000
   3480008.856 9   2710840.80948  22319752.818    22319752.8374   22319763.7994
        -0.000          -0.000
 99  5 10 18 21 30.0010000  0  7  8 10  4 24  5  7  9                0.000999941
  -1074937.971 9   -836211.54645  21846409.614    21846409.0664   21846421.2994
        -0.000          -0.000
 -10475121.859 9  -8148898.86645  24063840.577    24063839.8714   24063856.8634
        -0.000          -0.000
   2736647.918 9   2133010.10748  21261840.585    21261840.9344   21261849.8824
        -0.000          -0.000
  -6564688.060 9  -5107374.49749  20531545.661    20531545.6774   20531555.6194
        -0.000          -0.000
  -9280487.798 9  -7212818.08547  21355452.954    21355452.6184   21355462.4244
        -0.000          -0.000
   6884911.669 8   5356934.18145  24405334.599    24405334.6694   24405350.9104
        -0.000          -0.000
   3545331.157 9   2761741.19248  22332183.322    22332183.3714   22332194.3524
        -0.000          -0.000
 99  5 10 18 22  0.0010000  0  7  8 10  4 24  5  7  9                0.000999946
  -1080748.995 9   -840739.63745  21845303.856    21845303.5714   21845315.4534
        -0.000          -0.000
 -10571233.441 9  -8223790.80445  24045550.937    24045550.1934   24045567.2714
        -0.000          -0.000
   2797847.256 9   2180697.85648  21273486.461    21273486.8024   21273495.7594
        -0.000          -0.000
  -6579723.577 9  -5119090.47449  20528684.451    20528684.4684   20528694.3944
        -0.000          -0.000
  -9339804.182 9  -7259038.62247  21344165.403    21344165.1024   21344174.8514
        -0.000          -0.000
   6951666.128 8   5408950.47545  24418037.756    24418037.6344   24418054.0334
        -0.000          -0.000
   3611003.102 9   2812914.02748  22344680.381    22344680.4294   22344691.4574
        -0.000          -0.000
 99  5 10 18 22 30.0010000  0  7  8 10  4 24  5  7  9                0.000999929
  -1085993.951 9   -844826.66245  21844305.929    21844305.5714   21844317.3364
        -0.000          -0.000
 -10667306.474 9  -8298652.71946  24027268.731    24027267.9794   24027285.0344
        -0.000          -0.000
   2859423.624 9   2228679.39448  21285204.059    21285204.3904   21285213.4054
        -0.000          -0.000
  -6594263.043 9  -5130419.92449  20525917.659    20525917.6634   20525927.5784
        -0.000          -0.000
  -9398844.428 9  -7305043.99247  21332930.403    21332930.1204   21332939.8344
        -0.000          -0.000
   7018420.863 8   5460966.98445  24430740.923    24430740.7504   24430757.0034
        -0.000          -0.000
   3676996.987 9   2864337.71548  22357238.669    22357238.6964   22357249.7914
        -0.000          -0.000
 99  5 10 18 23  0.0010000  0  7  8 10  4 24  5  7  9                0.000999913
  -1090638.799 9   -848446.06645  21843422.193    21843421.8534   21843433.1724
        -0.000          -0.000
 -10763287.981 9  -8373443.30546  24009003.921    24009003.2134   24009020.1884
        -0.000          -0.000
   2921417.601 9   2276986.34248  21297001.110    21297001.4534   21297010.5094
        -0.000          -0.000
  -6608261.898 9  -5141328.11349  20523253.756    20523253.7674   20523263.6664
        -0.000          -0.000
  -9457563.753 9  -7350799.29347  21321756.455    21321756.1564   21321765.8844
        -0.000          -0.000
   7085213.543 8   5513013.08745  24443451.436    24443451.3504   24443467.3404
        -0.000          -0.000
   3743365.754 9   2916053.52448  22369868.309    22369868.3424   22369879.4884
        -0.000          -0.000
 99  5 10 18 23 30.0010000  0  7  8 10  4 24  5  7  9                0.000999897
  -1094678.948 9   -851594.27446  21842653.532    21842653.2264   21842664.1864
        -0.000          -0.000
 -10859186.522 9  -8448169.24846  23990754.866    23990754.2174   23990770.9894
        -0.000          -0.000
   2983825.627 9   2325615.92548  21308876.958    21308877.2914   21308886.4264
        -0.000          -0.000
  -6621719.893 9  -5151814.85449  20520692.786    20520692.8004   20520702.6914
        -0.000          -0.000
  -9515956.809 9  -7396300.34647  21310644.581    21310644.2684   21310654.0094
        -0.000          -0.000
   7152047.669 8   5565091.46845  24456169.769    24456169.5564   24456185.4614
        -0.000          -0.000
   3810101.719 9   2968055.45648  22382567.790    22382567.8214   22382579.0344
        -0.000          -0.000
 99  5 10 18 24  0.0010000  0  7  8 10  4 24  5  7  9                0.000999882
  -1098122.721 9   -854277.76846  21841998.416    21841998.0694   21842008.7374
        -0.000          -0.000
 -10955028.405 9  -8522851.02646  23972516.673    23972516.0734   23972532.7404
        -0.000          -0.000
   3046617.283 9   2374544.43748  21320825.770    21320826.1194   21320835.3614
        -0.000          -0.000
  -6634655.629 9  -5161894.64349  20518231.189    20518231.2044   20518241.1124
        -0.000          -0.000
  -9574020.911 9  -7441545.07947  21299595.355    21299595.0174   21299604.7884
        -0.000          -0.000
   7218915.381 8   5617196.00745  24468894.498    24468894.3364   24468910.1574
        -0.000          -0.000
   3877197.313 9   3020337.62348  22395335.708    22395335.7314   22395347.0294
        -0.000          -0.000
 99  5 10 18 24 30.0010000  0  7  8 10  4 24  5  7  9                0.000999862
  -1100978.475 9   -856503.06246  21841455.135    21841454.7864   21841465.2184
        -0.000          -0.000
 -11050849.421 9  -8597516.56146  23954282.483    23954281.8864   23954298.3844
        -0.000          -0.000
   3109769.030 9   2423753.53648  21332843.106    21332843.4604   21332852.8244
        -0.000          -0.000
  -6647110.514 9  -5171599.74249  20515861.090    20515861.1054   20515871.0234
        -0.000          -0.000
  -9631794.149 9  -7486563.17947  21288601.448    21288601.1384   21288610.8874
        -0.000          -0.000
   7285788.896 8   5669305.05945  24481620.346    24481620.1664   24481635.7134
        -0.000          -0.000
   3944637.445 9   3072888.25248  22408169.224    22408169.2474   22408180.6034
        -0.000          -0.000
 99  5 10 18 25  0.0010000  0  7  8 10  4 24  5  7  9                0.000999887
  -1103143.060 9   -858189.78946  21841043.324    21841042.9404   21841053.0824
        -0.000          -0.000
 -11146577.538 9  -8672109.69346  23936065.942    23936065.2474   23936081.7484
        -0.000          -0.000
   3173362.696 9   2473306.98648  21344944.596    21344944.9424   21344954.4074
        -0.000          -0.000
  -6658983.484 9  -5180851.40149  20513601.754    20513601.7594   20513611.6604
        -0.000          -0.000
  -9689205.317 9  -7531299.13447  21277676.496    21277676.1614   21277685.9504
        -0.000          -0.000
   7352755.311 8   5721486.50545  24494363.833    24494363.6654   24494379.1224
        -0.000          -0.000
   4012498.112 9   3125766.57748  22421082.703    22421082.7174   22421094.1134
        -0.000          -0.000
 99  5 10 18 25 30.0010000  0  7  8 10  4 24  5  7  9                0.000999913
  -1104675.087 9   -859383.61146  21840751.944    21840751.5524   21840761.4414
        -0.000          -0.000
 -11242291.544 9  -8746691.82146  23917852.064    23917851.3674   23917867.8204
        -0.000          -0.000
   3237333.885 9   2523154.61048  21357117.930    21357118.2754   21357127.8194
        -0.000          -0.000
  -6670333.090 9  -5189695.24249  20511441.991    20511442.0044   20511451.8944
        -0.000          -0.000
  -9746320.175 9  -7575804.19547  21266807.923    21266807.6054   21266817.3794
        -0.000          -0.000
   7419747.992 9   5773688.42145  24507112.332    24507112.1594   24507127.4954
        -0.000          -0.000
   4080717.695 9   3178924.57848  22434064.512    22434064.5104   22434075.9894
        -0.000          -0.000
 99  5 10 18 26  0.0010000  0  7  8 10  4 24  5  7  9                0.000999919
  -1105605.682 9   -860108.78946  21840574.998    21840574.6744   21840584.3044
        -0.000          -0.000
 -11338007.745 9  -8821275.65846  23899637.778    23899637.1364   23899653.3634
        -0.000          -0.000
   3301660.519 9   2573279.19948  21369358.920    21369359.2704   21369368.8574
        -0.000          -0.000
  -6681196.087 9  -5198159.91249  20509374.839    20509374.8454   20509384.7204
        -0.000          -0.000
  -9803171.170 9  -7620103.65747  21255989.578    21255989.2554   21255998.9884
        -0.000          -0.000
   7486719.893 9   5825874.11545  24519856.889    24519856.6364   24519872.0394
        -0.000          -0.000
   4149275.650 9   3232346.24848  22447110.768    22447110.7684   22447122.2814
        -0.000          -0.000
 99  5 10 18 26 30.0010000  0  7  8 10  4 24  5  7  9                0.000999923
  -1105900.425 9   -860338.49646  21840519.040    21840518.7144   21840528.2184
        -0.000          -0.000
 -11433666.964 9  -8895815.08946  23881434.342    23881433.6984   23881449.7594
        -0.000          -0.000
   3366390.532 9   2623718.11248  21381676.734    21381677.0634   21381686.7144
        -0.000          -0.000
  -6691533.462 9  -5206215.00349  20507407.738    20507407.7274   20507417.6104
        -0.000          -0.000
  -9859718.773 9  -7664166.70447  21245228.964    21245228.6344   21245238.3164
        -0.000          -0.000
   7553706.466 9   5878071.24445  24532604.234    24532603.8314   24532619.2124
        -0.000          -0.000
   4218194.624 9   3286049.22847  22460225.699    22460225.6904   22460237.2574
        -0.000          -0.000
 99  5 10 18 27  0.0010000  0  7  8 10  4 24  5  7  9                0.000999929
  -1105551.952 9   -860066.98546  21840585.413    21840585.0384   21840594.5424
        -0.000          -0.000
 -11529239.999 9  -8970287.34946  23863247.260    23863246.6584   23863262.5644
        -0.000          -0.000
   3431538.087 9   2674482.37648  21394073.990    21394074.3104   21394083.9734
        -0.000          -0.000
  -6701321.225 9  -5213841.83048  20505545.176    20505545.1774   20505555.0624
        -0.000          -0.000
  -9915911.375 9  -7707953.12847  21234535.865    21234535.5274   21234545.2284
        -0.000          -0.000
   7620715.495 9   5930285.88245  24545355.781    24545355.4634   24545370.5614
        -0.000          -0.000
   4287484.241 9   3340041.02147  22473411.131    22473411.1314   22473422.7244
        -0.000          -0.000
 99  5 10 18 27 30.0010000  0  7  8 10  4 24  5  7  9                0.000999929
  -1104586.383 9   -859314.63046  21840769.175    21840768.7914   21840778.2394
        -0.000          -0.000
 -11624726.507 9  -9044692.18346  23845076.680    23845076.1384   23845091.9384
        -0.000          -0.000
   3497083.479 9   2725556.64248  21406546.971    21406547.2854   21406556.9394
        -0.000          -0.000
  -6710584.987 9  -5221060.34048  20503782.320    20503782.3074   20503792.2074
        -0.000          -0.000
  -9971730.930 9  -7751448.86847  21223913.774    21223913.4214   21223923.1524
        -0.000          -0.000
   7687723.745 9   5982499.92745  24558107.235    24558106.6074   24558121.6164
        -0.000          -0.000
   4357136.545 9   3394315.43347  22486665.606    22486665.6354   22486677.2044
        -0.000          -0.000
 99  5 10 18 28  0.0010000  0  7  8 10  4 24  5  7  9                0.000999926
  -1103017.873 9   -858092.44346  21841067.600    21841067.2244   21841076.6984
        -0.000          -0.000
 -11720102.724 9  -9119011.08346  23826927.035    23826926.5034   23826942.2054
        -0.000          -0.000
   3563015.612 9   2776932.26248  21419093.554    21419093.8704   21419103.4854
        -0.000          -0.000
  -6719334.373 9  -5227878.04248  20502117.359    20502117.3504   20502127.2314
        -0.000          -0.000
 -10027176.499 9  -7794653.19347  21213362.874    21213362.5254   21213372.2574
        -0.000          -0.000
   7754740.570 9   6034720.65645  24570860.258    24570859.4164   24570874.2934
        -0.000          -0.000
   4427129.618 9   3448855.37447  22499985.003    22499984.9944   22499996.5384
        -0.000          -0.000
 99  5 10 18 28 30.0010000  0  7  8 10  4 24  5  7  9                0.000999908
  -1100864.668 9   -856414.66646  21841477.363    21841477.0104   21841486.5214
        -0.000          -0.000
 -11815391.566 9  -9193261.90546  23808794.046    23808793.4964   23808809.0804
        -0.000          -0.000
   3629307.825 9   2828588.46448  21431708.674    21431709.0064   21431718.5574
        -0.000          -0.000
  -6727585.628 9  -5234307.58648  20500547.162    20500547.1674   20500557.0284
        -0.000          -0.000
 -10082278.558 9  -7837589.84547  21202877.328    21202876.9834   21202886.6714
        -0.000          -0.000
   7821754.702 9   6086939.29945  24583612.721    24583612.0094   24583625.5564
        -0.000          -0.000
   4497432.599 9   3503636.80647  22513363.366    22513363.3634   22513374.8934
        -0.000          -0.000
 99  5 10 18 29  0.0010000  0  7  8 10  4 24  5  7  9                0.000999862
  -1098144.307 9   -854294.94346  21841995.069    21841994.6924   21842004.1644
        -0.000          -0.000
 -11910607.425 9  -9267455.85546  23790674.984    23790674.3394   23790689.9014
        -0.000          -0.000
   3695941.251 9   2880510.55348  21444388.723    21444389.0384   21444398.5584
        -0.000          -0.000
  -6735346.036 9  -5240354.64648  20499070.429    20499070.4194   20499080.2824
        -0.000          -0.000
 -10137043.301 9  -7880263.64747  21192455.972    21192455.6284   21192465.3234
        -0.000          -0.000
   7888756.482 8   6139148.32845  24596362.779    24596361.6034   24596376.2154
        -0.000          -0.000
   4568033.520 9   3558650.39847  22526798.334    22526798.3124   22526809.8494
        -0.000          -0.000
 99  5 10 18 29 30.0010000  0  7  8 10  4 24  5  7  9                0.000999874
  -1094736.262 9   -851639.36446  21842643.577    21842643.2234   21842652.6614
        -0.000          -0.000
 -12005635.709 9  -9341503.65446  23772591.584    23772590.8684   23772606.4114
        -0.000          -0.000
   3763027.899 9   2932785.78848  21457154.989    21457155.3104   21457164.7654
        -0.000          -0.000
  -6742496.673 9  -5245926.56949  20497709.734    20497709.7314   20497719.5834
        -0.000          -0.000
 -10191377.268 9  -7922601.78747  21182116.563    21182116.2264   21182125.8954
        -0.000          -0.000
   7955892.646 8   6191462.03745  24609138.454    24609137.2584   24609152.2784
        -0.000          -0.000
   4639042.982 9   3613982.33147  22540310.984    22540310.9874   22540322.5764
        -0.000          -0.000
 99  5 10 18 30  0.0010000  0  7  8 10  4 24  5  7  9                0.000999843
  -1090805.207 9   -848576.24846  21843391.582    21843391.2154   21843400.8014
        -0.000          -0.000
 -12100664.490 9  -9415551.84546  23754508.058    23754507.3574   23754522.7774
        -0.000          -0.000
   3830397.811 9   2985281.75748  21469975.192    21469975.5054   21469984.8954
        -0.000          -0.000
  -6749215.709 9  -5251162.16749  20496431.174    20496431.1464   20496440.9774
        -0.000          -0.000
 -10245481.389 9  -7964760.82547  21171820.869    21171820.5344   21171830.1604
        -0.000          -0.000
   8023006.296 8   6243758.14045  24621909.799    24621908.5684   24621923.6094
        -0.000          -0.000
   4710279.565 9   3669491.24647  22553866.946    22553866.9434   22553878.5654
        -0.000          -0.000
 99  5 10 18 30 30.0010000  0  7  8 10  4 24  5  7  9                0.000999847
  -1086211.477 9   -844996.74546  21844265.775    21844265.4194   21844275.0254
        -0.000          -0.000
 -12195578.939 9  -9489510.93446  23736446.241    23736445.5914   23736460.8804
        -0.000          -0.000
   3898188.866 9   3038105.88548  21482875.491    21482875.8144   21482885.1334
        -0.000          -0.000
  -6755366.164 9  -5255954.72149  20495260.761    20495260.7364   20495270.5644
        -0.000          -0.000
 -10299226.023 9  -8006639.74547  21161593.543    21161593.2144   21161602.8284
        -0.000          -0.000
   8090214.260 8   6296127.74545  24634699.238    24634698.2124   24634713.4794
        -0.000          -0.000
   4781889.173 9   3725290.83647  22567493.935    22567493.8794   22567505.5574
        -0.000          -0.000
 99  5 10 18 31  0.0010000  0  7  8 10  4 24  5  7  9                0.000999871
  -1080979.879 9   -840920.22346  21845261.311    21845260.9514   21845270.5684
        -0.000          -0.000
 -12290405.518 9  -9563401.55746  23718401.124    23718400.4144   23718415.8214
        -0.000          -0.000
   3966360.002 9   3091226.18448  21495848.100    21495848.4144   21495857.6674
        -0.000          -0.000
  -6760968.304 9  -5260320.01949  20494194.692    20494194.6744   20494204.4924
        -0.000          -0.000
 -10352631.714 9  -8048254.55047  21151430.687    21151430.3604   21151440.0094
        -0.000          -0.000
   8157494.032 9   6348553.34945  24647502.403    24647501.5294   24647516.4524
        -0.000          -0.000
   4853843.891 9   3781359.32347  22581186.516    22581186.4804   22581198.1724
        -0.000          -0.000
 99  5 10 18 31 30.0010000  0  7  8 10  4 24  5  7  9                0.000999912
  -1075116.696 9   -836351.53546  21846376.973    21846376.6384   21846386.3694
        -0.000          -0.000
 -12385157.808 9  -9637234.30346  23700370.107    23700369.4164   23700384.8134
        -0.000          -0.000
   4034899.297 9   3144633.36348  21508890.780    21508891.1044   21508900.3074
        -0.000          -0.000
  -6766050.438 9  -5264280.11649  20493227.568    20493227.5744   20493237.3594
        -0.000          -0.000
 -10405728.400 9  -8089628.56847  21141326.685    21141326.3644   21141336.0844
        -0.000          -0.000
   8224826.832 9   6401020.27445  24660315.681    24660315.0084   24660329.5784
        -0.000          -0.000
   4926129.163 9   3837685.39947  22594942.001    22594942.0074   22594953.7014
        -0.000          -0.000
 99  5 10 18 32  0.0010000  0  7  8 10  4 24  5  7  9                0.000999938
  -1068653.228 9   -831315.10546  21847606.945    21847606.5964   21847616.5074
        -0.000          -0.000
 -12479854.741 9  -9711023.92246  23682349.671    23682349.0014   23682364.4424
        -0.000          -0.000
   4103784.380 9   3198309.98348  21521999.272    21521999.5894   21522008.7754
        -0.000          -0.000
  -6770644.771 9  -5267860.11549  20492353.332    20492353.3394   20492363.1194
        -0.000          -0.000
 -10458536.411 9  -8130777.65247  21131277.613    21131277.2814   21131287.0444
        -0.000          -0.000
   8292145.460 9   6453476.14345  24673126.182    24673125.6304   24673140.2684
        -0.000          -0.000
   4998720.541 9   3894249.98547  22608755.800    22608755.8044   22608767.5154
        -0.000          -0.000
 99  5 10 18 32 30.0010000  0  7  8 10  4 24  5  7  9                0.000999950
  -1061564.301 9   -825791.30846  21848955.930    21848955.5724   21848965.6004
        -0.000          -0.000
 -12574451.052 9  -9784735.12946  23664348.375    23664347.6844   23664363.1844
        -0.000          -0.000
   4173039.322 9   3252274.81848  21535178.141    21535178.4464   21535187.6184
        -0.000          -0.000
  -6774706.452 9  -5271025.05049  20491580.465    20491580.4544   20491590.2364
        -0.000          -0.000
 -10511002.254 9  -8171660.09147  21121293.633    21121293.3434   21121303.1714
        -0.000          -0.000
   8359460.065 9   6505928.88445  24685935.907    24685935.4424   24685950.2364
        -0.000          -0.000
   5071645.974 9   3951074.88947  22622633.160    22622633.1774   22622644.8824
        -0.000          -0.000
 99  5 10 18 33  0.0010000  0  7  8 10  4 24  5  7  9                0.000999950
  -1053866.073 9   -819792.73646  21850420.786    21850420.4684   21850430.6394
        -0.000          -0.000
 -12668943.473 9  -9858365.39846  23646366.900    23646366.2124   23646381.7524
        -0.000          -0.000
   4242646.879 9   3306514.41148  21548424.070    21548424.3664   21548433.5514
        -0.000          -0.000
  -6778259.004 9  -5273793.26349  20490904.441    20490904.4224   20490914.1834
        -0.000          -0.000
 -10563119.658 9  -8212271.02747  21111376.013    21111375.7094   21111385.5334
        -0.000          -0.000
   8426767.486 9   6558376.04945  24698744.275    24698743.9054   24698758.7484
        -0.000          -0.000
   5144884.695 9   4008143.91347  22636570.154    22636570.1694   22636581.8984
        -0.000          -0.000
 99  5 10 18 33 30.0010000  0  7  8 10  4 24  5  7  9                0.001000010
  -1045459.811 9   -813242.44646  21852020.394    21852020.0814   21852030.3864
        -0.000          -0.000
 -12763212.854 9  -9931821.87046  23628427.792    23628427.1814   23628442.6234
        -0.000          -0.000
   4312729.629 9   3361124.28348  21561760.387    21561760.6834   21561769.9294
        -0.000          -0.000
  -6781210.595 9  -5276093.20049  20490342.761    20490342.7514   20490352.5114
        -0.000          -0.000
 -10614758.810 9  -8252509.30048  21101549.386    21101549.0824   21101558.9174
        -0.000          -0.000
   8494172.745 9   6610899.44045  24711571.304    24711570.7854   24711586.1014
        -0.000          -0.000
   5218550.862 9   4065546.00547  22650588.441    22650588.4444   22650600.2204
        -0.000          -0.000
 99  5 10 18 34  0.0010000  0  7  8 10  4 24  5  7  9                0.001000045
  -1036473.456 9   -806240.13046  21853730.414    21853730.0974   21853740.5884
        -0.000          -0.000
 -12857368.172 9 -10005189.45946  23610510.367    23610509.7454   23610525.3054
        -0.000          -0.000
   4383163.145 9   3416007.48248  21575163.464    21575163.7654   21575173.0804
        -0.000          -0.000
  -6783671.068 9  -5278010.44549  20489874.564    20489874.5554   20489884.3084
        -0.000          -0.000
 -10666020.353 9  -8292453.33648  21091794.629    21091794.3154   21091804.1364
        -0.000          -0.000
   8561556.074 8   6663405.75845  24724394.069    24724393.6384   24724408.9974
        -0.000          -0.000
   5292526.662 9   4123189.36847  22664665.670    22664665.6784   22664677.4734
        -0.000          -0.000
 99  5 10 18 34 30.0010000  0  7  8 10  4 24  5  7  9                0.001000037
  -1026965.472 9   -798831.36346  21855539.706    21855539.3754   21855550.0784
        -0.000          -0.000
 -12951443.387 9 -10078494.62846  23592608.144    23592607.5184   23592623.1094
        -0.000          -0.000
   4453876.086 9   3471108.42048  21588619.692    21588619.9794   21588629.4194
        -0.000          -0.000
  -6785702.748 9  -5279593.56348  20489487.972    20489487.9434   20489497.6954
        -0.000          -0.000
 -10716948.811 9  -8332137.82748  21082103.245    21082102.9144   21082112.7254
        -0.000          -0.000
   8628889.447 8   6715873.13845  24737207.359    24737206.8864   24737222.4834
        -0.000          -0.000
   5366749.453 9   4181025.19547  22678789.924    22678789.9204   22678801.6974
        -0.000          -0.000
 99  5 10 18 35  0.0010000  0  7  8 10  4 24  5  7  9                0.000999987
  -1016963.059 9   -791037.31947  21857443.062    21857442.7374   21857453.6454
        -0.000          -0.000
 -13045457.925 9 -10151752.50846  23574717.490    23574716.8844   23574732.5884
        -0.000          -0.000
   4524832.668 9   3526399.20048  21602122.284    21602122.6024   21602132.1534
        -0.000          -0.000
  -6787353.008 9  -5280879.48048  20489173.900    20489173.8904   20489183.6364
        -0.000          -0.000
 -10767584.249 9  -8371593.99848  21072467.633    21072467.3244   21072477.1234
        -0.000          -0.000
   8696165.882 8   6768296.19045  24750009.810    24750009.5154   24750024.9854
        -0.000          -0.000
   5441182.140 9   4239024.56547  22692954.097    22692954.1154   22692965.9254
        -0.000          -0.000
 99  5 10 18 35 30.0010000  0  7  8 10  4 24  5  7  9                0.000999975
  -1006329.091 9   -782751.15047  21859466.656    21859466.3264   21859477.3674
        -0.000          -0.000
 -13139279.259 9 -10224859.84846  23556863.647    23556863.0344   23556878.8054
        -0.000          -0.000
   4596159.156 9   3581978.22048  21615695.247    21615695.5454   21615705.2324
        -0.000          -0.000
  -6788481.735 9  -5281759.00148  20488959.115    20488959.0994   20488968.8744
        -0.000          -0.000
 -10817804.977 9  -8410727.00848  21062910.972    21062910.6404   21062920.4414
        -0.000          -0.000
   8763520.280 8   6820779.94845  24762827.038    24762826.7224   24762842.4304
        -0.000          -0.000
   5515940.509 9   4297277.72647  22707180.308    22707180.3064   22707192.1334
        -0.000          -0.000
 99  5 10 18 36  0.0010000  0  7  8 10  4 24  5  7  9                0.000999980
   -995082.313 9   -773987.49147  21861606.887    21861606.5154   21861617.6774
        -0.000          -0.000
 -13232939.635 9 -10297841.75746  23539040.404    23539039.7534   23539055.6414
        -0.000          -0.000
   4667813.064 9   3637812.36648  21629330.494    21629330.8264   21629340.6304
        -0.000          -0.000
  -6789106.605 9  -5282245.91248  20488840.173    20488840.1714   20488849.9384
        -0.000          -0.000
 -10867648.603 9  -8449566.18148  21053426.028    21053425.7074   21053435.4964
        -0.000          -0.000
   8830923.904 8   6873302.07245  24775653.649    24775653.2414   24775669.0644
        -0.000          -0.000
   5590985.650 9   4355754.32347  22721461.008    22721461.0004   22721472.8674
        -0.000          -0.000
 99  5 10 18 36 30.0010000  0  7  8 10  4 24  5  7  9                0.000999992
   -983235.523 9   -764756.27747  21863861.298    21863860.9044   21863872.1904
        -0.000          -0.000
 -13326479.741 9 -10370729.95246  23521240.097    23521239.4454   23521255.3804
        -0.000          -0.000
   4739755.206 9   3693871.11748  21643020.617    21643020.9184   21643030.8834
        -0.000          -0.000
  -6789257.355 9  -5282363.37848  20488811.506    20488811.4914   20488821.2764
        -0.000          -0.000
 -10917143.399 9  -8488133.53348  21044007.490    21044007.1674   21044016.9424
        -0.000          -0.000
   8898355.769 8   6925846.22445  24788485.738    24788485.4194   24788501.2394
        -0.000          -0.000
   5666274.896 9   4414421.14347  22735788.155    22735788.1614   22735800.0524
        -0.000          -0.000
 99  5 10 18 37  0.0010000  0  7  8 10  4 24  5  7  9                0.000999990
   -970806.365 9   -755071.27047  21866226.572    21866226.1974   21866237.5274
        -0.000          -0.000
 -13419958.071 9 -10443570.01546  23503451.541    23503450.9404   23503466.8994
        -0.000          -0.000
   4811967.059 9   3750140.02448  21656762.074    21656762.3854   21656772.4504
        -0.000          -0.000
  -6788954.361 9  -5282127.27848  20488869.138    20488869.1514   20488878.9484
        -0.000          -0.000
 -10966314.768 9  -8526448.86648  21034650.520    21034650.1954   21034659.9314
        -0.000          -0.000
   8965777.220 8   6978382.25345  24801315.829    24801315.3964   24801331.4104
        -0.000          -0.000
   5741782.696 9   4473258.24947  22750156.930    22750156.9444   22750168.8494
        -0.000          -0.000
 99  5 10 18 37 30.0010000  0  7  8 10  4 24  5  7  9                0.000999927
   -957854.627 9   -744979.06547  21868691.305    21868690.9204   21868702.2504
        -0.000          -0.000
 -13513430.757 9 -10516405.66946  23485664.035    23485663.4544   23485679.5014
        -0.000          -0.000
   4884400.328 9   3806581.46548  21670545.663    21670545.9734   21670556.1294
        -0.000          -0.000
  -6788243.428 9  -5281573.30448  20489004.448    20489004.4474   20489014.2684
        -0.000          -0.000
 -11015203.948 9  -8564544.31448  21025347.222    21025346.8754   21025356.5684
        -0.000          -0.000
   9033120.727 8   7030857.54445  24814130.973    24814130.5444   24814146.7864
        -0.000          -0.000
   5817464.514 9   4532230.95947  22764558.839    22764558.8034   22764570.6964
        -0.000          -0.000
 99  5 10 18 38  0.0010000  0  7  8 10  4 24  5  7  9                0.000999858
   -944293.674 9   -734412.13647  21871271.857    21871271.5044   21871282.8654
        -0.000          -0.000
 -13606808.165 9 -10589167.07646  23467894.692    23467894.1454   23467910.2164
        -0.000          -0.000
   4957139.321 9   3863261.13348  21684387.453    21684387.7414   21684397.9494
        -0.000          -0.000
  -6787036.323 9  -5280632.70048  20489234.130    20489234.1284   20489243.9644
        -0.000          -0.000
 -11063717.427 9  -8602347.00648  21016115.425    21016115.0964   21016124.7094
        -0.000          -0.000
   9100466.248 8   7083334.41845  24826946.504    24826946.0234   24826962.4244
        -0.000          -0.000
   5893429.064 9   4591423.96347  22779014.550    22779014.4864   22779026.3184
        -0.000          -0.000
 99  5 10 18 38 30.0010000  0  7  8 10  4 24  5  7  9                0.000999882
   -929964.828 9   -723246.84647  21873998.599    21873998.2364   21874009.6674
        -0.000          -0.000
 -13699907.578 9 -10661711.86746  23450178.251    23450177.7104   23450193.8724
        -0.000          -0.000
   5030366.304 9   3920321.04948  21698322.109    21698322.4144   21698332.6474
        -0.000          -0.000
  -6785153.799 9  -5279165.79648  20489592.399    20489592.3904   20489602.2464
        -0.000          -0.000
 -11111675.984 9  -8639717.29548  21006989.229    21006988.8944   21006998.4524
        -0.000          -0.000
   9167981.374 8   7135943.44345  24839794.313    24839793.8484   24839810.3224
        -0.000          -0.000
   5969845.561 9   4650969.13547  22793556.277    22793556.2294   22793568.0554
        -0.000          -0.000
 99  5 10 18 39  0.0010000  0  7  8 10  4 24  5  7  9                0.000999922
   -914993.570 9   -711580.99247  21876847.633    21876847.2534   21876858.6964
        -0.000          -0.000
 -13792822.243 9 -10734112.69546  23432497.060    23432496.4614   23432512.6444
        -0.000          -0.000
   5103992.511 9   3977692.05048  21712332.745    21712333.0654   21712343.2794
        -0.000          -0.000
  -6782700.268 9  -5277253.95048  20490059.251    20490059.2574   20490069.1134
        -0.000          -0.000
 -11159186.632 9  -8676738.55748  20997948.288    20997947.9634   20997957.4844
        -0.000          -0.000
   9235556.450 8   7188599.17545  24852653.497    24852653.0864   24852669.7144
        -0.000          -0.000
   6046620.419 9   4710793.54347  22808166.199    22808166.1554   22808177.9354
        -0.000          -0.000
 99  5 10 18 39 30.0010000  0  6  8 10  4 24  5  9                   0.000999923
   -899441.816 9   -699462.80047  21879807.088    21879806.6854   21879818.0944
        -0.000          -0.000
 -13885582.227 9 -10806392.98646  23414845.300    23414844.6614   23414860.9544
        -0.000          -0.000
   5177960.359 9   4035329.26848  21726408.442    21726408.7504   21726418.9214
        -0.000          -0.000
  -6779717.893 9  -5274930.01748  20490626.796    20490626.7844   20490636.6674
        -0.000          -0.000
 -11206303.993 9  -8713453.36148  20988982.107    20988981.7804   20988991.3204
        -0.000          -0.000
   6123704.031 9   4770858.53847  22822834.896    22822834.8404   22822846.6044
        -0.000          -0.000
 99  5 10 18 40  0.0010000  0  6  8 10  4 24  5  9                   0.000999911
   -883269.114 9   -686860.74047  21882884.662    21882884.3144   21882895.6924
        -0.000          -0.000
 -13978137.503 9 -10878513.77546  23397232.511    23397231.8444   23397248.1384
        -0.000          -0.000
   5252304.759 9   4093259.90748  21740555.759    21740556.0564   21740566.1374
        -0.000          -0.000
  -6776158.071 9  -5272156.12148  20491304.197    20491304.1854   20491314.0694
        -0.000          -0.000
 -11252990.272 9  -8749832.25148  20980097.994    20980097.6714   20980107.2014
        -0.000          -0.000
   6201134.179 9   4831193.56047  22837569.489    22837569.4604   22837581.1754
        -0.000          -0.000
 99  5 10 18 40 30.0010000  0  6  8 10  4 24  5  9                   0.000999862
   -866534.014 9   -673820.45947  21886069.296    21886068.9204   21886080.2914
        -0.000          -0.000
 -14070529.072 9 -10950506.99946  23379650.901    23379650.2254   23379666.3974
        -0.000          -0.000
   5326976.789 9   4151445.83748  21754765.452    21754765.7694   21754775.7534
        -0.000          -0.000
  -6772072.421 9  -5268972.48748  20492081.681    20492081.6774   20492091.5744
        -0.000          -0.000
 -11299303.121 9  -8785920.16048  20971284.944    20971284.6124   20971294.1374
        -0.000          -0.000
   6278838.898 9   4891742.53447  22852356.350    22852356.3234   22852368.0624
        -0.000          -0.000
 99  5 10 18 41  0.0010000  0  6  8 10  4 24  5  9                   0.000999834
   -849164.958 9   -660286.19147  21889374.578    21889374.2024   21889385.5634
        -0.000          -0.000
 -14162690.547 9 -11022320.94346  23362113.172    23362112.4964   23362128.5354
        -0.000          -0.000
   5402025.777 9   4209925.50048  21769046.903    21769047.2224   21769057.0814
        -0.000          -0.000
  -6767416.423 9  -5265344.42948  20492967.698    20492967.6944   20492977.5874
        -0.000          -0.000
 -11345189.784 9  -8821675.97648  20962553.001    20962552.6574   20962562.1894
        -0.000          -0.000
   6356878.681 9   4952552.59447  22867206.975    22867206.9524   22867218.6834
        -0.000          -0.000
 99  5 10 18 41 30.0010000  0  6  8 10  4 24  5  9                   0.000999832
   -831156.550 9   -646253.72047  21892801.553    21892801.1794   21892812.5704
        -0.000          -0.000
 -14254612.044 9 -11093947.88946  23344621.091    23344620.4454   23344636.3264
        -0.000          -0.000
   5477427.753 9   4268680.21748  21783395.541    21783395.8484   21783405.6084
        -0.000          -0.000
  -6762202.772 9  -5261281.83848  20493959.823    20493959.8174   20493969.6854
        -0.000          -0.000
 -11390661.538 9  -8857108.48848  20953899.967    20953899.6374   20953909.1554
        -0.000          -0.000
   6435230.809 9   5013606.03747  22882117.033    22882116.9994   22882128.7254
        -0.000          -0.000
 99  5 10 18 42  0.0010000  0  7  6  8 10  4 24  5  9                0.001000166
  -4881118.911 8  -3625507.90845  25169727.327    25169727.4314   25169744.2024
        -0.000          -0.000
   -812657.493 9   -631838.92947  21896321.821    21896321.4624   21896332.8474
        -0.000          -0.000
 -14346446.726 9 -11165507.18746  23327145.549    23327144.9244   23327160.6514
        -0.000          -0.000
   5553036.055 9   4327595.71448  21797783.434    21797783.7384   21797793.4254
        -0.000          -0.000
  -6756604.622 9  -5256919.63348  20495025.120    20495025.1094   20495034.9854
        -0.000          -0.000
 -11435874.084 9  -8892339.02248  20945296.321    20945295.9834   20945305.4804
        -0.000          -0.000
   6513726.540 9   5074771.38647  22897054.391    22897054.3594   22897066.0994
        -0.000          -0.000
 99  5 10 18 42 30.0010000  0  7  6  8 10  4 24  5  9                0.001000199
  -4950800.162 9  -3679804.81445  25156467.305    25156467.3104   25156484.0914
        -0.000          -0.000
   -793590.628 9   -616981.68947  21899950.146    21899949.8004   21899961.2094
        -0.000          -0.000
 -14438126.619 9 -11236945.87446  23309699.430    23309698.7714   23309714.3704
        -0.000          -0.000
   5628931.016 9   4386734.57648  21812225.858    21812226.1804   21812235.7894
        -0.000          -0.000
  -6750568.499 9  -5252216.15448  20496173.734    20496173.7144   20496183.5994
        -0.000          -0.000
 -11480754.440 9  -8927310.70348  20936755.851    20936755.5164   20936765.0024
        -0.000          -0.000
   6592427.433 9   5136096.59647  22912030.799    22912030.7514   22912042.5394
        -0.000          -0.000
 99  5 10 18 43  0.0010000  0  7  6  8 10  4 24  5  9                0.001000177
  -5020573.126 9  -3734173.27045  25143189.869    25143189.9824   25143206.3764
        -0.000          -0.000
   -774027.336 9   -601737.61347  21903673.003    21903672.6534   21903684.0464
        -0.000          -0.000
 -14529741.114 9 -11308333.60047  23292265.763    23292265.1404   23292280.5074
        -0.000          -0.000
   5705028.788 9   4446031.47848  21826706.890    21826707.2054   21826716.7474
        -0.000          -0.000
  -6744188.347 9  -5247244.60048  20497387.802    20497387.7844   20497397.6804
        -0.000          -0.000
 -11525366.616 9  -8962073.41348  20928266.407    20928266.0634   20928275.5554
        -0.000          -0.000
   6671265.799 9   5197528.94447  22927033.388    22927033.3554   22927045.1254
        -0.000          -0.000
 99  5 10 18 43 30.0010000  0  7  6  8 10  4 24  5  9                0.001000193
  -5090282.356 9  -3788491.97945  25129924.499    25129924.5174   25129940.9324
        -0.000          -0.000
   -753827.182 9   -585997.28847  21907517.015    21907516.6724   21907528.0494
        -0.000          -0.000
 -14621148.878 9 -11379560.24147  23274871.441    23274870.7934   23274886.0004
        -0.000          -0.000
   5781468.615 9   4505594.91248  21841253.020    21841253.3354   21841262.8914
        -0.000          -0.000
  -6737317.786 9  -5241890.91448  20498695.192    20498695.1894   20498705.1024
        -0.000          -0.000
 -11569556.602 9  -8996507.15248  20919857.274    20919856.9444   20919866.4564
        -0.000          -0.000
   6750384.634 9   5259179.82147  22942089.295    22942089.2924   22942101.0374
        -0.000          -0.000
 99  5 10 18 44  0.0010000  0  7  6  8 10  4 24  5  9                0.001000204
  -5159980.714 9  -3842802.22345  25116661.260    25116661.2374   25116677.7184
        -0.000          -0.000
   -733051.372 9   -569808.39647  21911470.556    21911470.2354   21911481.6264
        -0.000          -0.000
 -14712414.686 9 -11450676.27247  23257504.135    23257503.4754   23257518.4784
        -0.000          -0.000
   5858201.382 9   4565386.61248  21855854.848    21855855.1864   21855864.7234
        -0.000          -0.000
  -6730000.292 9  -5236188.96848  20500087.630    20500087.6454   20500097.5644
        -0.000          -0.000
 -11613363.640 9  -9030642.48348  20911521.007    20911520.6864   20911530.2344
        -0.000          -0.000
   6829735.473 9   5321011.48847  22957189.314    22957189.3194   22957201.1284
        -0.000          -0.000
 99  5 10 18 44 30.0010000  0  7  6  8 10  4 24  5  9                0.001000201
  -5229662.391 9  -3897099.48445  25103401.169    25103401.1474   25103417.3684
        -0.000          -0.000
   -711683.845 9   -553158.43647  21915536.711    21915536.3804   21915547.8254
        -0.000          -0.000
 -14803522.453 9 -11521669.16147  23240166.948    23240166.2974   23240181.0924
        -0.000          -0.000
   5935215.359 9   4625397.42548  21870510.217    21870510.5414   21870520.1184
        -0.000          -0.000
  -6722209.560 9  -5230118.27548  20501570.190    20501570.1984   20501580.1164
        -0.000          -0.000
 -11656761.999 9  -9064459.37248  20903262.527    20903262.1934   20903271.7834
        -0.000          -0.000
   6909336.497 9   5383038.09247  22972336.987    22972336.9514   22972348.8574
        -0.000          -0.000
 99  5 10 18 45  0.0010000  0  7  6  8 10  4 24  5  9                0.001000183
  -5299312.280 9  -3951371.95645  25090147.171    25090147.1434   25090163.2944
        -0.000          -0.000
   -689700.701 9   -536028.76347  21919720.006    21919719.6544   21919731.1324
        -0.000          -0.000
 -14894434.991 9 -11592509.92947  23222866.800    23222866.1344   23222880.7474
        -0.000          -0.000
   6012522.354 9   4685636.57948  21885221.326    21885221.6564   21885231.2464
        -0.000          -0.000
  -6713894.795 9  -5223639.23448  20503152.430    20503152.4234   20503162.3454
        -0.000          -0.000
 -11699717.348 9  -9097931.04548  20895088.326    20895088.0024   20895097.6194
        -0.000          -0.000
   6989217.275 9   5445282.70747  22987537.913    22987537.8794   22987549.8354
        -0.000          -0.000
 99  5 10 18 45 30.0010000  0  7  6  8 10  4 24  5  9                0.001000100
  -5369015.832 9  -4005686.26045  25076882.945    25076882.5964   25076899.1204
        -0.000          -0.000
   -667203.846 9   -518498.80447  21924001.066    21924000.7304   21924012.1994
        -0.000          -0.000
 -14985226.104 9 -11663256.08747  23205589.786    23205589.1154   23205603.5744
        -0.000          -0.000
   6090037.537 9   4746037.94748  21899972.027    21899972.3544   21899982.0134
        -0.000          -0.000
  -6705122.865 9  -5216803.96948  20504821.671    20504821.6574   20504831.5864
        -0.000          -0.000
 -11742324.567 9  -9131131.46148  20886980.460    20886980.1254   20886989.7314
        -0.000          -0.000
   7069267.153 9   5507659.08447  23002771.010    23002770.9824   23002782.9744
        -0.000          -0.000
 99  5 10 18 46  0.0010000  0  7  6  8 10  4 24  5  9                0.001000064
  -5438595.411 9  -4059903.91545  25063642.254    25063642.0824   25063658.3524
        -0.000          -0.000
   -644019.766 9   -500433.33847  21928412.906    21928412.5664   21928424.0234
        -0.000          -0.000
 -15075720.052 9 -11733770.69147  23188369.285    23188368.6274   23188382.9154
        -0.000          -0.000
   6167942.242 9   4806742.83748  21914796.886    21914797.2114   21914806.9434
        -0.000          -0.000
  -6695716.325 9  -5209474.20448  20506611.701    20506611.7184   20506621.6184
        -0.000          -0.000
 -11784402.358 9  -9163919.33648  20878973.327    20878972.9884   20878982.5504
        -0.000          -0.000
   7149660.248 9   5570302.90047  23018069.406    23018069.3524   23018081.4574
        -0.000          -0.000
 99  5 10 18 46 30.0010000  0  7  6  8 10  4 24  5  9                0.001000073
  -5508065.773 9  -4114036.52645  25050422.375    25050422.5034   25050438.3154
        -0.000          -0.000
   -620172.502 9   -481851.11147  21932950.983    21932950.6144   21932962.1004
        -0.000          -0.000
 -15165934.212 9 -11804067.28647  23171202.016    23171201.3714   23171215.4544
        -0.000          -0.000
   6246210.400 9   4867730.93948  21929690.868    21929691.1914   21929701.0094
        -0.000          -0.000
  -6685720.736 9  -5201685.43548  20508513.832    20508513.8314   20508523.7594
        -0.000          -0.000
 -11825977.345 9  -9196315.41348  20871061.877    20871061.5354   20871071.0764
        -0.000          -0.000
   7230369.562 9   5633193.12347  23033427.947    23033427.9004   23033440.1304
        -0.000          -0.000
 99  5 10 18 47  0.0010000  0  7  6  8 10  4 24  5  9                0.001000037
  -5577587.716 9  -4168209.31345  25037192.622    25037192.6124   25037208.6404
        -0.000          -0.000
   -595850.657 9   -462899.07447  21937579.322    21937578.9504   21937590.4464
        -0.000          -0.000
 -15256034.653 9 -11874275.25647  23154056.382    23154055.7314   23154069.6724
        -0.000          -0.000
   6324677.016 9   4928873.67748  21944622.655    21944622.9634   21944632.8704
        -0.000          -0.000
  -6675322.967 9  -5193583.28448  20510492.500    20510492.5014   20510502.4364
        -0.000          -0.000
 -11867239.120 9  -9228467.43348  20863209.983    20863209.6314   20863219.1614
        -0.000          -0.000
   7311222.756 9   5696195.46847  23048813.876    23048813.8384   23048826.1484
        -0.000          -0.000
 99  5 10 18 47 30.0010000  0  7  6  8 10  4 24  5  9                0.001000077
  -5646986.269 8  -4222285.95745  25023986.393    25023986.4844   25024002.3994
        -0.000          -0.000
   -570889.691 9   -443449.02947  21942329.285    21942328.9024   21942340.4164
        -0.000          -0.000
 -15345850.223 9 -11944261.25747  23136964.951    23136964.2734   23136978.1194
        -0.000          -0.000
   6403519.627 9   4990309.40048  21959625.969    21959626.2674   21959636.2684
        -0.000          -0.000
  -6664379.741 9  -5185056.09948  20512574.944    20512574.9404   20512584.8684
        -0.000          -0.000
 -11908018.979 9  -9260243.93248  20855449.822    20855449.4734   20855458.9994
        -0.000          -0.000
   7392397.928 9   5759448.68547  23064261.106    23064261.0444   23064273.4744
        -0.000          -0.000
 99  5 10 18 48  0.0010000  0  7  6  8 10  4 24  5  9                0.001000128
  -5716367.441 8  -4276349.04945  25010783.448    25010783.4754   25010799.3894
        -0.000          -0.000
   -545392.816 9   -423581.38947  21947181.268    21947180.9034   21947192.3884
        -0.000          -0.000
 -15435478.670 9 -12014101.45347  23119909.066    23119908.3914   23119922.1844
        -0.000          -0.000
   6482624.599 9   5051949.55948  21974679.162    21974679.4664   21974689.5304
        -0.000          -0.000
  -6653016.990 9  -5176202.01448  20514737.193    20514737.1834   20514747.1334
        -0.000          -0.000
 -11948416.764 9  -9291722.71548  20847762.361    20847762.0254   20847771.5174
        -0.000          -0.000
   7473807.521 9   5822884.57847  23079752.888    23079752.7994   23079765.3424
        -0.000          -0.000
 99  5 10 18 48 30.0010000  0  7  6  8 10  4 24  5  9                0.001000195
  -5785732.685 8  -4330399.77245  24997583.537    24997583.8144   24997599.7414
        -0.000          -0.000
   -519360.900 9   -403296.84047  21952135.061    21952134.7034   21952146.1784
        -0.000          -0.000
 -15524904.409 9 -12083783.69847  23102891.710    23102891.0424   23102904.7214
        -0.000          -0.000
   6561986.577 9   5113789.98748  21989781.247    21989781.5614   21989791.6614
        -0.000          -0.000
  -6641232.391 9  -5167019.21148  20516979.755    20516979.7504   20516989.6944
        -0.000          -0.000
 -11988435.524 9  -9322906.14648  20840147.075    20840146.7274   20840156.2014
        -0.000          -0.000
   7555449.181 9   5886501.30747  23095288.840    23095288.7744   23095301.3594
        -0.000          -0.000
 99  5 10 18 49  0.0010000  0  7  6  8 10  4 24  5  9                0.001000226
  -5855157.330 8  -4384496.73145  24984372.272    24984372.4104   24984388.4734
        -0.000          -0.000
   -492858.443 9   -382645.63547  21957178.356    21957178.0024   21957189.4714
        -0.000          -0.000
 -15614180.008 9 -12153348.95546  23085902.937    23085902.2734   23085915.9184
        -0.000          -0.000
   6641542.984 9   5175781.92248  22004920.350    22004920.6504   22004930.7954
        -0.000          -0.000
  -6629074.311 9  -5157545.37848  20519293.354    20519293.3494   20519303.3014
        -0.000          -0.000
 -12028120.735 9  -9353829.67048  20832595.254    20832594.9054   20832604.3324
        -0.000          -0.000
   7637253.698 9   5950244.94046  23110855.759    23110855.7684   23110868.3224
        -0.000          -0.000
 99  5 10 18 49 30.0010000  0  7  6  8 10  4 24  5  9                0.001000259
  -5924583.635 8  -4438595.00645  24971160.763    24971160.8254   24971176.7274
        -0.000          -0.000
   -465809.471 9   -361568.58147  21962325.682    21962325.3284   21962336.8164
        -0.000          -0.000
 -15703240.144 9 -12222746.33946  23068955.105    23068954.4664   23068968.0814
        -0.000          -0.000
   6721366.698 9   5237982.12848  22020110.321    22020110.6254   22020120.8204
        -0.000          -0.000
  -6616479.735 9  -5147731.42948  20521689.995    20521689.9904   20521699.9324
        -0.000          -0.000
 -12067388.137 9  -9384427.63748  20825122.941    20825122.5784   20825132.0054
        -0.000          -0.000
   7719269.156 9   6014152.93646  23126462.918    23126462.9224   23126475.5684
        -0.000          -0.000
 99  5 10 18 50  0.0010000  0  7  6  8 10  4 24  5  9                0.001000368
  -5993870.810 8  -4492584.16954  24957975.770    24957975.4834          0.0005
        -0.000          -0.000
   -438057.927 9   -339944.05747  21967606.610    21967606.2534   21967617.7724
        -0.000          -0.000
 -15791952.417 9 -12291872.64146  23052073.461    23052072.8024   23052086.4034
        -0.000          -0.000
   6801583.844 9   5300488.92048  22035375.120    22035375.4374   22035385.6654
        -0.000          -0.000
  -6603292.372 9  -5137455.55548  20524199.459    20524199.4524   20524209.4004
        -0.000          -0.000
 -12106087.249 9  -9414582.77248  20817758.734    20817758.3854   20817767.8214
        -0.000          -0.000
   7801619.497 9   6078321.87846  23142133.701    23142133.7444   23142146.4294
        -0.000          -0.000
 99  5 10 18 50 30.0010000  0  7  6  8 10  4 24  5  9                0.001000337
  -6063345.792 8  -4546720.48245  24944755.014    24944755.0964   24944772.4604
        -0.000          -0.000
   -409925.883 9   -318023.04747  21972960.027    21972959.6764   21972971.1944
        -0.000          -0.000
 -15880648.247 9 -12360986.12546  23035194.948    23035194.2674   23035207.8784
        -0.000          -0.000
   6881861.550 9   5363042.90648  22050651.472    22050651.7624   22050662.0004
        -0.000          -0.000
  -6589832.072 9  -5126967.00748  20526760.912    20526760.8894   20526770.8354
        -0.000          -0.000
 -12144539.944 9  -9444545.89248  20810441.447    20810441.0714   20810450.5444
        -0.000          -0.000
   7883974.912 9   6142494.77246  23157805.418    23157805.4464   23157818.3194
        -0.000          -0.000
 99  5 10 18 51  0.0010000  0  7  6  8 10  4 24  5  9                0.001000276
  -6132834.272 8  -4600867.25545  24931531.761    24931531.5414   24931548.8114
        -0.000          -0.000
   -381245.919 9   -295675.09047  21978417.714    21978417.3684   21978428.8874
        -0.000          -0.000
 -15969160.740 9 -12429956.76146  23018351.380    23018350.7384   23018364.3634
        -0.000          -0.000
   6962371.844 9   5425778.12648  22065972.040    22065972.3354   22065982.5754
        -0.000          -0.000
  -6575930.342 9  -5116134.48248  20529406.300    20529406.2884   20529416.2224
        -0.000          -0.000
 -12182573.351 9  -9474182.29148  20803203.892    20803203.5224   20803212.9874
        -0.000          -0.000
   7966510.116 9   6206807.75946  23173511.459    23173511.4914   23173524.4634
        -0.000          -0.000
 99  5 10 18 51 30.0010000  0  7  6  8 10  4 24  5  9                0.001000205
  -6202288.300 8  -4654987.10145  24918314.950    24918314.8204   24918331.9574
        -0.000          -0.000
   -351984.931 9   -272874.38647  21983985.998    21983985.6434   21983997.1504
        -0.000          -0.000
 -16057471.464 9 -12498770.17246  23001546.219    23001545.5814   23001559.2074
        -0.000          -0.000
   7043134.259 9   5488709.80247  22081340.592    22081340.9264   22081351.1104
        -0.000          -0.000
  -6561555.149 9  -5104933.03648  20532141.798    20532141.7844   20532151.7274
        -0.000          -0.000
 -12220168.905 9  -9503477.51748  20796049.648    20796049.2754   20796058.7424
        -0.000          -0.000
   8049253.714 9   6271283.13246  23189257.102    23189257.1014   23189270.2504
        -0.000          -0.000
 99  5 10 18 52  0.0010000  0  7  6  8 10  4 24  5  9                0.001000121
  -6271702.997 8  -4709076.35045  24905105.537    24905105.3554   24905122.6064
        -0.000          -0.000
   -322151.544 9   -249627.66047  21989663.192    21989662.8334   21989674.3484
        -0.000          -0.000
 -16145567.008 9 -12567415.92146  22984781.976    22984781.3384   22984794.9634
        -0.000          -0.000
   7124134.406 9   5551826.73147  22096754.438    22096754.7654   22096764.9584
        -0.000          -0.000
  -6546690.241 9  -5093349.99148  20534970.491    20534970.4764   20534980.3974
        -0.000          -0.000
 -12257320.290 9  -9532426.63348  20788979.918    20788979.5694   20788989.0324
        -0.000          -0.000
   8132211.717 9   6335925.56046  23205043.543    23205043.4834   23205056.8454
        -0.000          -0.000
 99  5 10 18 52 30.0010000  0  7  6  8 10  4 24  5  9                0.001000091
  -6340999.920 8  -4763073.84845  24891918.731    24891918.7344   24891935.8114
        -0.000          -0.000
   -291677.910 9   -225882.03548  21995462.177    21995461.8394   21995473.3464
        -0.000          -0.000
 -16233338.167 9 -12635808.90146  22968079.581    22968078.9004   22968092.4804
        -0.000          -0.000
   7205462.690 9   5615199.34547  22112230.722    22112231.0614   22112241.2364
        -0.000          -0.000
  -6531258.774 9  -5081325.47048  20537907.007    20537907.0034   20537916.9244
        -0.000          -0.000
 -12293954.741 9  -9560972.94748  20782008.594    20782008.2454   20782017.6854
        -0.000          -0.000
   8215461.021 9   6400794.98446  23220885.468    23220885.4054   23220898.8294
        -0.000          -0.000
 99  5 10 18 53  0.0010000  0  7  6  8 10  4 24  5  9                0.001000055
  -6410272.219 8  -4817052.12345  24878736.599    24878736.6804   24878753.4824
        -0.000          -0.000
   -260664.244 9   -201715.61148  22001363.994    22001363.6234   22001375.1554
        -0.000          -0.000
 -16320873.884 9 -12704018.41446  22951422.044    22951421.3714   22951434.8484
        -0.000          -0.000
   7287023.800 9   5678753.38447  22127751.323    22127751.6464   22127761.7784
        -0.000          -0.000
  -6515353.855 9  -5068932.02948  20540933.650    20540933.6474   20540943.5334
        -0.000          -0.000
 -12330162.703 9  -9589186.93548  20775118.444    20775118.0754   20775127.5124
        -0.000          -0.000
   8298885.606 9   6465800.98846  23236760.834    23236760.7554   23236774.2644
        -0.000          -0.000
 99  5 10 18 53 30.0010000  0  8  6  8 10  4 24  5  9 30             0.001000001
  -6479476.349 8  -4870977.29545  24865567.541    24865567.4664   24865584.2584
        -0.000          -0.000
   -229061.735 9   -177090.35348  22007377.837    22007377.4694   22007388.9704
        -0.000          -0.000
 -16408111.727 9 -12771995.82146  22934821.247    22934820.5944   22934833.9264
        -0.000          -0.000
   7368869.896 9   5742529.48947  22143326.209    22143326.5144   22143336.5894
        -0.000          -0.000
  -6498918.576 9  -5056125.31548  20544061.195    20544061.1724   20544071.0564
        -0.000          -0.000
 -12365890.326 9  -9617026.63048  20768319.708    20768319.3424   20768328.7704
        -0.000          -0.000
   8382522.433 9   6530972.36146  23252676.543    23252676.4474   23252690.0284
        -0.000          -0.000
  -1147528.375 8   -873707.20342         0.000           0.0004          0.0004
        -0.000          -0.000
 99  5 10 18 54  0.0010000  0  8  6  8 10  4 24  5  9 30             0.001000020
  -6548614.916 8  -4924851.40245  24852410.923    24852411.0534   24852427.1954
        -0.000          -0.000
   -196867.716 9   -152004.17748  22013504.269    22013503.8784   22013515.3524
        -0.000          -0.000
 -16495036.305 9 -12839729.12847  22918280.003    22918279.3364   22918292.6074
        -0.000          -0.000
   7451016.418 9   5806539.68847  22158958.251    22158958.5524   22158968.5504
        -0.000          -0.000
  -6481950.510 9  -5042903.45048  20547290.146    20547290.1174   20547299.9684
        -0.000          -0.000
 -12401133.406 9  -9644488.76148  20761613.168    20761612.8044   20761622.2454
        -0.000          -0.000
   8466379.654 9   6596315.47246  23268634.222    23268634.1494   23268647.7104
        -0.000          -0.000
  -1238391.64018   -944509.77345         0.000           0.0005   22929005.6594
        -0.000          -0.000
 99  5 10 18 54 30.0010000  0  8  6  8 10  4 24  5  9 30             0.001000037
  -6617762.692 8  -4978732.68945  24839252.565    24839252.6134   24839268.7394
        -0.000          -0.000
   -164158.397 9   -126516.47348  22019728.751    22019728.3594   22019739.8094
        -0.000          -0.000
 -16581733.334 9 -12907285.12247  22901782.065    22901781.4074   22901794.6324
        -0.000          -0.000
   7533403.105 9   5870737.03547  22174636.051    22174636.3384   22174646.2604
        -0.000          -0.000
  -6464535.201 9  -5029333.08048  20550604.205    20550604.1734   20550613.9954
        -0.000          -0.000
 -12435976.322 9  -9671639.07648  20754982.770    20754982.4154   20754991.8914
        -0.000          -0.000
   8550390.848 9   6661778.56547  23284621.204    23284621.1224   23284634.6314
        -0.000          -0.000
  -1329055.715 8  -1015156.98345  22911742.438    22911742.3014   22911754.5304
        -0.000          -0.000
 99  5 10 18 55  0.0010000  0  8  6  8 10  4 24  5  9 30             0.001000061
  -6686895.113 8  -5032602.03245  24826097.128    24826097.1114   24826113.1224
        -0.000          -0.000
   -130910.337 9   -100608.96948  22026055.710    22026055.3194   22026066.7634
        -0.000          -0.000
 -16668189.097 9 -12974653.12147  22885330.025    22885329.3864   22885342.5804
        -0.000          -0.000
   7616058.306 9   5935143.62347  22190364.968    22190365.2504   22190375.0704
        -0.000          -0.000
  -6446643.708 9  -5015391.66248  20554008.835    20554008.7964   20554018.6244
        -0.000          -0.000
 -12470390.250 9  -9698455.10748  20748433.999    20748433.6384   20748443.1754
        -0.000          -0.000
   8634586.730 9   6727385.57547  23300643.354    23300643.2704   23300656.7354
        -0.000          -0.000
  -1419502.876 8  -1085635.19045  22894530.591    22894531.6664   22894542.8214
        -0.000          -0.000
 99  5 10 18 55 30.0010000  0  8  6  8 10  4 24  5  9 30             0.001000101
  -6756006.201 8  -5086454.71745  24812945.702    24812945.6654   24812961.4374
        -0.000          -0.000
    -97102.771 9    -74265.48548  22032489.150    22032488.7654   22032500.2094
        -0.000          -0.000
 -16754386.482 9 -13041819.77947  22868927.155    22868926.5214   22868939.6574
        -0.000          -0.000
   7698993.859 9   5999768.66247  22206147.262    22206147.5444   22206157.2914
        -0.000          -0.000
  -6428271.566 9  -5001075.71148  20557504.948    20557504.8964   20557514.7144
        -0.000          -0.000
 -12504367.864 9  -9724931.15648  20741968.213    20741967.8544   20741977.4504
        -0.000          -0.000
   8718996.594 9   6793159.30747  23316706.156    23316706.0904   23316719.4954
        -0.000          -0.000
  -1509737.491 8  -1155947.80245  22877359.762    22877359.8934   22877371.1744
        -0.000          -0.000
 99  5 10 18 56  0.0010000  0  8  6  8 10  4 24  5  9 30             0.001000102
  -6825170.929 8  -5140349.21545  24799784.143    24799784.0974   24799799.6294
        -0.000          -0.000
    -62803.149 9    -47538.56748  22039016.228    22039015.8474   22039027.3114
        -0.000          -0.000
 -16840406.852 9 -13108848.50647  22852557.989    22852557.3244   22852570.4494
        -0.000          -0.000
   7782116.083 9   6064539.15847  22221964.977    22221965.2734   22221974.9794
        -0.000          -0.000
  -6409517.351 9  -4986462.03948  20561073.730    20561073.6954   20561083.5374
        -0.000          -0.000
 -12537978.294 9  -9751121.08448  20735572.349    20735571.9924   20735581.6184
        -0.000          -0.000
   8803556.955 9   6859050.31547  23332797.657    23332797.5604   23332810.9394
        -0.000          -0.000
  -1599842.867 8  -1226159.70345  22860213.240    22860213.3234   22860224.4384
        -0.000          -0.000
 99  5 10 18 56 30.0010000  0  8  6  8 10  4 24  5  9 30             0.001000128
  -6894285.371 8  -5194204.50345  24786632.139    24786631.9824   24786647.4054
        -0.000          -0.000
    -27905.872 9    -20345.95448  22045657.018    22045656.6204   22045668.1184
        -0.000          -0.000
 -16926126.826 9 -13175643.16747  22836245.937    22836245.2474   22836258.3724
        -0.000          -0.000
   7865514.797 9   6129525.09847  22237835.378    22237835.6774   22237845.3874
        -0.000          -0.000
  -6390276.817 9  -4971469.41948  20564735.081    20564735.0404   20564744.9104
        -0.000          -0.000
 -12571097.226 9  -9776928.03848  20729270.003    20729269.6654   20729279.2674
        -0.000          -0.000
   8888385.552 9   6925150.33747  23348940.117    23348940.0154   23348953.4274
        -0.000          -0.000
  -1689708.242 8  -1296184.60045  22843112.414    22843112.7924   22843123.4684
        -0.000          -0.000
 99  5 10 18 57  0.0010000  0  8  6  8 10  4 24  5  9 30             0.001000126
  -6963429.666 8  -5248083.06045  24773474.417    24773474.3514   24773489.5944
        -0.000          -0.000
      7523.057 9      7260.93548  22052398.925    22052398.5424   22052410.1114
        -0.000          -0.000
 -17011605.420 9 -13242249.73247  22819979.783    22819979.0774   22819992.2544
        -0.000          -0.000
   7949096.412 9   6194653.56047  22253740.514    22253740.7864   22253750.5494
        -0.000          -0.000
  -6370630.615 9  -4956160.69448  20568473.602    20568473.5724   20568483.4464
        -0.000          -0.000
 -12603786.291 9  -9802400.02748  20723049.486    20723049.1324   20723058.7344
        -0.000          -0.000
   8973400.292 9   6991395.39847  23365118.034    23365117.9254   23365131.4304
        -0.000          -0.000
  -1779407.010 8  -1366079.66445  22826043.212    22826043.5194   22826054.2604
        -0.000          -0.000
 99  5 10 18 57 30.0010000  0  8  6  8 10  4 24  5  9 30             0.001000101
  -7032591.463 8  -5301975.25145  24760313.352    24760313.3324   24760328.4754
        -0.000          -0.000
     43493.284 9     35289.61848  22059243.866    22059243.4734   22059255.1094
        -0.000          -0.000
 -17096834.720 9 -13308662.05547  22803761.035    22803760.3254   22803773.5634
        -0.000          -0.000
   8032859.880 9   6259923.71847  22269680.263    22269680.5114   22269690.3254
        -0.000          -0.000
  -6350581.799 9  -4940538.24148  20572288.748    20572288.7314   20572298.6394
        -0.000          -0.000
 -12636028.920 9  -9827524.15048  20716913.917    20716913.5894   20716923.1464
        -0.000          -0.000
   9058603.079 9   7057786.99347  23381331.712    23381331.6114   23381345.1914
        -0.000          -0.000
  -1868915.154 8  -1435826.16045  22809010.232    22809010.6214   22809021.4584
        -0.000          -0.000
 99  5 10 18 58  0.0010000  0  8  6  8 10  4 24  5  9 30             0.001000084
  -7101719.055 8  -5355840.79245  24747158.743    24747158.6694   24747173.8834
        -0.000          -0.000
     80034.298 9     63763.06948  22066197.416    22066197.0104   22066208.7044
        -0.000          -0.000
 -17181775.203 9 -13374849.31847  22787597.254    22787596.5664   22787609.8604
        -0.000          -0.000
   8116850.757 9   6325371.07147  22285663.251    22285663.5264   22285673.4074
        -0.000          -0.000
  -6330085.582 9  -4924567.16048  20576189.036    20576189.0114   20576198.9474
        -0.000          -0.000
 -12667779.748 9  -9852265.04648  20710871.954    20710871.6024   20710881.1384
        -0.000          -0.000
   9144015.818 9   7124342.19547  23397585.366    23397585.2884   23397598.8984
        -0.000          -0.000
  -1958172.310 8  -1505377.07645  22792024.932    22792025.3404   22792036.4964
        -0.000          -0.000
 99  5 10 18 58 30.0010000  0  8  6  8 10  4 24  5  9 30             0.001000053
  -7170860.093 8  -5409716.79745  24734001.583    24734001.4674   24734016.7794
        -0.000          -0.000
    117099.826 9     92645.22848  22073250.818    22073250.4074   22073262.1174
        -0.000          -0.000
 -17266451.543 9 -13440830.75447  22771483.696    22771483.0214   22771496.4114
        -0.000          -0.000
   8201039.691 9   6390972.76147  22301683.889    22301684.1854   22301694.2024
        -0.000          -0.000
  -6309164.016 9  -4908264.64548  20580170.293    20580170.2654   20580180.2144
        -0.000          -0.000
 -12699092.465 9  -9876664.56048  20704913.371    20704913.0374   20704922.5134
        -0.000          -0.000
   9229565.446 9   7191004.06547  23413865.084    23413865.0484   23413878.6474
        -0.000          -0.000
  -2047218.839 8  -1574763.87345  22775079.845    22775080.1514   22775091.6044
        -0.000          -0.000
 99  5 10 18 59  0.0010000  0  8  6  8 10  4 24  5  9 30             0.001000056
  -7239938.519 8  -5463544.03545  24720856.382    24720856.2874   24720871.4054
        -0.000          -0.000
    154760.462 9    121991.10848  22080417.464    22080417.0554   22080428.7684
        -0.000          -0.000
 -17350798.010 9 -13506555.14647  22755432.925    22755432.2524   22755445.7634
        -0.000          -0.000
   8285511.092 9   6456794.54347  22317758.273    22317758.5574   22317768.8014
        -0.000          -0.000
  -6287750.044 9  -4891578.43448  20584245.208    20584245.1744   20584255.1204
        -0.000          -0.000
 -12729907.267 9  -9900676.08948  20699049.547    20699049.2064   20699058.6394
        -0.000          -0.000
   9315282.591 9   7257796.46647  23430176.748    23430176.7164   23430190.2904
        -0.000          -0.000
  -2135990.998 8  -1643936.85345  22758186.792    22758187.1654   22758198.9394
        -0.000          -0.000
 99  5 10 18 59 30.0010000  0  8  6  8 10  4 24  5  9 30             0.001000026
  -7309055.238 8  -5517401.11845  24707703.754    24707703.6634   24707718.6564
        -0.000          -0.000
    192890.079 9    151702.42748  22087673.358    22087672.9424   22087684.6494
        -0.000          -0.000
 -17434933.657 9 -13572115.26647  22739422.250    22739421.6064   22739435.1824
        -0.000          -0.000
   8370150.292 9   6522747.07547  22333864.522    22333864.7974   22333875.2754
        -0.000          -0.000
  -6265954.767 9  -4874595.10748  20588392.732    20588392.6924   20588402.6094
        -0.000          -0.000
 -12760346.489 9  -9924394.95948  20693257.237    20693256.8964   20693266.2944
        -0.000          -0.000
   9401037.246 9   7324618.08747  23446495.462    23446495.4084   23446508.9994
        -0.000          -0.000
  -2224600.833 8  -1712983.35146  22741324.863    22741325.1894   22741337.1764
        -0.000          -0.000
 99  5 10 19  0  0.0010000  0  8  6  8 10  4 24  5  9 30             0.001000015
  -7378119.459 8  -5571217.29645  24694561.199    24694561.1314   24694576.2044
        -0.000          -0.000
    231574.519 9    181846.06548  22095034.825    22095034.3964   22095046.1384
        -0.000          -0.000
 -17518756.643 9 -13637431.76447  22723471.121    22723470.5094   22723484.0864
        -0.000          -0.000
   8455043.544 9   6588897.57747  22350019.136    22350019.4134   22350030.0264
        -0.000          -0.000
  -6243676.488 9  -4857235.41248  20592632.141    20592632.0974   20592642.0064
        -0.000          -0.000
 -12790315.252 9  -9947747.23548  20687554.374    20687554.0244   20687563.4094
        -0.000          -0.000
   9486919.936 9   7391539.48247  23462838.595    23462838.5254   23462852.1414
        -0.000          -0.000
  -2312971.382 9  -1781843.38846  22724508.501    22724508.8894   22724520.8814
        -0.000          -0.000
 99  5 10 19  0 30.0010000  0  8  6  8 10  4 24  5  9 30             0.000999950
  -7447242.229 8  -5625079.10045  24681407.530    24681407.4074   24681422.2844
        -0.000          -0.000
    270682.894 9    212320.04548  22102476.924    22102476.5044   22102488.2344
        -0.000          -0.000
 -17602387.520 9 -13702598.56747  22707556.563    22707555.9264   22707569.5104
        -0.000          -0.000
   8540068.077 9   6655150.36147  22366198.732    22366199.0134   22366209.7804
        -0.000          -0.000
  -6221039.660 9  -4839596.32648  20596939.829    20596939.7954   20596949.6724
        -0.000          -0.000
 -12819931.887 9  -9970825.12448  20681918.532    20681918.1764   20681927.5364
        -0.000          -0.000
   9572815.659 9   7458471.02847  23479184.209    23479184.1184   23479197.7764
        -0.000          -0.000
  -2401232.809 9  -1850618.41846  22707713.047    22707713.4374   22707725.2864
        -0.000          -0.000
 99  5 10 19  1  0.0010000  0  8  6  8 10  4 24  5  9 30             0.000999903
  -7516296.443 8  -5678887.44645  24668266.815    24668266.5944   24668281.4404
        -0.000          -0.000
    310318.052 9    243204.50248  22110019.303    22110018.8924   22110030.6294
        -0.000          -0.000
 -17685727.015 9 -13767538.31147  22691697.447    22691696.7964   22691710.4654
        -0.000          -0.000
   8625335.703 9   6721592.56947  22382424.594    22382424.9194   22382435.7654
        -0.000          -0.000
  -6197934.609 9  -4821592.39148  20601336.563    20601336.5314   20601346.3854
        -0.000          -0.000
 -12849066.784 9  -9993527.63348  20676374.329    20676373.9844   20676383.3394
        -0.000          -0.000
   9658863.732 9   7525521.28347  23495558.739    23495558.6734   23495572.3544
        -0.000          -0.000
  -2489256.433 9  -1919208.15746  22690962.864    22690963.2334   22690974.8754
        -0.000          -0.000
 99  5 10 19  1 30.0010000  0  8  6  8 10  4 24  5  9 30             0.000999902
  -7585237.487 8  -5732607.62945  24655147.594    24655147.3974   24655162.3494
        -0.000          -0.000
    350519.042 9    274529.86547  22117669.339    22117668.9364   22117680.6304
        -0.000          -0.000
 -17768712.220 9 -13832202.00247  22675905.775    22675905.0684   22675918.8504
        -0.000          -0.000
   8710887.182 9   6788255.97547  22398704.501    22398704.8194   22398715.7684
        -0.000          -0.000
  -6174305.956 9  -4803180.45148  20605832.952    20605832.9094   20605842.7564
        -0.000          -0.000
 -12877654.250 9 -10015803.57648  20670934.293    20670933.9504   20670943.3104
        -0.000          -0.000
   9745139.206 9   7592748.73547  23511976.578    23511976.5074   23511990.2394
        -0.000          -0.000
  -2576985.519 9  -1987568.39146  22674268.715    22674269.0104   22674280.4984
        -0.000          -0.000
 99  5 10 19  2  0.0010000  0  8  6  8 10  4 24  5  9 30             0.000999923
  -7654114.360 7  -5786277.80145  24642040.351    24642039.9014   24642055.7174
        -0.000          -0.000
    391242.937 9    306262.68547  22125418.879    22125418.4814   22125430.1934
        -0.000          -0.000
 -17851368.648 9 -13896609.49547  22660176.634    22660175.9874   22660189.7524
        -0.000          -0.000
   8796683.881 9   6855110.44847  22415031.097    22415031.3974   22415042.4484
        -0.000          -0.000
  -6150187.476 9  -4784386.83248  20610422.528    20610422.4914   20610432.3314
        -0.000          -0.000
 -12905725.572 9 -10037677.33648  20665592.519    20665592.1684   20665601.5174
        -0.000          -0.000
   9831614.595 9   7660131.96147  23528432.473    23528432.3954   23528446.1704
        -0.000          -0.000
  -2664449.569 9  -2055722.10746  22657624.902    22657625.3024   22657636.5234
        -0.000          -0.000
 99  5 10 19  2 30.0010000  0  8  6  8 10  4 24  5  9 30             0.000999947
  -7722974.321 7  -5839934.74344  24628936.154    24628935.8054   24628951.0614
        -0.000          -0.000
    432449.493 9    338371.60047  22133260.261    22133259.8734   22133271.6214
        -0.000          -0.000
 -17933720.085 9 -13960779.34547  22644505.599    22644504.9464   22644518.6984
        -0.000          -0.000
   8882683.328 9   6922122.91447  22431396.266    22431396.5374   22431407.6364
        -0.000          -0.000
  -6125626.413 9  -4765248.34248  20615096.360    20615096.3264   20615106.1604
        -0.000          -0.000
 -12933323.529 9 -10059182.23949  20660340.821    20660340.4544   20660349.7844
        -0.000          -0.000
   9918259.203 9   7727647.05147  23544920.542    23544920.4604   23544934.3144
        -0.000          -0.000
  -2751679.124 9  -2123693.12846  22641025.703    22641026.1644   22641037.0484
        -0.000          -0.000
 99  5 10 19  3  0.0010000  0  8  6  8 10  4 24  5  9 30             0.000999976
  -7791817.12817  -5893578.31044  24615835.212    24615835.0625   24615851.2414
        -0.000          -0.000
    474168.551 9    370879.86847  22141199.196    22141198.7974   22141210.5644
        -0.000          -0.000
 -18015726.113 9 -14024680.03847  22628900.304    22628899.6494   22628913.3314
        -0.000          -0.000
   8968886.291 9   6989293.95547  22447800.234    22447800.5214   22447811.6124
        -0.000          -0.000
  -6100602.407 9  -4745749.11648  20619858.275    20619858.2494   20619868.0534
        -0.000          -0.000
 -12960419.127 9 -10080295.68949  20655184.689    20655184.3434   20655193.6554
        -0.000          -0.000
  10005099.988 9   7795315.00947  23561445.958    23561445.8704   23561459.7834
        -0.000          -0.000
  -2838640.013 9  -2191454.78445  22624477.540    22624477.8804   22624488.5244
        -0.000          -0.000
 99  5 10 19  3 30.0010000  0  8  6  8 10  4 24  5  9 30             0.001000010
  -7860653.904 7  -5947217.15444  24602735.741    24602735.5714   24602751.9994
        -0.000          -0.000
    516392.370 9    403781.45747  22149234.127    22149233.7344   22149245.5294
        -0.000          -0.000
 -18097396.609 9 -14088319.28047  22613358.854    22613358.2184   22613371.8574
        -0.000          -0.000
   9055270.532 9   7056606.25947  22464238.726    22464238.9914   22464250.0094
        -0.000          -0.000
  -6075143.974 9  -4725911.37948  20624702.858    20624702.8254   20624712.6354
        -0.000          -0.000
 -12987037.760 9 -10101037.47549  20650119.345    20650119.0104   20650128.2984
        -0.000          -0.000
  10092121.121 9   7863123.50147  23578005.687    23578005.6364   23578019.5554
        -0.000          -0.000
  -2925347.594 9  -2259019.08345  22607977.589    22607977.8334   22607988.0714
        -0.000          -0.000
 99  5 10 19  4  0.0010000  0  8  6  8 10  4 24  5  9 30             0.001000036
  -7929498.860 7  -6000862.45444  24589634.978    24589634.4304   24589650.8934
        -0.000          -0.000
    559114.769 9    437071.55247  22157363.964    22157363.5664   22157375.4234
        -0.000          -0.000
 -18178772.060 9 -14151728.62147  22597873.556    22597872.9184   22597886.5054
        -0.000          -0.000
   9141811.161 9   7124040.41747  22480706.987    22480707.2104   22480718.2034
        -0.000          -0.000
  -6049281.638 9  -4705758.91148  20629624.331    20629624.3084   20629634.1084
        -0.000          -0.000
 -13013218.049 9 -10121437.69649  20645137.418    20645137.0494   20645146.3484
        -0.000          -0.000
  10179305.351 9   7931059.06547  23594596.491    23594596.4014   23594610.3774
        -0.000          -0.000
  -3011826.365 9  -2326405.03645  22591520.981    22591521.1654   22591531.6014
        -0.000          -0.000
 99  5 10 19  4 30.0010000  0  8  6  8 10  4 24  5  9 30             0.001000052
  -7998355.471 7  -6054516.80044  24576532.168    24576532.0004   24576547.8684
        -0.000          -0.000
    602343.353 9    470756.07547  22165590.114    22165589.7014   22165601.6164
        -0.000          -0.000
 -18259863.728 9 -14214916.82547  22582442.262    22582441.6314   22582455.1854
        -0.000          -0.000
   9228510.239 9   7191598.05047  22497205.404    22497205.6484   22497216.4854
        -0.000          -0.000
  -6023027.959 9  -4685301.50848  20634620.283    20634620.2304   20634630.0294
        -0.000          -0.000
 -13038959.654 9 -10141496.08949  20640238.975    20640238.6204   20640247.8904
        -0.000          -0.000
  10266642.333 9   7999113.65547  23611216.290    23611216.1954   23611230.2524
        -0.000          -0.000
  -3098082.537 9  -2393617.54945  22575106.920    22575107.1684   22575117.5444
        -0.000          -0.000
 99  5 10 19  5  0.0010000  0  8  6  8 10  4 24  5  9 30             0.001000133
  -8067092.576 8  -6108078.05045  24563451.983    24563451.7064   24563467.6764
        -0.000          -0.000
    646199.111 9    504929.29647  22173935.638    22173935.2344   22173947.1614
        -0.000          -0.000
 -18340565.666 9 -14277801.35047  22567085.212    22567084.5724   22567098.0904
        -0.000          -0.000
   9315496.389 9   7259379.37347  22513758.478    22513758.6984   22513769.4124
        -0.000          -0.000
  -5996259.905 9  -4664443.28848  20639714.064    20639714.0334   20639723.8304
        -0.000          -0.000
 -13064132.216 9 -10161111.06849  20635448.784    20635448.4164   20635457.6894
        -0.000          -0.000
  10354234.126 9   8067366.80247  23627884.588    23627884.4854   23627898.6124
        -0.000          -0.000
  -3183986.197 9  -2460555.38545  22558759.823    22558760.0354   22558770.5604
        -0.000          -0.000
 99  5 10 19  5 30.0010000  0  8  6  8 10  4 24  5  9 30             0.001000122
  -8135961.688 8  -6161742.16045  24550346.675    24550346.6094   24550361.9624
        -0.000          -0.000
    690425.905 9    539391.64047  22182351.810    22182351.4284   22182363.3574
        -0.000          -0.000
 -18421135.282 9 -14340582.76847  22551753.321    22551752.6464   22551766.0854
        -0.000          -0.000
   9402528.489 9   7327196.49947  22530320.242    22530320.4944   22530331.0134
        -0.000          -0.000
  -5969237.254 9  -4643386.68448  20644856.325    20644856.2934   20644866.0954
        -0.000          -0.000
 -13088995.383 9 -10180484.96449  20630717.477    20630717.1224   20630726.4044
        -0.000          -0.000
  10441805.803 9   8135604.25946  23644549.064    23644548.9694   23644563.2004
        -0.000          -0.000
  -3269810.551 9  -2527431.39345  22542427.958    22542428.2414   22542438.7494
        -0.000          -0.000
 99  5 10 19  6  0.0010000  0  8  6  8 10  4 24  5  9 30             0.001000108
  -8204815.152 8  -6215394.06445  24537244.424    24537244.4884   24537259.0944
        -0.000          -0.000
    735184.347 9    574268.25247  22190869.101    22190868.7214   22190880.6714
        -0.000          -0.000
 -18501390.380 9 -14403119.10847  22536481.311    22536480.6294   22536493.9334
        -0.000          -0.000
   9489768.282 9   7395175.46947  22546921.554    22546921.8114   22546932.2284
        -0.000          -0.000
  -5941781.529 9  -4621992.62148  20650081.004    20650080.9564   20650090.7484
        -0.000          -0.000
 -13113362.400 9 -10199472.24949  20626080.580    20626080.2124   20626089.5124
        -0.000          -0.000
  10529498.902 9   8203936.32846  23661236.636    23661236.5274   23661250.7784
        -0.000          -0.000
  -3355388.985 9  -2594115.79945  22526142.901    22526143.1854   22526153.7044
        -0.000          -0.000
 99  5 10 19  6 30.0010000  0  8  6  8 10  4 24  5  9 30             0.001000099
  -8273649.643 8  -6269031.20745  24524145.759    24524145.5574   24524160.1124
        -0.000          -0.000
    780479.651 9    609563.20047  22199488.590    22199488.1944   22199500.1774
        -0.000          -0.000
 -18581291.499 9 -14465379.61647  22521276.632    22521275.9254   22521289.1244
        -0.000          -0.000
   9577232.377 9   7463329.20647  22563565.608    22563565.8484   22563576.1874
        -0.000          -0.000
  -5913878.277 9  -4600249.83649  20655390.810    20655390.7714   20655400.5704
        -0.000          -0.000
 -13137211.250 9 -10218055.76249  20621542.262    20621541.8944   20621551.2154
        -0.000          -0.000
  10617302.342 9   8272354.38346  23677945.257    23677945.1394   23677959.4504
        -0.000          -0.000
  -3440687.311 9  -2660581.94245  22509911.252    22509911.5134   22509922.0714
        -0.000          -0.000
 99  5 10 19  7  0.0010000  0  8  6  8 10  4 24  5  9 30             0.001000088
  -8342480.898 8  -6322665.83445  24511047.711    24511047.6554   24511061.9354
        -0.000          -0.000
    826288.865 9    645258.59347  22208205.871    22208205.4694   22208217.4874
        -0.000          -0.000
 -18660841.163 9 -14527366.27247  22506138.848    22506138.1454   22506151.2174
        -0.000          -0.000
   9664893.717 9   7531636.64347  22580247.146    22580247.3804   22580257.6124
        -0.000          -0.000
  -5885551.255 9  -4578176.84349  20660781.280    20660781.2494   20660791.0674
        -0.000          -0.000
 -13160570.803 9 -10236258.01049  20617097.056    20617096.6814   20617105.9974
        -0.000          -0.000
  10705189.206 9   8340837.43146  23694669.693    23694669.6114   23694683.9124
        -0.000          -0.000
  -3525730.544 9  -2726849.32145  22493728.049    22493728.3364   22493738.7764
        -0.000          -0.000
 99  5 10 19  7 30.0010000  0  8  6  8 10  4 24  5  9 30             0.001000117
  -8411248.043 8  -6376250.48445  24497961.736    24497961.6644   24497976.0824
        -0.000          -0.000
    872673.610 9    681402.44447  22217032.582    22217032.2284   22217044.2434
        -0.000          -0.000
 -18739971.871 9 -14589026.45947  22491080.787    22491080.0794   22491093.0394
        -0.000          -0.000
   9752793.645 9   7600129.99047  22596974.037    22596974.2804   22596984.5074
        -0.000          -0.000
  -5856747.347 9  -4555732.25049  20666262.528    20666262.5044   20666272.2794
        -0.000          -0.000
 -13183396.268 9 -10254044.08849  20612753.507    20612753.1584   20612762.4494
        -0.000          -0.000
  10793227.263 9   8409438.30446  23711422.877    23711422.8234   23711437.1964
        -0.000          -0.000
  -3610457.478 9  -2792870.23545  22477605.018    22477605.3184   22477615.5694
        -0.000          -0.000
 99  5 10 19  8  0.0010000  0  8  6  8 10  4 24  5  9 30             0.001000120
  -8480052.427 8  -6429864.16845  24484868.652    24484868.5494   24484882.7494
        -0.000          -0.000
    919523.541 9    717908.78947  22225947.878    22225947.5474   22225959.5964
        -0.000          -0.000
 -18818786.694 9 -14650440.51147  22476082.830    22476082.1124   22476094.9744
        -0.000          -0.000
   9840819.368 9   7668721.36947  22613724.866    22613725.1244   22613735.3474
        -0.000          -0.000
  -5827572.914 9  -4532998.93549  20671814.256    20671814.2314   20671823.9884
        -0.000          -0.000
 -13205788.505 9 -10271492.58749  20608492.407    20608492.0584   20608501.3394
        -0.000          -0.000
  10881314.334 9   8478077.36046  23728185.476    23728185.4094   23728199.8564
        -0.000          -0.000
  -3694944.115 9  -2858703.89945  22461527.667    22461528.0574   22461538.3654
        -0.000          -0.000
 99  5 10 19  8 30.0010000  0  8  6  8 10  4 24  5  9 30             0.001000120
  -8548862.573 8  -6483482.33245  24471774.415    24471774.2944   24471788.5374
        -0.000          -0.000
    966846.311 9    754783.57547  22234953.175    22234952.8234   22234964.9104
        -0.000          -0.000
 -18897268.385 9 -14711594.97347  22461148.248    22461147.5214   22461160.2594
        -0.000          -0.000
   9928988.132 9   7737424.19147  22630502.882    22630503.1294   22630513.4084
        -0.000          -0.000
  -5798020.937 9  -4509971.42749  20677437.834    20677437.8084   20677447.5504
        -0.000          -0.000
 -13227743.455 9 -10288600.34049  20604314.533    20604314.1804   20604323.4624
        -0.000          -0.000
  10969469.048 9   8546769.14046  23744960.990    23744960.9454   23744975.3624
        -0.000          -0.000
  -3779176.274 8  -2924339.24645  22445498.635    22445499.0654   22445509.5504
        -0.000          -0.000
 99  5 10 19  9  0.0010000  0  8  6  8 10  4 24  5  9 30             0.001000118
  -8617652.535 8  -6537084.76545  24458684.013    24458684.0254   24458698.1414
        -0.000          -0.000
   1014630.611 9    792017.99847  22244046.312    22244045.9474   22244058.0634
        -0.000          -0.000
 -18975420.582 9 -14772492.69247  22446276.399    22446275.6774   22446288.3254
        -0.000          -0.000
  10017297.830 9   7806236.85747  22647307.715    22647307.9654   22647318.2924
        -0.000          -0.000
  -5768084.219 9  -4486644.12749  20683134.643    20683134.6044   20683144.3004
        -0.000          -0.000
 -13249235.032 9 -10305347.02849  20600224.823    20600224.4714   20600233.7484
        -0.000          -0.000
  11057711.784 9   8615529.50946  23761753.132    23761753.1104   23761767.5624
        -0.000          -0.000
  -3863155.740 8  -2989777.70945  22429517.690    22429518.1694   22429528.5384
        -0.000          -0.000
 99  5 10 19  9 30.0010000  0  8  6  8 10  4 24  5  9 30             0.001000088
  -8686453.335 8  -6590695.65845  24445591.627    24445591.7894   24445605.8574
        -0.000          -0.000
   1062823.272 9    829570.62547  22253217.103    22253216.7384   22253228.8894
        -0.000          -0.000
 -19053280.633 9 -14833162.76347  22431460.074    22431459.3544   22431471.9194
        -0.000          -0.000
  10105711.463 9   7875130.49147  22664132.359    22664132.5974   22664142.9624
        -0.000          -0.000
  -5737794.647 9  -4463041.86849  20688898.583    20688898.5344   20688908.1904
        -0.000          -0.000
 -13270284.918 9 -10321749.53849  20596219.154    20596218.7944   20596228.0874
        -0.000          -0.000
  11146004.756 9   8684329.00846  23778554.872    23778554.8194   23778569.2784
        -0.000          -0.000
  -3946895.605 8  -3055029.47245  22413582.239    22413582.7794   22413593.2244
        -0.000          -0.000
 99  5 10 19 10  0.0010000  0  8  6  8 10  4 24  5  9 30             0.001000065
  -8755211.790 8  -6644273.56045  24432507.333    24432507.3574   24432521.4004
        -0.000          -0.000
   1111472.684 9    867479.16447  22262474.874    22262474.5194   22262486.6654
        -0.000          -0.000
 -19130776.796 9 -14893549.28047  22416712.988    22416712.3134   22416724.7334
        -0.000          -0.000
  10194307.159 9   7944165.99947  22680991.552    22680991.8064   22681002.2854
        -0.000          -0.000
  -5707082.054 9  -4439109.98649  20694743.020    20694742.9784   20694752.6004
        -0.000          -0.000
 -13290814.940 9 -10337746.96149  20592312.452    20592312.0894   20592321.3884
        -0.000          -0.000
  11234393.557 9   8753203.17446  23795374.844    23795374.7754   23795389.3724
        -0.000          -0.000
  -4030332.965 8  -3120045.49945  22397704.438    22397704.9134   22397715.6254
        -0.000          -0.000
 99  5 10 19 10 30.0010000  0  8  6  8 10  4 24  5  9 30             0.001000050
  -8823937.703 8  -6697826.11145  24419429.060    24419429.0314   24419443.2854
        -0.000          -0.000
   1160569.391 9    905736.24347  22271817.777    22271817.4124   22271829.5764
        -0.000          -0.000
 -19207918.112 9 -14953659.29947  22402033.407    22402032.7054   22402045.0974
        -0.000          -0.000
  10283084.863 9   8013343.31947  22697885.368    22697885.6214   22697896.2564
        -0.000          -0.000
  -5675945.383 9  -4414847.65249  20700668.143    20700668.0964   20700677.7144
        -0.000          -0.000
 -13310842.264 9 -10353352.66949  20588501.413    20588501.0274   20588510.3354
        -0.000          -0.000
  11322881.751 9   8822154.80946  23812213.746    23812213.5984   23812228.2724
        -0.000          -0.000
  -4113484.550 8  -3184838.81145  22381881.095    22381881.8054   22381892.3924
        -0.000          -0.000
 99  5 10 19 11  0.0010000  0  8  6  8 10  4 24  5  9 30             0.001000042
  -8892643.218 8  -6751362.75445  24406354.705    24406354.7434   24406368.9274
        -0.000          -0.000
   1210119.970 9    944346.97447  22281247.041    22281246.6844   22281258.8264
        -0.000          -0.000
 -19284712.315 9 -15013498.83347  22387419.870    22387419.1734   22387431.5444
        -0.000          -0.000
  10372047.021 9   8082664.37847  22714814.250    22714814.5414   22714825.3604
        -0.000          -0.000
  -5644392.252 9  -4390260.80949  20706672.535    20706672.4894   20706682.0854
        -0.000          -0.000
 -13330371.300 9 -10368570.10549  20584785.162    20584784.7904   20584794.1174
        -0.000          -0.000
  11411474.784 9   8891188.12346  23829072.554    23829072.4864   23829087.1944
        -0.000          -0.000
  -4196347.639 8  -3249407.38845  22366112.866    22366113.4924   22366123.9684
        -0.000          -0.000
 99  5 10 19 11 30.0010000  0  8  6  8 10  4 24  5  9 30             0.001000042
  -8961354.057 8  -6804903.54545  24393279.313    24393279.2954   24393293.6714
        -0.000          -0.000
   1260143.701 9    983326.40547  22290766.380    22290766.0044   22290778.1014
        -0.000          -0.000
 -19361157.494 9 -15073066.40347  22372872.712    22372872.0244   22372884.3774
        -0.000          -0.000
  10461199.852 9   8152134.01147  22731779.445    22731779.6974   22731790.7704
        -0.000          -0.000
  -5612427.847 9  -4365353.49049  20712755.167    20712755.1284   20712764.7134
        -0.000          -0.000
 -13349418.451 9 -10383412.04449  20581160.612    20581160.2494   20581169.5594
        -0.000          -0.000
  11500163.991 9   8960296.38346  23845949.673    23845949.6024   23845964.3234
        -0.000          -0.000
  -4278920.567 9  -3313749.83345  22350399.859    22350400.4204   22350410.7554
        -0.000          -0.000
 99  5 10 19 12  0.0010000  0  8  6  8 10  4 24  5  9 30             0.001000041
  -9030083.705 8  -6858458.99145  24380200.318    24380200.2694   24380214.7654
        -0.000          -0.000
   1310648.333 9   1022680.56147  22300377.236    22300376.8404   22300388.8654
        -0.000          -0.000
 -19437273.210 9 -15132377.23847  22358388.213    22358387.5314   22358399.9064
        -0.000          -0.000
  10550531.556 9   8221743.02547  22748778.668    22748778.9084   22748790.1724
        -0.000          -0.000
  -5580055.261 9  -4340128.11149  20718915.509    20718915.4534   20718925.0584
        -0.000          -0.000
 -13367988.092 9 -10397881.90449  20577626.919    20577626.5464   20577635.8684
        -0.000          -0.000
  11588959.380 9   9029487.37846  23862847.011    23862846.9844   23862861.6764
        -0.000          -0.000
  -4361216.028 9  -3377876.14145  22334739.715    22334740.2624   22334750.2164
        -0.000          -0.000
 99  5 10 19 12 30.0010000  0  8  6  8 10  4 24  5  9 30             0.001000032
  -9098832.400 8  -6912029.30245  24367117.806    24367117.7654   24367132.1904
        -0.000          -0.000
   1361632.229 9   1062408.16347  22310079.257    22310078.8434   22310090.8464
        -0.000          -0.000
 -19513072.492 9 -15191441.50147  22343963.927    22343963.2464   22343975.6564
        -0.000          -0.000
  10640013.985 9   8291469.49247  22765806.632    22765806.8704   22765818.2644
        -0.000          -0.000
  -5547299.732 9  -4314604.33749  20725148.679    20725148.6184   20725158.2324
        -0.000          -0.000
 -13386082.864 9 -10411981.73449  20574183.614    20574183.2494   20574192.5524
        -0.000          -0.000
  11677865.169 9   9098764.39446  23879765.427    23879765.3924   23879780.1424
        -0.000          -0.000
  -4443246.892 9  -3441796.19045  22319129.838    22319130.1884   22319140.2614
        -0.000          -0.000
 99  5 10 19 13  0.0010000  0  8  6  8 10  4 24  5  9 30             0.001000017
  -9167564.549 8  -6965586.70045  24354038.467    24354038.5004   24354052.9064
        -0.000          -0.000
   1413115.198 9   1102524.64447  22319876.255    22319875.8514   22319887.7824
        -0.000          -0.000
 -19588523.798 9 -15250234.62047  22329605.882    22329605.1964   22329617.6414
        -0.000          -0.000
  10729648.495 9   8361314.45947  22782863.553    22782863.8124   22782875.3064
        -0.000          -0.000
  -5514151.022 9  -4288774.18949  20731456.666    20731456.6014   20731466.2444
        -0.000          -0.000
 -13403654.235 9 -10425673.71949  20570839.898    20570839.5344   20570848.8144
        -0.000          -0.000
  11766884.050 9   9168129.53746  23896705.353    23896705.2954   23896720.0414
        -0.000          -0.000
  -4524992.883 9  -3505494.28845  22303574.130    22303574.1474   22303584.5704
        -0.000          -0.000
 99  5 10 19 13 30.0010000  0  8  6  8 10  4 24  5  9 30             0.000999993
  -9236269.391 8  -7019122.82545  24340964.289    24340964.2614   24340978.8044
        -0.000          -0.000
   1465094.739 9   1143028.06747  22329767.740    22329767.3344   22329779.2804
        -0.000          -0.000
 -19663605.996 9 -15308740.12247  22315318.090    22315317.3984   22315329.8594
        -0.000          -0.000
  10819425.293 9   8431270.29447  22799947.568    22799947.8444   22799959.4414
        -0.000          -0.000
  -5480592.986 9  -4262625.08449  20737842.523    20737842.4604   20737852.1444
        -0.000          -0.000
 -13420684.179 9 -10438943.81449  20567599.218    20567598.8684   20567608.1334
        -0.000          -0.000
  11856018.638 9   9237584.83246  23913667.287    23913667.2724   23913681.9424
        -0.000          -0.000
  -4606446.026 9  -3568964.18445  22288074.215    22288074.4074   22288084.4554
        -0.000          -0.000
 99  5 10 19 14  0.0010000  0  8  6  8 10  4 24  5  9 30             0.000999981
  -9304904.952 8  -7072604.94645  24327903.354    24327903.3634   24327917.8044
        -0.000          -0.000
   1517576.052 9   1183922.48147  22339754.736    22339754.3204   22339766.2164
        -0.000          -0.000
 -19738282.013 9 -15366929.11147  22301107.570    22301106.8664   22301119.3534
        -0.000          -0.000
  10909353.064 9   8501343.78147  22817060.327    22817060.6174   22817072.2914
        -0.000          -0.000
  -5446609.984 9  -4236144.83849  20744309.272    20744309.2234   20744318.9154
        -0.000          -0.000
 -13437155.133 9 -10451778.33349  20564464.914    20564464.5574   20564473.8184
        -0.000          -0.000
  11945284.966 9   9307142.77646  23930654.310    23930654.2834   23930669.0134
        -0.000          -0.000
  -4687595.537 8  -3632197.52945  22272631.919    22272632.1074   22272642.2464
        -0.000          -0.000
 99  5 10 19 14 30.0010000  0  8  6  8 10  4 24  5  9 30             0.000999981
  -9373472.436 8  -7126034.03545  24314855.310    24314855.3064   24314869.6054
        -0.000          -0.000
   1570549.884 9   1225200.67747  22349835.405    22349835.0014   22349846.9044
        -0.000          -0.000
 -19812528.038 9 -15424783.04347  22286978.861    22286978.1664   22286990.7154
        -0.000          -0.000
  10999429.900 9   8571533.42747  22834201.519    22834201.7814   22834213.5074
        -0.000          -0.000
  -5412208.598 9  -4209338.58049  20750855.619    20750855.5624   20750865.2924
        -0.000          -0.000
 -13453078.628 9 -10464186.26149  20561434.771    20561434.4154   20561443.7104
        -0.000          -0.000
  12034648.851 9   9376776.74446  23947659.838    23947659.8004   23947674.5554
        -0.000          -0.000
  -4768446.401 8  -3695198.09245  22257246.434    22257246.7094   22257256.7844
        -0.000          -0.000
 99  5 10 19 15  0.0010000  0  8  6  8 10  4 24  5  9 30             0.000999989
  -9441999.046 8  -7179431.26445  24301815.010    24301814.9344   24301829.3364
        -0.000          -0.000
   1624000.904 9   1266850.70747  22360006.879    22360006.4894   22360018.3764
        -0.000          -0.000
 -19886355.000 9 -15482310.43247  22272929.923    22272929.2324   22272941.8444
        -0.000          -0.000
  11089653.985 9   8641837.80147  22851370.667    22851370.9654   22851382.7104
        -0.000          -0.000
  -5377392.517 9  -4182209.18349  20757480.895    20757480.8354   20757490.6094
        -0.000          -0.000
 -13468480.637 9 -10476187.84049  20558503.894    20558503.5344   20558512.8404
        -0.000          -0.000
  12124084.446 9   9446466.58246  23964679.099    23964679.0284   23964693.7254
        -0.000          -0.000
  -4849001.609 8  -3757968.32945  22241917.171    22241917.5424   22241927.4414
        -0.000          -0.000
 99  5 10 19 15 30.0010000  0  8  6  8 10  4 24  5  9 30             0.001000004
  -9510515.841 8  -7232820.84745  24288776.532    24288776.4504   24288790.8794
        -0.000          -0.000
   1677909.555 9   1308857.31647  22370265.495    22370265.0884   22370276.9734
        -0.000          -0.000
 -19959789.968 9 -15539532.37147  22258955.545    22258954.8764   22258967.5324
        -0.000          -0.000
  11180022.018 9   8712254.35147  22868567.263    22868567.5504   22868579.2584
        -0.000          -0.000
  -5342174.059 9  -4154766.24449  20764182.734    20764182.6754   20764192.4444
        -0.000          -0.000
 -13483409.616 9 -10487820.81849  20555663.017    20555662.6514   20555671.9824
        -0.000          -0.000
  12213581.029 9   9516203.93246  23981709.976    23981709.8574   23981724.6194
        -0.000          -0.000
  -4929267.730 8  -3820513.26645  22226642.874    22226643.2764   22226653.1584
        -0.000          -0.000
 99  5 10 19 16  0.0010000  0  8  6  8 10  4 24  5  9 30             0.001000022
  -9579036.914 8  -7286213.74745  24275737.326    24275737.3574   24275751.6274
        -0.000          -0.000
   1732252.133 9   1351202.05847  22380606.640    22380606.2394   22380618.1304
        -0.000          -0.000
 -20032855.944 9 -15596466.78647  22245051.456    22245050.7824   22245063.4654
        -0.000          -0.000
  11270523.955 9   8782775.23747  22885789.341    22885789.6274   22885801.2994
        -0.000          -0.000
  -5306577.070 9  -4127028.34649  20770956.625    20770956.5764   20770966.3704
        -0.000          -0.000
 -13497884.809 9 -10499100.20049  20552908.487    20552908.1184   20552917.4564
        -0.000          -0.000
  12303109.302 9   9585965.98746  23998746.833    23998746.7734   23998761.4874
        -0.000          -0.000
  -5009243.708 8  -3882832.10345  22211423.783    22211424.3914   22211434.0884
        -0.000          -0.000
 99  5 10 19 16 30.0010000  0  8  6  8 10  4 24  5  9 30             0.001000024
  -9647588.610 8  -7339630.50445  24262692.288    24262692.2984   24262706.5864
        -0.000          -0.000
   1787019.656 9   1393877.92747  22391028.648    22391028.2234   22391040.1194
        -0.000          -0.000
 -20105568.876 9 -15653126.10247  22231214.527    22231213.8314   22231226.5734
        -0.000          -0.000
  11361157.782 9   8853398.89047  22903036.522    22903036.7974   22903048.4524
        -0.000          -0.000
  -5270601.883 9  -4098995.74849  20777802.493    20777802.4374   20777812.2454
        -0.000          -0.000
 -13511894.804 9 -10510017.08849  20550242.510    20550242.1434   20550251.4754
        -0.000          -0.000
  12392655.082 9   9655741.67746  24015787.003    24015786.9664   24015801.7294
        -0.000          -0.000
  -5088918.690 8  -3944916.41845  22196261.931    22196262.1784   22196272.1874
        -0.000          -0.000
 99  5 10 19 17  0.0010000  0  8  6  8 10  4 24  5  9 30             0.001000019
  -9716158.482 8  -7393061.43945  24249643.726    24249643.7014   24249658.1084
        -0.000          -0.000
   1842213.390 9   1436885.89747  22401531.766    22401531.3624   22401543.2414
        -0.000          -0.000
 -20177923.412 9 -15709506.15447  22217445.791    22217445.1034   22217457.8584
        -0.000          -0.000
  11451935.657 9   8924134.78647  22920311.077    22920311.3284   22920323.0464
        -0.000          -0.000
  -5234242.043 9  -4070663.41649  20784721.561    20784721.5174   20784731.3204
        -0.000          -0.000
 -13525419.331 9 -10520555.69449  20547668.903    20547668.5254   20547677.8544
        -0.000          -0.000
  12482247.987 9   9725554.08946  24032836.154    24032836.1134   24032850.9534
        -0.000          -0.000
  -5168270.185 8  -4006748.68144  22181161.678    22181162.2434   22181172.3924
        -0.000          -0.000
 99  5 10 19 17 30.0010000  0  8  6  8 10  4 24  5  9 30             0.001000008
  -9784732.329 8  -7446495.45145  24236594.379    24236594.3454   24236608.8464
        -0.000          -0.000
   1897817.599 9   1480213.73947  22412113.020    22412112.6074   22412124.5044
        -0.000          -0.000
 -20249901.519 9 -15765592.87747  22203748.692    22203748.0154   22203760.8184
        -0.000          -0.000
  11542843.776 9   8994972.18347  22937610.460    22937610.7124   22937622.3724
        -0.000          -0.000
  -5197511.439 9  -4042042.18149  20791711.211    20791711.1584   20791720.9734
        -0.000          -0.000
 -13538439.493 9 -10530701.28749  20545191.266    20545190.8904   20545200.2074
        -0.000          -0.000
  12571884.067 9   9795400.15146  24049893.497    24049893.4354   24049908.3224
        -0.000          -0.000
  -5247292.425 8  -4068324.37944  22166124.116    22166123.8724   22166134.6654
        -0.000          -0.000
 99  5 10 19 18  0.0010000  0  8  6  8 10  4 24  5  9 30             0.000999971
  -9853316.269 8  -7499937.33645  24223543.090    24223543.0714   24223557.6484
        -0.000          -0.000
   1953820.309 9   1523852.07647  22422770.075    22422769.6504   22422781.6214
        -0.000          -0.000
 -20321491.617 9 -15821377.25847  22190125.438    22190124.7574   22190137.5644
        -0.000          -0.000
  11633855.779 9   9065890.51647  22954929.559    22954929.8234   22954941.4784
        -0.000          -0.000
  -5160430.207 9  -4013147.72749  20798767.542    20798767.4834   20798777.3044
        -0.000          -0.000
 -13550943.370 9 -10540444.58049  20542811.895    20542811.4984   20542820.8164
        -0.000          -0.000
  12661540.500 9   9865262.07246  24066954.720    24066954.6834   24066969.6614
        -0.000          -0.000
  -5326001.583 8  -4129656.12944  22151146.261    22151146.0014   22151156.6244
        -0.000          -0.000
 99  5 10 19 18 30.0010000  0  8  6  8 10  4 24  5  9 30             0.000999936
  -9921869.715 8  -7553355.44845  24210497.597    24210497.5724   24210512.2934
        -0.000          -0.000
   2010268.373 9   1567837.45047  22433511.890    22433511.4734   22433523.4384
        -0.000          -0.000
 -20392652.170 9 -15876826.92547  22176583.958    22176583.3014   22176596.0624
        -0.000          -0.000
  11725001.382 9   9136912.95647  22972274.074    22972274.3554   22972286.0274
        -0.000          -0.000
  -5122972.557 9  -3983959.95949  20805895.525    20805895.4584   20805905.2884
        -0.000          -0.000
 -13562891.921 9 -10549755.15049  20540538.139    20540537.7524   20540547.0784
        -0.000          -0.000
  12751260.895 9   9935173.84046  24084028.104    24084027.9944   24084043.1584
        -0.000          -0.000
  -5404369.039 8  -4190721.59844  22136233.433    22136233.8324   22136243.6064
        -0.000          -0.000
 99  5 10 19 19  0.0010000  0  8  6  8 10  4 24  5  9 30             0.000999940
  -9990332.974 8  -7606703.30245  24197469.307    24197469.2114   24197484.1354
        -0.000          -0.000
   2067190.665 9   1612192.34347  22444343.932    22444343.5144   22444355.4914
        -0.000          -0.000
 -20463350.854 9 -15931916.69747  22163130.384    22163129.7054   22163142.4294
        -0.000          -0.000
  11816305.315 9   9208058.76447  22989648.797    22989649.0574   22989660.7044
        -0.000          -0.000
  -5085126.128 9  -3954469.25349  20813097.472    20813097.4124   20813107.2364
        -0.000          -0.000
 -13574272.622 9 -10558623.23849  20538372.455    20538372.0714   20538381.4114
        -0.000          -0.000
  12841078.464 9  10005161.32946  24101119.992    24101119.9024   24101135.0774
        -0.000          -0.000
  -5482358.834 9  -4251492.84244  22121392.540    22121393.4674   22121402.5594
        -0.000          -0.000
 99  5 10 19 19 30.0010000  0  8  6  8 10  4 24  5  9 30             0.000999969
 -10058721.913 8  -7659993.23145  24184455.152    24184455.2404   24184469.9204
        -0.000          -0.000
   2124571.249 9   1656904.35647  22455263.158    22455262.7454   22455274.7334
        -0.000          -0.000
 -20533610.168 9 -15986664.10647  22149760.434    22149759.7304   22149772.4234
        -0.000          -0.000
  11907737.595 9   9279304.57747  23007047.948    23007048.2024   23007059.8114
        -0.000          -0.000
  -5046923.342 9  -3924700.86449  20820367.224    20820367.1604   20820376.9694
        -0.000          -0.000
 -13585116.867 9 -10567073.30949  20536308.876    20536308.4794   20536317.8234
        -0.000          -0.000
  12930962.652 9  10075200.73246  24118224.569    24118224.5114   24118239.5964
        -0.000          -0.000
  -5559995.464 9  -4311988.88744  22106618.884    22106619.5264   22106628.1224
        -0.000          -0.000
 99  5 10 19 20  0.0010000  0  8  6  8 10  4 24  5  9 30             0.000999989
 -10127118.893 8  -7713289.43145  24171439.514    24171439.4514   24171454.5644
        -0.000          -0.000
   2182355.328 9   1701930.77547  22466259.213    22466258.7734   22466270.8214
        -0.000          -0.000
 -20603524.198 9 -16041142.46547  22136456.167    22136455.4714   22136468.1464
        -0.000          -0.000
  11999241.891 9   9350606.51147  23024460.757    23024460.9974   23024472.5654
        -0.000          -0.000
  -5008425.277 9  -3894702.39649  20827693.176    20827693.1184   20827702.8884
        -0.000          -0.000
 -13595513.841 9 -10575174.85649  20534330.426    20534330.0394   20534339.3954
        -0.000          -0.000
  13020857.404 9  10145248.36346  24135331.144    24135331.0474   24135346.1464
        -0.000          -0.000
  -5637354.285 9  -4372268.45044  22091898.101    22091898.7784   22091907.4364
        -0.000          -0.000
 99  5 10 19 20 30.0010000  0  8  6  8 10  4 24  5  9 30             0.001000028
 -10195498.662 8  -7766572.23045  24158427.113    24158427.0804   24158442.1874
        -0.000          -0.000
   2240565.924 9   1747289.55847  22477336.402    22477335.9544   22477348.0894
        -0.000          -0.000
 -20673070.176 9 -16095334.02047  22123221.921    22123221.2234   22123233.9054
        -0.000          -0.000
  12090863.799 9   9422000.09147  23041895.978    23041896.2274   23041907.8194
        -0.000          -0.000
  -4969598.151 9  -3864447.51649  20835081.765    20835081.6934   20835091.4524
        -0.000          -0.000
 -13605437.868 9 -10582907.87349  20532441.955    20532441.5764   20532450.9594
        -0.000          -0.000
  13110803.849 9  10215336.27045  24152447.483    24152447.4494   24152462.5234
        -0.000          -0.000
  -5714392.912 9  -4432298.44844  22077238.240    22077238.9844   22077247.2914
        -0.000          -0.000
 99  5 10 19 21  0.0010000  0  8  6  8 10  4 24  5  9 30             0.001000061
 -10263906.689 8  -7819877.05645  24145409.474    24145409.3824   24145424.0954
        -0.000          -0.000
   2299159.267 9   1792946.57647  22488486.419    22488486.0054   22488498.2174
        -0.000          -0.000
 -20742269.845 9 -16149255.72647  22110053.600    22110052.9294   22110065.5444
        -0.000          -0.000
  12182567.641 9   9493457.50947  23059346.731    23059346.9664   23059358.6044
        -0.000          -0.000
  -4930463.957 9  -3833953.36549  20842528.784    20842528.7274   20842538.4634
        -0.000          -0.000
 -13614921.988 9 -10590298.10549  20530637.194    20530636.8164   20530646.2034
        -0.000          -0.000
  13200767.148 9  10285437.32445  24169567.072    24169567.0274   24169582.1984
        -0.000          -0.000
  -5791143.140 9  -4492103.84444  22062633.192    22062634.0264   22062642.1434
        -0.000          -0.000
 99  5 10 19 21 30.0010000  0  8  6  8 10  4 24  5  9 30             0.001000072
 -10332366.125 8  -7873221.92345  24132381.976    24132381.7004   24132396.6564
        -0.000          -0.000
   2358141.442 9   1838906.57947  22499710.419    22499709.9854   22499722.2714
        -0.000          -0.000
 -20811107.707 9 -16202895.51647  22096954.149    22096953.4684   22096965.9934
        -0.000          -0.000
  12274359.056 9   9564983.17047  23076814.192    23076814.4234   23076826.0644
        -0.000          -0.000
  -4890988.357 9  -3803193.18749  20850040.741    20850040.6774   20850050.4114
        -0.000          -0.000
 -13623934.358 9 -10597320.75049  20528922.236    20528921.8534   20528931.2354
        -0.000          -0.000
  13290758.225 9  10355560.01646  24186691.947    24186691.8124   24186707.1074
        -0.000          -0.000
  -5867604.423 8  -4551684.00444  22048082.961    22048083.8104   22048091.8044
        -0.000          -0.000
 99  5 10 19 22  0.0010000  0  8  6  8 10  4 24  5  9 30             0.001000063
 -10400867.270 8  -7926599.29945  24119346.559    24119346.5444   24119360.9264
        -0.000          -0.000
   2417509.633 9   1885167.36147  22511007.882    22511007.4344   22511019.8324
        -0.000          -0.000
 -20879563.981 9 -16256237.96847  22083927.299    22083926.6264   22083939.0544
        -0.000          -0.000
  12366248.813 9   9636585.46947  23094300.334    23094300.5584   23094312.1714
        -0.000          -0.000
  -4851143.341 9  -3772145.15349  20857623.009    20857622.9684   20857632.7044
        -0.000          -0.000
 -13632448.433 9 -10603955.11149  20527302.102    20527301.7354   20527311.0764
        -0.000          -0.000
  13380785.299 9  10425710.73146  24203823.636    24203823.5214   24203838.9754
        -0.000          -0.000
  -5943767.286 8  -4611031.65444  22033589.471    22033590.2044   22033598.1374
        -0.000          -0.000
 99  5 10 19 22 30.0010000  0  8  6  8 10  4 24  5  9 30             0.001000058
 -10469335.228 8  -7979950.85145  24106317.529    24106317.5144   24106331.6244
        -0.000          -0.000
   2477308.790 9   1931763.97747  22522387.394    22522386.9664   22522399.4024
        -0.000          -0.000
 -20947557.521 9 -16309219.83647  22070988.530    22070987.8734   22071000.2264
        -0.000          -0.000
  12458277.865 9   9708296.30047  23111812.995    23111813.2444   23111824.8424
        -0.000          -0.000
  -4810869.241 9  -3740762.76849  20865286.938    20865286.8924   20865296.6374
        -0.000          -0.000
 -13640386.469 9 -10610140.60649  20525791.591    20525791.2104   20525800.5334
        -0.000          -0.000
  13470883.705 9  10495917.03846  24220968.907    24220968.8424   24220984.3904
        -0.000          -0.000
  -6019562.966 8  -4670093.13944  22019165.784    22019166.4594   22019174.9244
        -0.000          -0.000
 99  5 10 19 23  0.0010000  0  8  6  8 10  4 24  5  9 30             0.001000035
 -10537800.606 8  -8033300.38245  24093288.952    24093288.9944   24093302.8154
        -0.000          -0.000
   2537509.333 9   1978673.34147  22533843.299    22533842.8554   22533855.2944
        -0.000          -0.000
 -21015118.148 9 -16361864.37847  22058132.162    22058131.4734   22058143.7864
        -0.000          -0.000
  12550411.423 9   9780088.57747  23129345.528    23129345.7874   23129357.3874
        -0.000          -0.000
  -4770195.031 9  -3709068.60949  20873027.009    20873026.9644   20873036.7214
        -0.000          -0.000
 -13647775.544 9 -10615898.34249  20524385.522    20524385.1444   20524394.4284
        -0.000          -0.000
  13561014.284 9  10566148.40346  24238120.389    24238120.3884   24238135.9484
        -0.000          -0.000
  -6095028.671 8  -4728897.50444  22004804.759    22004805.4134   22004814.3814
        -0.000          -0.000
 99  5 10 19 23 30.0010000  0  8  6  8 10  4 24  5  9 30             0.001000028
 -10606217.899 8  -8086612.45245  24080269.496    24080269.5374   24080283.0254
        -0.000          -0.000
   2598149.277 9   2025925.12247  22545382.830    22545382.3864   22545394.8594
        -0.000          -0.000
 -21082208.028 9 -16414142.11147  22045365.331    22045364.6424   22045376.8964
        -0.000          -0.000
  12642698.425 9   9852000.40547  23146907.279    23146907.5394   23146919.1194
        -0.000          -0.000
  -4729097.195 9  -3677044.35749  20880847.700    20880847.6404   20880857.4054
        -0.000          -0.000
 -13654578.460 9 -10621199.33249  20523090.978    20523090.6004   20523099.8694
        -0.000          -0.000
  13651210.005 9  10636430.52546  24255284.278    24255284.2764   24255299.8794
        -0.000          -0.000
  -6170122.119 8  -4787411.77544  21990514.589    21990514.7334   21990524.5584
        -0.000          -0.000
 99  5 10 19 24  0.0010000  0  8  6  8 10  4 24  5  9 30             0.001000027
 -10674604.004 8  -8139900.20045  24067255.930    24067255.9964   24067269.2294
        -0.000          -0.000
   2659200.237 9   2073497.16247  22557000.578    22557000.1534   22557012.6444
        -0.000          -0.000
 -21148852.982 9 -16466073.14747  22032683.154    22032682.4614   22032694.6354
        -0.000          -0.000
  12735105.474 9   9924005.78747  23164491.927    23164492.1954   23164503.7504
        -0.000          -0.000
  -4687639.853 9  -3644739.97049  20888736.814    20888736.7484   20888746.4964
        -0.000          -0.000
 -13660836.418 9 -10626075.67849  20521900.152    20521899.7644   20521909.0304
        -0.000          -0.000
  13741423.571 9  10706726.54446  24272451.573    24272451.5614   24272467.3244
        -0.000          -0.000
  -6244858.879 8  -4845648.16744  21976292.381    21976293.1104   21976302.7724
        -0.000          -0.000
 99  5 10 19 24 30.0010000  0  8  6  8 10  4 24  5  9 30             0.001000034
 -10742975.123 8  -8193176.30345  24054245.239    24054245.3334   24054258.1414
        -0.000          -0.000
   2720672.458 9   2121397.45647  22568698.465    22568698.0354   22568710.5504
        -0.000          -0.000
 -21215054.699 9 -16517658.80947  22020085.322    22020084.6434   22020096.7504
        -0.000          -0.000
  12827632.393 9   9996104.56947  23182099.335    23182099.6164   23182111.1854
        -0.000          -0.000
  -4645847.452 9  -3612174.49849  20896689.679    20896689.6334   20896699.3654
        -0.000          -0.000
 -13666559.556 9 -10630535.28649  20520811.093    20520810.6984   20520819.9604
        -0.000          -0.000
  13831650.098 9  10777032.67346  24289621.333    24289621.3344   24289637.1604
        -0.000          -0.000
  -6319234.936 8  -4903603.44744  21962138.898    21962139.3694   21962149.7814
        -0.000          -0.000
 99  5 10 19 25  0.0010000  0  8  6  8 10  4 24  5  9 30             0.001000041
 -10811364.271 8  -8246466.45445  24041231.113    24041231.4724   24041243.8504
        -0.000          -0.000
   2782541.071 9   2169606.62147  22580471.758    22580471.3254   22580483.9224
        -0.000          -0.000
 -21280829.368 9 -16568911.71047  22007568.787    22007568.1084   22007580.1424
        -0.000          -0.000
  12920262.811 9  10068284.01047  23199726.504    23199726.7834   23199738.3274
        -0.000          -0.000
  -4603748.264 9  -3579369.97349  20904700.966    20904700.9074   20904710.6364
        -0.000          -0.000
 -13671770.787 9 -10634596.00749  20519819.422    20519819.0154   20519828.2834
        -0.000          -0.000
  13921870.295 9  10847333.87746  24306789.978    24306789.9894   24306805.8414
        -0.000          -0.000
  -6393269.536 8  -4961292.66445  21948050.573    21948051.0284   21948061.7294
        -0.000          -0.000
 99  5 10 19 25 30.0010000  0  8  6  8 10  4 24  5  9 30             0.001000058
 -10879726.560 8  -8299735.66945  24028222.042    24028222.3384   24028234.6974
        -0.000          -0.000
   2844838.754 9   2218150.13347  22592326.698    22592326.2484   22592338.9214
        -0.000          -0.000
 -21346135.030 9 -16619799.15547  21995141.443    21995140.7714   21995152.7574
        -0.000          -0.000
  13013014.449 9  10140557.90447  23217376.723    23217376.9644   23217388.4364
        -0.000          -0.000
  -4561304.099 9  -3546296.63349  20912777.846    20912777.7754   20912787.5244
        -0.000          -0.000
 -13676431.998 9 -10638228.14149  20518932.423    20518932.0194   20518941.2924
        -0.000          -0.000
  14012102.026 9  10917644.04846  24323960.815    24323960.7414   24323976.6974
        -0.000          -0.000
  -6466920.309 8  -5018682.82745  21934035.458    21934036.1824   21934046.2444
        -0.000          -0.000
 99  5 10 19 26  0.0010000  0  8  6  8 10  4 24  5  9 30             0.001000052
 -10948095.435 8  -8353010.02244  24015211.594    24015212.2654   24015224.4194
        -0.000          -0.000
   2907525.681 9   2266996.95647  22604255.699    22604255.2594   22604268.0674
        -0.000          -0.000
 -21411006.894 9 -16670348.57547  21982796.645    21982795.9874   21982807.9484
        -0.000          -0.000
  13105841.407 9  10212890.47847  23235041.211    23235041.4254   23235052.8654
        -0.000          -0.000
  -4518529.801 9  -3512966.04549  20920917.550    20920917.4904   20920927.2324
        -0.000          -0.000
 -13680569.371 9 -10641452.09049  20518145.141    20518144.7444   20518154.0004
        -0.000          -0.000
  14102305.132 9  10987931.91646  24341126.150    24341126.0684   24341142.1134
        -0.000          -0.000
  -6540218.752 9  -5075798.46945  21920087.369    21920087.8294   21920097.7764
        -0.000          -0.000
 99  5 10 19 26 30.0010000  0  8  6  8 10  4 24  5  9 30             0.001000042
 -11016438.993 8  -8406264.63844  24002205.994    24002206.6194   24002218.7854
        -0.000          -0.000
   2970621.552 9   2316162.42947  22616262.511    22616262.0874   22616275.0234
        -0.000          -0.000
 -21475414.040 9 -16720535.88547  21970540.323    21970539.6724   21970551.5864
        -0.000          -0.000
  13198772.975 9  10285304.58146  23252725.628    23252725.8634   23252737.2504
        -0.000          -0.000
  -4475375.628 9  -3479339.44849  20929129.551    20929129.4954   20929139.2334
        -0.000          -0.000
 -13684160.448 9 -10644250.35549  20517461.813    20517461.4174   20517470.6804
        -0.000          -0.000
  14192505.353 9  11058217.54446  24358290.951    24358290.7964   24358306.9054
        -0.000          -0.000
  -6613142.751 9  -5132622.34245  21906210.633    21906210.9754   21906220.6984
        -0.000          -0.000
 99  5 10 19 27  0.0010000  0  8  6  8 10  4 24  5  9 30             0.001000039
 -11084721.390 8  -8459471.57345  23989212.076    23989212.5154   23989225.4504
        -0.000          -0.000
   3034133.141 9   2365651.84247  22628348.452    22628348.0304   22628361.1134
        -0.000          -0.000
 -21539338.277 9 -16770346.90048  21958375.956    21958375.2934   21958387.1324
        -0.000          -0.000
  13291822.787 9  10357810.82146  23270432.570    23270432.8044   23270444.0844
        -0.000          -0.000
  -4431817.824 9  -3445398.33449  20937418.334    20937418.2674   20937427.9994
        -0.000          -0.000
 -13687188.559 9 -10646609.94449  20516885.609    20516885.2164   20516894.4914
        -0.000          -0.000
  14282709.783 9  11128506.45046  24375456.522    24375456.3724   24375472.5644
        -0.000          -0.000
  -6685675.804 9  -5189141.58545  21892408.234    21892408.5404   21892418.0204
        -0.000          -0.000
 99  5 10 19 27 30.0010000  0  8  6  8 10  4 24  5  9 30             0.001000028
 -11152974.031 8  -8512655.33445  23976223.927    23976224.4244   23976237.4094
        -0.000          -0.000
   3098027.297 9   2415439.34847  22640507.193    22640506.7444   22640520.0044
        -0.000          -0.000
 -21602826.453 9 -16819818.13348  21946294.556    21946293.8774   21946305.6544
        -0.000          -0.000
  13384951.316 9  10430378.38446  23288154.426    23288154.6564   23288165.8904
        -0.000          -0.000
  -4387905.527 9  -3411180.98549  20945774.598    20945774.5424   20945784.2934
        -0.000          -0.000
 -13689702.805 9 -10648569.11849  20516407.144    20516406.7474   20516416.0644
        -0.000          -0.000
  14372883.879 9  11198771.70646  24392616.325    24392616.1834   24392632.4464
        -0.000          -0.000
  -6757853.327 9  -5245383.77045  21878673.436    21878673.7604   21878682.8394
        -0.000          -0.000
 99  5 10 19 28  0.0010000  0  8  6  8 10  4 24  5  9 30             0.001000035
 -11221186.584 8  -8565807.84345  23963243.431    23963243.6624   23963257.4774
        -0.000          -0.000
   3162315.669 9   2465534.03747  22652740.932    22652740.4744   22652753.8354
        -0.000          -0.000
 -21665864.490 9 -16868938.61048  21934298.759    21934298.0924   21934309.8094
        -0.000          -0.000
  13478184.114 9  10503027.20146  23305896.150    23305896.3434   23305907.5824
        -0.000          -0.000
  -4343647.033 9  -3376693.87449  20954196.728    20954196.6614   20954206.4444
        -0.000          -0.000
 -13691703.425 9 -10650128.06949  20516026.483    20516026.0914   20516035.4194
        -0.000          -0.000
  14463051.390 9  11269031.84046  24409774.815    24409774.6544   24409791.0554
        -0.000          -0.000
  -6829662.482 9  -5301338.90145  21865008.707    21865009.2404   21865017.8674
        -0.000          -0.000
 99  5 10 19 28 30.0010000  0  8  6  8 10  4 24  5  9 30             0.001000056
 -11289380.360 8  -8618945.71945  23950266.521    23950266.8764   23950280.5604
        -0.000          -0.000
   3226978.604 9   2515920.59247  22665045.963    22665045.5554   22665058.9134
        -0.000          -0.000
 -21728465.146 9 -16917718.27548  21922386.198    21922385.5484   21922397.1714
        -0.000          -0.000
  13571505.864 9  10575745.32246  23323654.734    23323654.9694   23323666.1344
        -0.000          -0.000
  -4299082.484 9  -3341968.27949  20962677.082    20962676.9914   20962686.8254
        -0.000          -0.000
 -13693212.591 9 -10651304.06349  20515739.302    20515738.8904   20515748.2434
        -0.000          -0.000
  14553202.135 9  11339278.88946  24426930.058    24426929.9084   24426946.5514
        -0.000          -0.000
  -6901120.983 9  -5357020.81845  21851410.645    21851411.1524   21851419.8704
        -0.000          -0.000
 99  5 10 19 29  0.0010000  0  8  6  8 10  4 24  5  9 30             0.001000040
 -11357644.213 8  -8672138.19645  23937276.382    23937276.6794   23937290.5534
        -0.000          -0.000
   3291930.153 9   2566532.03747  22677405.911    22677405.5094   22677418.9764
        -0.000          -0.000
 -21790706.389 9 -16966217.88148  21910542.094    21910541.4284   21910552.9884
        -0.000          -0.000
  13664832.132 9  10648466.99446  23341414.277    23341414.5344   23341425.5694
        -0.000          -0.000
  -4254299.296 9  -3307072.31149  20971199.062    20971198.9914   20971208.8464
        -0.000          -0.000
 -13694298.227 9 -10652150.03549  20515532.690    20515532.3034   20515541.6854
        -0.000          -0.000
  14643269.279 9  11409460.78046  24444069.407    24444069.3334   24444086.1474
        -0.000          -0.000
  -6972298.040 9  -5412483.42445  21837866.144    21837866.6704   21837875.2894
        -0.000          -0.000
 99  5 10 19 29 30.0010000  0  8  6  8 10  4 24  5  9 30             0.001000037
 -11425907.158 8  -8725329.97245  23924286.363    23924286.7204   23924300.4964
        -0.000          -0.000
   3357251.644 9   2617431.74947  22689836.265    22689835.8834   22689849.4124
        -0.000          -0.000
 -21852500.944 9 -17014369.42048  21898782.944    21898782.2594   21898793.8074
        -0.000          -0.000
  13758240.025 9  10721252.23646  23359189.328    23359189.6494   23359200.6434
        -0.000          -0.000
  -4209213.473 9  -3271940.52849  20979778.586    20979778.5114   20979788.3794
        -0.000          -0.000
 -13694875.009 9 -10652599.50049  20515422.949    20515422.5594   20515431.9534
        -0.000          -0.000
  14733346.374 9  11479650.42746  24461210.677    24461210.6354   24461227.5254
        -0.000          -0.000
  -7043101.320 9  -5467654.76445  21824392.719    21824393.1174   21824401.9344
        -0.000          -0.000
 99  5 10 19 30  0.0010000  0  8  6  8 10  4 24  5  9 30             0.001000053
 -11494156.504 8  -8778511.13945  23911299.042    23911299.2624   23911313.0484
        -0.000          -0.000
   3422951.231 9   2668626.08747  22702338.618    22702338.1884   22702351.8084
        -0.000          -0.000
 -21913817.308 9 -17062148.33548  21887114.791    21887114.0964   21887125.6444
        -0.000          -0.000
  13851742.217 9  10794110.95246  23376982.228    23376982.4614   23376993.5274
        -0.000          -0.000
  -4163794.888 9  -3236549.44249  20988421.495    20988421.4084   20988431.2864
        -0.000          -0.000
 -13694910.330 9 -10652627.04249  20515416.245    20515415.8334   20515425.2524
        -0.000          -0.000
  14823458.759 9  11549867.56846  24478358.735    24478358.6554   24478375.7034
        -0.000          -0.000
  -7113510.684 8  -5522519.15645  21810994.219    21810994.6934   21811003.5444
        -0.000          -0.000
 99  5 10 19 30 30.0010000  0  8  6  8 10  4 24  5  9 30             0.001000073
 -11562400.454 8  -8831688.08945  23898312.756    23898312.9224   23898326.5524
        -0.000          -0.000
   3489024.734 9   2720111.78647  22714912.108    22714911.6544   22714925.3314
        -0.000          -0.000
 -21974651.354 9 -17109551.42248  21875538.397    21875537.7114   21875549.2574
        -0.000          -0.000
  13945322.179 9  10867030.29946  23394790.015    23394790.1944   23394801.1224
        -0.000          -0.000
  -4118036.212 9  -3200893.34849  20997129.099    20997129.0104   20997138.9024
        -0.000          -0.000
 -13694381.405 9 -10652214.91149  20515516.914    20515516.5134   20515525.9234
        -0.000          -0.000
  14913606.178 9  11620112.01146  24495513.431    24495513.3094   24495530.4994
        -0.000          -0.000
  -7183522.659 8  -5577073.90645  21797671.223    21797671.6574   21797680.5074
        -0.000          -0.000
 99  5 10 19 31  0.0010000  0  8  6  8 10  4 24  5  9 30             0.001000070
 -11630658.169 8  -8884875.78145  23885323.775    23885323.9544   23885337.4964
        -0.000          -0.000
   3555444.496 9   2771867.28847  22727551.500    22727551.0834   22727564.7134
        -0.000          -0.000
 -22035035.405 9 -17156603.86648  21864047.623    21864046.9164   21864058.4944
        -0.000          -0.000
  14038938.860 9  10939978.24546  23412604.743    23412604.9314   23412615.8384
        -0.000          -0.000
  -4071962.115 9  -3164991.47549  21005896.765    21005896.6704   21005906.5824
        -0.000          -0.000
 -13693314.223 9 -10651383.36249  20515720.006    20515719.5934   20515729.0164
        -0.000          -0.000
  15003748.127 9  11690352.17146  24512667.039    24512666.9134   24512684.3014
        -0.000          -0.000
  -7253161.367 8  -5631337.78545  21784419.167    21784419.4914   21784428.2904
        -0.000          -0.000
 99  5 10 19 31 30.0010000  0  8  6  8 10  4 24  5  9 30             0.001000066
 -11698884.447 8  -8938038.97945  23872340.790    23872340.9424   23872354.3634
        -0.000          -0.000
   3622246.967 9   2823921.00647  22740263.708    22740263.3034   22740276.9054
        -0.000          -0.000
 -22094932.012 9 -17203276.48448  21852649.601    21852648.8864   21852660.4734
        -0.000          -0.000
  14132619.186 9  11012975.77346  23430431.618    23430431.8304   23430442.6914
        -0.000          -0.000
  -4025534.436 9  -3128814.08349  21014731.651    21014731.5644   21014741.4904
        -0.000          -0.000
 -13691679.831 9 -10650109.83349  20516031.010    20516030.6174   20516040.0514
        -0.000          -0.000
  15093902.580 9  11760602.08146  24529823.103    24529823.0074   24529840.3864
        -0.000          -0.000
  -7322405.770 8  -5685294.43045  21771242.178    21771242.4834   21771251.0314
        -0.000          -0.000
 99  5 10 19 32  0.0010000  0  8  6  8 10  4 24  5  9 30             0.001000053
 -11767077.432 8  -8991176.24645  23859364.137    23859364.2764   23859377.4744
        -0.000          -0.000
   3689422.674 9   2876265.56447  22753046.952    22753046.5434   22753060.0654
        -0.000          -0.000
 -22154345.672 9 -17249572.77148  21841343.478    21841342.7834   21841354.4184
        -0.000          -0.000
  14226353.584 9  11086015.44346  23448268.775    23448268.8414   23448279.9254
        -0.000          -0.000
  -3978761.742 9  -3092367.84549  21023632.199    21023632.1124   21023642.0534
        -0.000          -0.000
 -13689480.772 9 -10648396.29749  20516449.502    20516449.0884   20516458.5254
        -0.000          -0.000
  15184048.841 9  11830845.60346  24546977.640    24546977.5204   24546994.9154
        -0.000          -0.000
  -7391266.827 8  -5738952.37145  21758138.246    21758138.6654   21758146.7844
        -0.000          -0.000
 99  5 10 19 32 30.0010000  0  8  6  8 10  4 24  5  9 30             0.001000040
 -11835216.819 8  -9044271.72745  23846397.657    23846397.7034   23846410.9514
        -0.000          -0.000
   3756976.012 9   2928904.37947  22765902.155    22765901.7144   22765915.2074
        -0.000          -0.000
 -22213260.312 9 -17295480.22248  21830132.305    21830131.6054   21830143.2924
        -0.000          -0.000
  14320154.318 9  11159106.81446  23466118.516    23466118.6244   23466129.6284
        -0.000          -0.000
  -3931640.229 9  -3055649.80849  21032599.139    21032599.0744   21032608.9994
        -0.000          -0.000
 -13686714.511 9 -10646240.79149  20516975.934    20516975.5234   20516984.9734
        -0.000          -0.000
  15274178.945 9  11901076.54346  24564129.144    24564129.0574   24564146.3234
        -0.000          -0.000
  -7459732.138 8  -5792301.92345  21745109.710    21745109.9944   21745118.6754
        -0.000          -0.000
 99  5 10 19 33  0.0010000  0  8  6  8 10  4 24  5  9 30             0.001000039
 -11903297.976 8  -9097321.83145  23833442.205    23833442.2614   23833455.5074
        -0.000          -0.000
   3824899.762 9   2981831.81647  22778827.768    22778827.3464   22778840.8034
        -0.000          -0.000
 -22271666.861 9 -17340991.75548  21819017.816    21819017.1094   21819028.8704
        -0.000          -0.000
  14414033.825 9  11232259.54746  23483983.222    23483983.4174   23483994.4584
        -0.000          -0.000
  -3884170.188 9  -3018660.18949  21041632.416    21041632.3414   21041642.2714
        -0.000          -0.000
 -13683397.182 9 -10643655.88349  20517607.196    20517606.7764   20517616.2644
        -0.000          -0.000
  15364284.411 9  11971288.26946  24581275.890    24581275.8054   24581293.1864
        -0.000          -0.000
  -7527793.140 8  -5845336.43245  21732158.196    21732158.4694   21732167.3204
        -0.000          -0.000
 99  5 10 19 33 30.0010000  0  8  6  8 10  4 24  5  9 30             0.001000033
 -11971357.566 8  -9150355.14545  23820490.932    23820490.9074   23820504.2354
        -0.000          -0.000
   3893161.048 9   3035022.26947  22791817.640    22791817.2234   22791830.6234
        -0.000          -0.000
 -22329577.442 9 -17386116.81048  21807997.708    21807996.9984   21808008.8404
        -0.000          -0.000
  14507974.672 9  11305460.08246  23501859.571    23501859.8014   23501871.0164
        -0.000          -0.000
  -3836374.075 9  -2981416.48749  21050727.733    21050727.6644   21050737.6004
        -0.000          -0.000
 -13679554.242 9 -10640661.40549  20518338.489    20518338.0904   20518347.5844
        -0.000          -0.000
  15454335.370 9  12041457.52246  24598412.232    24598412.1734   24598429.6884
        -0.000          -0.000
  -7595472.636 8  -5898073.66145  21719279.336    21719279.5454   21719288.5194
        -0.000          -0.000
 99  5 10 19 34  0.0010000  0  8  6  8 10  4 24  5  9 30             0.001000021
 -12039419.811 8  -9203390.53245  23807539.120    23807539.0144   23807552.1064
        -0.000          -0.000
   3961741.689 9   3088461.57247  22804868.209    22804867.7284   22804881.1474
        -0.000          -0.000
 -22387001.126 9 -17430862.47748  21797070.273    21797069.5534   21797081.4624
        -0.000          -0.000
  14601978.525 9  11378709.70646  23519747.842    23519748.0574   23519759.5624
        -0.000          -0.000
  -3788283.271 9  -2943943.16149  21059879.132    21059879.0694   21059888.9964
        -0.000          -0.000
 -13675190.521 9 -10637261.12949  20519168.875    20519168.4754   20519177.9864
        -0.000          -0.000
  15544325.939 9  12111579.70146  24615537.057    24615537.0084   24615554.6244
        -0.000          -0.000
  -7662761.145 8  -5950506.23445  21706474.860    21706475.0304   21706484.3104
        -0.000          -0.000
 99  5 10 19 34 30.0010000  0  8  6  8 10  4 24  5  9 30             0.001000018
 -12107477.609 8  -9256422.46445  23794588.025    23794587.9504   23794601.0114
        -0.000          -0.000
   4030655.157 9   3142160.21247  22817982.160    22817981.6504   22817995.0404
        -0.000          -0.000
 -22443924.438 9 -17475218.24048  21786238.060    21786237.3324   21786249.2994
        -0.000          -0.000
  14696064.933 9  11452023.66346  23537651.938    23537652.1734   23537663.8514
        -0.000          -0.000
  -3739892.214 9  -2906235.87349  21069087.663    21069087.6044   21069097.5404
        -0.000          -0.000
 -13670298.089 9 -10633448.86949  20520099.872    20520099.4814   20520108.9934
        -0.000          -0.000
  15634272.160 9  12181667.32646  24632653.543    24632653.4384   24632671.0454
        -0.000          -0.000
  -7729640.213 8  -6002619.74645  21693748.244    21693748.3714   21693757.8734
        -0.000          -0.000
 99  5 10 19 35  0.0010000  0  8  6  8 10  4 24  5  9 30             0.001000010
 -12175558.194 8  -9309472.14545  23781632.643    23781632.5084   23781645.4464
        -0.000          -0.000
   4099896.911 9   3196114.65847  22831158.579    22831158.1284   22831171.4224
        -0.000          -0.000
 -22500380.019 9 -17519209.53648  21775494.805    21775494.0894   21775506.1074
        -0.000          -0.000
  14790213.864 9  11525386.34046  23555567.887    23555568.1194   23555579.9824
        -0.000          -0.000
  -3691209.395 9  -2868301.23549  21078351.714    21078351.6414   21078361.5964
        -0.000          -0.000
 -13664888.560 9 -10629233.67949  20521129.297    20521128.8884   20521138.4124
        -0.000          -0.000
  15724160.625 9  12251709.96546  24649759.155    24649759.0354   24649776.5994
        -0.000          -0.000
  -7796119.360 8  -6054421.63145  21681097.585    21681097.7684   21681107.4384
        -0.000          -0.000
 99  5 10 19 35 30.0010000  0  8  6  8 10  4 24  5  9 30             0.001000006
 -12243639.707 8  -9362522.56545  23768677.211    23768677.0674   23768689.8394
        -0.000          -0.000
   4169478.737 9   3250334.10447  22844399.699    22844399.2914   22844412.5594
        -0.000          -0.000
 -22556358.916 9 -17562829.39148  21764842.307    21764841.5744   21764853.6204
        -0.000          -0.000
  14884436.340 9  11598806.33146  23573497.844    23573498.0274   23573510.1444
        -0.000          -0.000
  -3642211.511 9  -2830121.09849  21087675.732    21087675.6564   21087685.6434
        -0.000          -0.000
 -13658941.455 9 -10624599.60249  20522261.023    20522260.6254   20522270.1594
        -0.000          -0.000
  15814017.942 9  12321728.29746  24666858.676    24666858.5994   24666876.1354
        -0.000          -0.000
  -7862176.331 8  -6105894.54745  21668527.177    21668527.3914   21668537.3184
        -0.000          -0.000
 99  5 10 19 36  0.0010000  0  8  6  8 10  4 24  5  9 30             0.001000022
 -12311709.292 8  -9415563.70745  23755723.893    23755723.7844   23755736.4924
        -0.000          -0.000
   4239408.358 9   3304824.56147  22857707.028    22857706.6094   22857719.8434
        -0.000          -0.000
 -22611858.946 9 -17606076.10248  21754280.908    21754280.2154   21754292.2594
        -0.000          -0.000
  14978740.836 9  11672290.20746  23591443.443    23591443.6134   23591455.9014
        -0.000          -0.000
  -3592905.387 9  -2791700.77149  21097058.426    21097058.3404   21097068.3534
        -0.000          -0.000
 -13652453.580 9 -10619544.13949  20523495.647    20523495.2404   20523504.7714
        -0.000          -0.000
  15903859.600 9  12391734.44146  24683955.192    24683954.9434   24683972.6134
        -0.000          -0.000
  -7927801.041 8  -6157030.64345  21656038.998    21656039.3774   21656049.2774
        -0.000          -0.000
 99  5 10 19 36 30.0010000  0  8  6  8 10  4 24  5  9 30             0.001000015
 -12379813.182 8  -9468631.55845  23742764.042    23742763.9674   23742776.5014
        -0.000          -0.000
   4309620.304 9   3359535.01047  22871068.096    22871067.6694   22871080.9864
        -0.000          -0.000
 -22666932.203 9 -17648990.25948  21743800.768    21743800.0904   21743812.0984
        -0.000          -0.000
  15073052.252 9  11745779.49646  23609390.350    23609390.5894   23609402.9854
        -0.000          -0.000
  -3543337.783 9  -2753076.70049  21106490.861    21106490.7704   21106500.8074
        -0.000          -0.000
 -13645487.820 9 -10614116.29849  20524821.193    20524820.8024   20524830.3454
        -0.000          -0.000
  15993621.201 9  12461678.20446  24701036.480    24701036.3484   24701054.0534
        -0.000          -0.000
  -7993062.042 8  -6207883.33145  21643620.099    21643620.3644   21643630.4764
        -0.000          -0.000
 99  5 10 19 37  0.0010000  0  8  6  8 10  4 24  5  9 30             0.001000010
 -12447897.168 8  -9521683.89545  23729807.764    23729807.8774   23729820.4224
        -0.000          -0.000
   4380151.989 9   3414494.60747  22884489.975    22884489.5874   22884502.9584
        -0.000          -0.000
 -22721523.056 9 -17691528.51748  21733412.441    21733411.7424   21733423.7264
        -0.000          -0.000
  15167414.230 9  11819308.18046  23627346.900    23627347.1284   23627359.7184
        -0.000          -0.000
  -3493466.652 9  -2714216.11049  21115980.995    21115980.9214   21115990.9734
        -0.000          -0.000
 -13637980.271 9 -10608266.28049  20526249.867    20526249.4834   20526259.0174
        -0.000          -0.000
  16083344.396 9  12531592.03346  24718110.567    24718110.3984   24718128.1344
        -0.000          -0.000
  -8057911.018 8  -6258414.95145  21631279.620    21631279.8764   21631290.1024
        -0.000          -0.000
 99  5 10 19 37 30.0010000  0  8  6  8 10  4 24  5  9 30             0.001000009
 -12515950.239 7  -9574712.13645  23716857.389    23716857.3334   23716870.0074
        -0.000          -0.000
   4450989.374 9   3469692.41046  22897969.983    22897969.5954   22897983.0314
        -0.000          -0.000
 -22775614.751 9 -17733677.82948  21723119.115    21723118.4084   21723130.3294
        -0.000          -0.000
  15261823.269 9  11892873.54546  23645312.351    23645312.6014   23645325.2934
        -0.000          -0.000
  -3443315.019 9  -2675136.94848  21125524.612    21125524.5434   21125534.5814
        -0.000          -0.000
 -13629930.150 9 -10601993.48549  20527781.794    20527781.4124   20527790.9254
        -0.000          -0.000
  16173016.816 9  12601466.30646  24735174.931    24735174.7544   24735192.5304
        -0.000          -0.000
  -8122361.451 8  -6308636.03145  21619014.992    21619015.1974   21619025.6114
        -0.000          -0.000
 99  5 10 19 38  0.0010000  0  8  6  8 10  4 24  5  9 30             0.001000014
 -12583961.277 7  -9627707.61445  23703914.688    23703914.7514   23703928.0534
        -0.000          -0.000
   4522154.551 9   3525145.63546  22911512.341    22911511.9504   22911525.4934
        -0.000          -0.000
 -22829193.812 9 -17775427.68248  21712923.342    21712922.6464   21712934.4744
        -0.000          -0.000
  15356288.826 9  11966482.93446  23663288.622    23663288.8764   23663301.7174
        -0.000          -0.000
  -3392884.220 9  -2635840.25848  21135121.323    21135121.2504   21135131.2564
        -0.000          -0.000
 -13621319.800 9 -10595284.14749  20529420.344    20529419.9484   20529429.4534
        -0.000          -0.000
  16262632.710 9  12671296.51446  24752228.574    24752228.3984   24752246.2634
        -0.000          -0.000
  -8186413.230 8  -6358546.47945  21606826.299    21606826.6564   21606836.7244
        -0.000          -0.000
 99  5 10 19 38 30.0010000  0  8  6  8 10  4 24  5  9 30             0.001000004
 -12651948.351 7  -9680684.45645  23690976.510    23690976.5614   23690990.2964
        -0.000          -0.000
   4593624.561 9   3580836.38746  22925112.733    22925112.3244   22925125.9224
        -0.000          -0.000
 -22882281.095 9 -17816794.32648  21702821.134    21702820.4204   21702832.2014
        -0.000          -0.000
  15450777.030 9  12040109.98246  23681269.163    23681269.3984   23681282.3724
        -0.000          -0.000
  -3342185.518 9  -2596334.81048  21144769.033    21144768.9514   21144778.9314
        -0.000          -0.000
 -13612165.352 9 -10588150.83649  20531162.419    20531162.0124   20531171.5094
        -0.000          -0.000
  16352160.557 9  12741058.11646  24769265.378    24769265.1854   24769283.2044
        -0.000          -0.000
  -8250084.985 8  -6408160.79345  21594709.902    21594710.2234   21594720.0954
        -0.000          -0.000
 99  5 10 19 39  0.0010000  0  8  6  8 10  4 24  5  9 30             0.001000015
 -12719864.012 8  -9733605.62145  23678052.044    23678052.0174   23678066.1874
        -0.000          -0.000
   4665452.139 9   3636805.75446  22938781.195    22938780.7824   22938794.4054
        -0.000          -0.000
 -22934829.178 9 -17857740.82148  21692821.598    21692820.8834   21692832.5534
        -0.000          -0.000
  15545345.476 9  12113799.54646  23699265.052    23699265.2704   23699278.3484
        -0.000          -0.000
  -3291163.067 9  -2556577.09348  21154478.356    21154478.2794   21154488.2134
        -0.000          -0.000
 -13602420.576 9 -10580557.53649  20533016.814    20533016.3994   20533025.8934
        -0.000          -0.000
  16441652.122 9  12810791.44846  24786295.328    24786295.0454   24786313.2434
        -0.000          -0.000
  -8313318.858 8  -6457433.90445  21582676.895    21582677.2234   21582687.1124
        -0.000          -0.000
 99  5 10 19 39 30.0010000  0  8  6  8 10  4 24  5  9 30             0.001000017
 -12787779.603 8  -9786526.72645  23665127.770    23665127.7834   23665142.0674
        -0.000          -0.000
   4737573.554 9   3693004.09646  22952505.565    22952505.1314   22952518.8444
        -0.000          -0.000
 -22986903.769 9 -17898318.35248  21682912.173    21682911.4634   21682923.0074
        -0.000          -0.000
  15639931.428 9  12187502.74846  23717264.155    23717264.4094   23717277.6284
        -0.000          -0.000
  -3239874.732 9  -2516612.19548  21164238.248    21164238.1434   21164248.0524
        -0.000          -0.000
 -13592171.830 9 -10572571.52649  20534967.128    20534966.7184   20534976.2004
        -0.000          -0.000
  16531051.911 8  12880453.26245  24803307.673    24803307.5174   24803325.6604
        -0.000          -0.000
  -8376171.698 8  -6506410.10345  21570716.512    21570716.9234   21570726.6664
        -0.000          -0.000
 99  5 10 19 40  0.0010000  0  8  6  8 10  4 24  5  9 30             0.001000035
 -12855669.828 8  -9839428.12345  23652208.878    23652208.6964   23652222.9744
        -0.000          -0.000
   4810020.497 9   3749456.08746  22966291.881    22966291.4374   22966305.1654
        -0.000          -0.000
 -23038460.747 9 -17938492.55148  21673101.223    21673100.5154   21673111.9894
        -0.000          -0.000
  15734570.261 9  12261247.17546  23735273.445    23735273.7114   23735286.9074
        -0.000          -0.000
  -3188281.060 9  -2476409.37448  21174056.242    21174056.1564   21174066.0004
        -0.000          -0.000
 -13581385.407 9 -10564166.54849  20537019.728    20537019.3174   20537028.7884
        -0.000          -0.000
  16620411.005 8  12950083.35145  24820312.308    24820312.2454   24820330.3874
        -0.000          -0.000
  -8438589.098 8  -6555047.00745  21558839.039    21558839.3764   21558849.0524
        -0.000          -0.000
 99  5 10 19 40 30.0010000  0  8  6  8 10  4 24  5  9 30             0.001000038
 -12923585.463 8  -9892349.29545  23639285.170    23639285.0734   23639299.0214
        -0.000          -0.000
   4882731.846 9   3806114.09646  22980128.517    22980128.1084   22980141.8254
        -0.000          -0.000
 -23089535.876 9 -17978291.28048  21663381.916    21663381.2034   21663392.6524
        -0.000          -0.000
  15829208.774 9  12334991.33846  23753282.680    23753282.9544   23753296.1584
        -0.000          -0.000
  -3136422.760 9  -2436000.35048  21183924.617    21183924.5344   21183934.3314
        -0.000          -0.000
 -13570107.155 9 -10555378.32849  20539165.935    20539165.5424   20539174.9994
        -0.000          -0.000
  16709689.954 8  13019650.99045  24837301.771    24837301.7434   24837319.9614
        -0.000          -0.000
  -8500600.364 8  -6603367.45145  21547038.731    21547039.0754   21547048.7974
        -0.000          -0.000
 99  5 10 19 41  0.0010000  0  8  6  8 10  4 24  5  9 30             0.001000044
 -12991512.706 8  -9945279.51045  23626359.205    23626359.1614   23626372.8524
        -0.000          -0.000
   4955732.923 9   3862997.86846  22994020.303    22994019.8714   22994033.6774
        -0.000          -0.000
 -23140093.596 9 -18017686.83848  21653761.104    21653760.3844   21653771.7814
        -0.000          -0.000
  15923878.646 9  12408759.93846  23771297.848    23771298.1624   23771311.4954
        -0.000          -0.000
  -3084279.598 9  -2395369.35448  21193847.128    21193847.0454   21193856.8294
        -0.000          -0.000
 -13558310.263 9 -10546185.97049  20541410.830    20541410.4184   20541419.9014
        -0.000          -0.000
  16798922.085 8  13089182.16245  24854282.299    24854282.3284   24854300.6724
        -0.000          -0.000
  -8562171.918 8  -6651345.26345  21535322.046    21535322.3474   21535331.9384
        -0.000          -0.000
 99  5 10 19 41 30.0010000  0  8  6  8 10  4 24  5  9 30             0.001000040
 -13059467.240 9  -9998231.01146  23613428.152    23613428.1334   23613441.5144
        -0.000          -0.000
   5029011.155 9   3920097.60646  23007964.806    23007964.2984   23007978.2524
        -0.000          -0.000
 -23190134.502 9 -18056679.67948  21644238.609    21644237.8764   21644249.2334
        -0.000          -0.000
  16018553.720 9  12482532.59546  23789314.066    23789314.3804   23789327.7684
        -0.000          -0.000
  -3031881.205 9  -2354539.47648  21203818.219    21203818.1324   21203827.8854
        -0.000          -0.000
 -13546000.690 9 -10536594.12249  20543753.271    20543752.8664   20543762.3674
        -0.000          -0.000
  16888085.799 8  13158660.00545  24871249.744    24871249.6834   24871268.3144
        -0.000          -0.000
  -8623316.291 8  -6698990.20645  21523686.633    21523686.8314   21523696.4424
        -0.000          -0.000
 99  5 10 19 42  0.0010000  0  8  6  8 10  4 24  5  9 30             0.001000026
 -13127421.576 9 -10051182.35746  23600497.127    23600497.1054   23600510.1704
        -0.000          -0.000
   5102587.133 9   3977429.34546  23021965.919    23021965.4554   23021979.4124
        -0.000          -0.000
 -23239641.281 9 -18095256.31648  21634817.743    21634817.0184   21634828.3404
        -0.000          -0.000
  16113237.956 9  12556312.38946  23807331.982    23807332.2874   23807345.6924
        -0.000          -0.000
  -2979204.482 9  -2313492.71748  21213842.321    21213842.2334   21213851.9894
        -0.000          -0.000
 -13533146.892 9 -10526578.20149  20546199.289    20546198.8924   20546208.3894
        -0.000          -0.000
  16977189.054 8  13228090.72745  24888205.538    24888205.3444   24888224.5844
        -0.000          -0.000
  -8684012.398 8  -6746285.84445  21512136.435    21512136.7884   21512146.3074
        -0.000          -0.000
 99  5 10 19 42 30.0010000  0  8  6  8 10  4 24  5  9 30             0.001000012
 -13195352.454 9 -10104115.41646  23587570.473    23587570.4344   23587583.2974
        -0.000          -0.000
   5176476.714 9   4035005.46246  23036026.718    23036026.2914   23036040.3034
        -0.000          -0.000
 -23288608.927 9 -18133412.85648  21625499.471    21625498.7294   21625510.0394
        -0.000          -0.000
  16207951.698 9  12630115.19646  23825355.494    23825355.7294   23825369.1824
        -0.000          -0.000
  -2926237.351 9  -2272219.66948  21223921.654    21223921.5654   21223931.3224
        -0.000          -0.000
 -13519731.705 9 -10516124.83749  20548752.139    20548751.7354   20548761.2454
        -0.000          -0.000
  17066229.576 8  13297472.55045  24905149.378    24905149.0944   24905168.6884
        -0.000          -0.000
  -8744255.057 8  -6793228.14145  21500672.660    21500672.9344   21500682.4824
        -0.000          -0.000
 99  5 10 19 43  0.0010000  0  8  6  8 10  4 24  5  9 30             0.001000001
 -13263262.905 9 -10157032.55946  23574647.711    23574647.7514   23574660.3664
        -0.000          -0.000
   5250665.421 9   4092814.64846  23050144.450    23050144.0274   23050158.1214
        -0.000          -0.000
 -23337043.144 9 -18171153.73548  21616282.664    21616281.9394   21616293.2584
        -0.000          -0.000
  16302697.320 9  12703942.81046  23843385.009    23843385.2684   23843398.7784
        -0.000          -0.000
  -2872998.265 9  -2230734.70348  21234052.730    21234052.6314   21234062.4184
        -0.000          -0.000
 -13505766.717 9 -10505243.05649  20551409.605    20551409.2154   20551418.7074
        -0.000          -0.000
  17155186.742 8  13366789.42545  24922077.571    24922077.4544   24922097.0174
        -0.000          -0.000
  -8804071.333 8  -6839838.19045  21489289.978    21489290.1954   21489299.8104
        -0.000          -0.000
 99  5 10 19 43 30.0010000  0  8  6  8 10  4 24  5  9 30             0.000999997
 -13331121.128 9 -10209909.01146  23561734.819    23561734.8304   23561747.2204
        -0.000          -0.000
   5325146.150 9   4150851.38546  23064317.786    23064317.3854   23064331.5644
        -0.000          -0.000
 -23384939.247 9 -18208475.30948  21607168.301    21607167.5794   21607178.8764
        -0.000          -0.000
  16397490.676 9  12777807.61746  23861423.635    23861423.9404   23861437.4774
        -0.000          -0.000
  -2819487.220 9  -2189037.82148  21244235.539    21244235.4424   21244245.2484
        -0.000          -0.000
 -13491240.754 9 -10493924.15549  20554173.853    20554173.4424   20554182.9014
        -0.000          -0.000
  17244048.755 8  13436032.17345  24938987.719    24938987.4774   24939006.9934
        -0.000          -0.000
  -8863443.276 8  -6886102.00145  21477991.817    21477991.9864   21478001.7174
        -0.000          -0.000
 99  5 10 19 44  0.0010000  0  8  6  8 10  4 24  5  9 30             0.001000001
 -13398935.938 9 -10262751.63546  23548830.203    23548830.1244   23548842.2634
        -0.000          -0.000
   5399897.077 9   4209098.66146  23078542.552    23078542.1184   23078556.3644
        -0.000          -0.000
 -23432325.745 9 -18245399.79148  21598150.910    21598150.1624   21598161.4454
        -0.000          -0.000
  16492335.945 9  12851712.91746  23879472.207    23879472.5044   23879485.8634
        -0.000          -0.000
  -2765723.798 9  -2147144.28348  21254466.355    21254466.2594   21254476.1134
        -0.000          -0.000
 -13476177.144 9 -10482186.31149  20557040.415    20557040.0174   20557049.4414
        -0.000          -0.000
  17332794.920 8  13505184.63045  24955875.884    24955875.6374   24955895.2374
        -0.000          -0.000
  -8922377.361 8  -6932024.63245  21466776.829    21466777.0004   21466786.8234
        -0.000          -0.000
 99  5 10 19 44 30.0010000  0  8  6  8 10  4 24  5  9 30             0.001000007
 -13466738.130 9 -10315584.42346  23535927.904    23535927.8564   23535939.7634
        -0.000          -0.000
   5474892.684 9   4267536.59546  23092813.891    23092813.4684   23092827.7404
        -0.000          -0.000
 -23479217.178 9 -18281938.50848  21589227.676    21589226.9494   21589238.2484
        -0.000          -0.000
  16587235.829 9  12925660.73746  23897531.117    23897531.3434   23897544.8084
        -0.000          -0.000
  -2711726.184 9  -2105068.25648  21264741.719    21264741.6364   21264751.5624
        -0.000          -0.000
 -13460589.048 9 -10470039.78049  20560006.733    20560006.3344   20560015.7474
        -0.000          -0.000
  17421410.545 8  13574235.37345  24972739.182    24972738.8524   24972758.6504
        -0.000          -0.000
  -8980873.629 8  -6977606.09945  21455645.234    21455645.3664   21455655.4244
        -0.000          -0.000
 99  5 10 19 45  0.0010000  0  8  6  8 10  4 24  5  9 30             0.001000010
 -13534531.054 9 -10368409.98646  23523027.291    23523027.2074   23523038.9774
        -0.000          -0.000
   5550138.786 9   4326169.71146  23107132.877    23107132.4554   23107146.7934
        -0.000          -0.000
 -23525598.418 9 -18318079.67748  21580401.581    21580400.8494   21580412.1634
        -0.000          -0.000
  16682180.245 9  12999643.26745  23915598.494    23915598.7854   23915612.2294
        -0.000          -0.000
  -2657480.737 9  -2062799.11548  21275064.264    21275064.1804   21275074.1644
        -0.000          -0.000
 -13444472.797 9 -10457481.69649  20563073.592    20563073.2014   20563082.6214
        -0.000          -0.000
  17509902.942 8  13643190.09445  24989579.039    24989578.5554   24989598.5564
        -0.000          -0.000
  -9038899.279 8  -7022820.85346  21444603.325    21444603.5604   21444613.4294
        -0.000          -0.000
 99  5 10 19 45 30.0010000  0  8  6  8 10  4 24  5  9 30             0.001000019
 -13602296.198 9 -10421213.91246  23510131.952    23510131.9644   23510143.4544
        -0.000          -0.000
   5625666.891 9   4385022.58146  23121505.554    23121505.1054   23121519.5414
        -0.000          -0.000
 -23571447.515 9 -18353806.19048  21571676.721    21571676.0004   21571687.3144
        -0.000          -0.000
  16777169.718 9  13073660.92045  23933674.519    23933674.7714   23933688.0234
        -0.000          -0.000
  -2602954.804 9  -2020311.41748  21285440.166    21285440.0874   21285450.1454
        -0.000          -0.000
 -13427800.286 9 -10444490.16349  20566246.301    20566245.8944   20566255.3364
        -0.000          -0.000
  17598304.914 8  13712074.38745  25006401.679    25006401.3084   25006421.0794
        -0.000          -0.000
  -9096407.848 9  -7067632.69946  21433659.909    21433660.1264   21433669.8904
        -0.000          -0.000
 99  5 10 19 46  0.0010000  0  8  6  8 10  4 24  5  9 30             0.000999989
 -13670118.892 9 -10474062.68446  23497225.664    23497225.6204   23497237.0904
        -0.000          -0.000
   5701426.702 9   4444055.98246  23135922.340    23135921.8644   23135936.3764
        -0.000          -0.000
 -23616824.229 9 -18389164.61148  21563041.763    21563041.0484   21563052.3644
        -0.000          -0.000
  16872126.973 9  13147653.46745  23951744.422    23951744.7514   23951757.7764
        -0.000          -0.000
  -2548193.359 9  -1977640.20248  21295860.922    21295860.8524   21295870.9524
        -0.000          -0.000
 -13410633.287 9 -10431113.31649  20569513.067    20569512.6734   20569522.1394
        -0.000          -0.000
  17686565.990 8  13780848.83445  25023197.438    25023197.1404   25023217.1564
        -0.000          -0.000
  -9153479.383 9  -7112104.01246  21422799.725    21422799.9244   21422809.5454
        -0.000          -0.000
 99  5 10 19 46 30.0010000  0  8  6  8 10  4 24  5  9 30             0.000999970
 -13737917.429 9 -10526892.62645  23484323.932    23484323.8214   23484335.3204
        -0.000          -0.000
   5777499.675 9   4503333.40346  23150398.763    23150398.2824   23150412.8974
        -0.000          -0.000
 -23661629.501 9 -18424077.76248  21554515.547    21554514.8104   21554526.1394
        -0.000          -0.000
  16967114.727 9  13221669.78745  23969820.238    23969820.5584   23969833.3694
        -0.000          -0.000
  -2493101.180 9  -1934711.27548  21306344.671    21306344.5854   21306354.7364
        -0.000          -0.000
 -13392873.352 9 -10417274.43749  20572892.669    20572892.2634   20572901.7524
        -0.000          -0.000
  17774779.821 8  13849586.49845  25039984.337    25039984.1794   25040003.9594
        -0.000          -0.000
  -9210046.466 9  -7156182.24546  21412035.410    21412035.6464   21412045.1284
        -0.000          -0.000
 99  5 10 19 47  0.0010000  0  8  6  8 10  4 24  5  9 30             0.000999963
 -13805652.855 9 -10579673.39045  23471434.162    23471433.9944   23471445.4894
        -0.000          -0.000
   5853894.245 9   4562861.42446  23164936.308    23164935.8684   23164950.4774
        -0.000          -0.000
 -23705835.115 9 -18458523.64048  21546103.402    21546102.6934   21546114.0264
        -0.000          -0.000
  17062119.031 9  13295698.99145  23987899.192    23987899.4624   23987912.1334
        -0.000          -0.000
  -2437676.306 9  -1891523.10548  21316891.728    21316891.6334   21316901.8204
        -0.000          -0.000
 -13374514.577 9 -10402968.93249  20576386.280    20576385.8644   20576395.3624
        -0.000          -0.000
  17862948.685 8  13918289.12545  25056762.715    25056762.4844   25056782.4384
        -0.000          -0.000
  -9266132.001 9  -7199885.24046  21401362.701    21401362.9954   21401372.4204
        -0.000          -0.000
 99  5 10 19 47 30.0010000  0  8  6  8 10  4 24  5  9 30             0.000999961
 -13873345.721 8 -10632420.99645  23458552.462    23458552.2534   23458563.7924
        -0.000          -0.000
   5930561.335 9   4622601.79346  23179525.769    23179525.2884   23179540.0014
        -0.000          -0.000
 -23749482.389 9 -18492534.45648  21537797.551    21537796.8444   21537808.1734
        -0.000          -0.000
  17157122.088 9  13369727.22745  24005977.953    24005978.2174   24005990.7374
        -0.000          -0.000
  -2381971.675 9  -1848116.94048  21327491.992    21327491.9344   21327502.1234
        -0.000          -0.000
 -13355590.618 9 -10388223.02649  20579987.433    20579987.0114   20579996.5194
        -0.000          -0.000
  17951040.220 8  13986931.50145  25073526.352    25073526.2484   25073546.0264
        -0.000          -0.000
  -9321793.342 9  -7243257.67946  21390770.609    21390770.9374   21390780.3564
        -0.000          -0.000
 99  5 10 19 48  0.0010000  0  8  6  8 10  4 24  5  9 30             0.000999967
 -13941003.652 9 -10685141.36245  23445677.366    23445677.1574   23445688.9624
        -0.000          -0.000
   6007484.783 9   4682541.92946  23194163.984    23194163.4444   23194178.2614
        -0.000          -0.000
 -23792576.745 9 -18526114.42648  21529596.940    21529596.2214   21529607.5484
        -0.000          -0.000
  17252128.341 9  13443757.94646  24024057.267    24024057.6004   24024069.9084
        -0.000          -0.000
  -2326019.120 9  -1804517.58648  21338139.477    21338139.3934   21338149.6134
        -0.000          -0.000
 -13336113.127 9 -10373045.79549  20583693.923    20583693.5054   20583703.0014
        -0.000          -0.000
  18039046.135 8  14055507.14045  25090273.780    25090273.5444   25090293.3154
        -0.000          -0.000
  -9377044.192 9  -7286310.26246  21380256.761    21380257.0664   21380266.4474
        -0.000          -0.000
 99  5 10 19 48 30.0010000  0  8  6  8 10  4 24  5  9 30             0.000999984
 -14008599.223 8 -10737813.12845  23432814.095    23432813.8914   23432826.0404
        -0.000          -0.000
   6084657.061 9   4742675.96046  23208849.638    23208849.0784   23208863.9644
        -0.000          -0.000
 -23835095.314 9 -18559245.73348  21521505.878    21521505.1424   21521516.5014
        -0.000          -0.000
  17347146.927 9  13517798.27946  24042138.921    24042139.2134   24042151.3604
        -0.000          -0.000
  -2269826.780 9  -1760731.39148  21348832.634    21348832.5504   21348842.7294
        -0.000          -0.000
 -13316073.591 9 -10357430.61049  20587507.372    20587506.9554   20587516.4234
        -0.000          -0.000
  18126966.196 8  14124015.86545  25107004.819    25107004.6414   25107024.3084
        -0.000          -0.000
  -9431859.942 9  -7329023.82046  21369825.710    21369826.0174   21369835.2914
        -0.000          -0.000
 99  5 10 19 49  0.0010000  0  8  6  8 10  4 24  5  9 30             0.000999999
 -14076159.455 8 -10790457.36645  23419957.521    23419957.3114   23419969.7214
        -0.000          -0.000
   6162054.293 9   4802985.27646  23223578.009    23223577.4524   23223592.4114
        -0.000          -0.000
 -23877058.067 9 -18591943.92948  21513520.566    21513519.8404   21513531.2324
        -0.000          -0.000
  17442168.874 9  13591841.23045  24060221.192    24060221.4254   24060233.4814
        -0.000          -0.000
  -2213418.135 9  -1716776.64248  21359566.915    21359566.8204   21359576.9674
        -0.000          -0.000
 -13295489.753 9 -10341391.29049  20591424.414    20591423.9944   20591433.4244
        -0.000          -0.000
  18214766.276 9  14192431.11645  25123713.147    25123712.9744   25123732.4834
        -0.000          -0.000
  -9486229.708 9  -7371389.85546  21359479.593    21359479.9004   21359489.0874
        -0.000          -0.000
 99  5 10 19 49 30.0010000  0  8  6  8 10  4 24  5  9 30             0.000999994
 -14143736.221 8 -10843114.47145  23407097.799    23407097.5044   23407110.3744
        -0.000          -0.000
   6239650.044 9   4863449.28646  23238344.135    23238343.5894   23238358.6544
        -0.000          -0.000
 -23918508.970 9 -18624243.27548  21505632.641    21505631.9214   21505643.3514
        -0.000          -0.000
  17537176.662 9  13665873.16246  24078300.828    24078301.0384   24078312.9474
        -0.000          -0.000
  -2156817.319 9  -1672672.15348  21370337.745    21370337.6434   21370347.7704
        -0.000          -0.000
 -13274389.379 9 -10324949.47649  20595439.708    20595439.2744   20595448.7064
        -0.000          -0.000
  18302421.547 9  14260733.53245  25140393.897    25140393.7074   25140413.0854
        -0.000          -0.000
  -9540153.218 9  -7413408.15646  21349218.336    21349218.6244   21349227.7824
        -0.000          -0.000
 99  5 10 19 50  0.0010000  0  8  6  8 10  4 24  5  9 30             0.001000001
 -14211276.004 8 -10895742.75345  23394245.145    23394244.9024   23394258.1384
        -0.000          -0.000
   6317520.199 9   4924127.12646  23253162.545    23253162.0114   23253177.1664
        -0.000          -0.000
 -23959379.439 9 -18656090.34148  21497855.226    21497854.5054   21497865.9274
        -0.000          -0.000
  17632216.988 9  13739930.42546  24096386.569    24096386.7874   24096398.6644
        -0.000          -0.000
  -2099940.428 9  -1628352.54348  21381161.133    21381161.0304   21381171.1254
        -0.000          -0.000
 -13252707.365 9 -10308054.44249  20599565.672    20599565.2474   20599574.6624
        -0.000          -0.000
  18389983.095 9  14328962.90745  25157056.794    25157056.5124   25157075.9734
        -0.000          -0.000
  -9593562.727 9  -7455025.92846  21339054.883    21339055.1104   21339064.2964
        -0.000          -0.000
 99  5 10 19 50 30.0010000  0  8  6  8 10  4 24  5  9 30             0.001000006
 -14278793.057 8 -10948353.34345  23381396.882    23381396.6764   23381410.1474
        -0.000          -0.000
   6395640.616 9   4984999.97346  23268028.577    23268028.0294   23268043.2704
        -0.000          -0.000
 -23999685.435 9 -18687497.55448  21490185.161    21490184.4454   21490195.8674
        -0.000          -0.000
  17727269.977 9  13813997.54246  24114474.744    24114474.9464   24114486.8814
        -0.000          -0.000
  -2042791.579 9  -1583821.01548  21392036.268    21392036.1514   21392046.1804
        -0.000          -0.000
 -13230472.009 9 -10290728.22549  20603796.958    20603796.5284   20603805.9344
        -0.000          -0.000
  18477420.374 9  14397095.42845  25173695.928    25173695.5924   25173715.2114
        -0.000          -0.000
  -9646480.232 9  -7496260.32846  21328984.947    21328985.1814   21328994.4034
        -0.000          -0.000
 99  5 10 19 51  0.0010000  0  8  6  8 10  4 24  5  9 30             0.000999984
 -14346350.321 8 -11000995.23545  23368541.052    23368540.8264   23368554.4574
        -0.000          -0.000
   6473970.164 9   5046035.76446  23282934.341    23282933.8104   23282949.0914
        -0.000          -0.000
 -24039492.134 9 -18718515.70748  21482610.145    21482609.4594   21482620.8564
        -0.000          -0.000
  17822282.701 9  13888033.29246  24132555.241    24132555.3804   24132567.4784
        -0.000          -0.000
  -1985435.629 9  -1539128.10848  21402950.817    21402950.6854   21402960.6534
        -0.000          -0.000
 -13207754.706 9 -10273026.47049  20608119.961    20608119.5164   20608128.9394
        -0.000          -0.000
  18564685.021 9  14465093.45245  25190302.131    25190301.8764   25190321.5584
        -0.000          -0.000
  -9698963.167 9  -7537156.09946  21318997.716    21318997.9754   21319007.1654
        -0.000          -0.000
 99  5 10 19 51 30.0010000  0  8  6  8 10  4 24  5  9 30             0.000999928
 -14413961.799 8 -11053679.38245  23355675.028    23355674.8534   23355688.3594
        -0.000          -0.000
   6552488.590 9   5107218.74646  23297876.092    23297875.5764   23297890.9764
        -0.000          -0.000
 -24078820.949 9 -18749161.47748  21475126.095    21475125.4004   21475136.7894
        -0.000          -0.000
  17917225.012 9  13962014.18046  24150622.329    24150622.4404   24150634.6194
        -0.000          -0.000
  -1927910.123 9  -1494303.08548  21413897.563    21413897.4374   21413907.3884
        -0.000          -0.000
 -13184590.310 9 -10254976.33349  20612528.035    20612527.5944   20612537.0044
        -0.000          -0.000
  18651765.222 9  14532947.74845  25206873.246    25206872.9454   25206892.6854
        -0.000          -0.000
  -9751041.477 9  -7577736.58246  21309087.558    21309087.8064   21309097.0204
        -0.000          -0.000
 99  5 10 19 52  0.0010000  0  8  6  8 10  4 24  5  9 30             0.000999921
 -14481490.879 8 -11106299.32645  23342824.765    23342824.6094   23342838.0594
        -0.000          -0.000
   6631314.414 9   5168641.24546  23312876.343    23312875.8324   23312891.2664
        -0.000          -0.000
 -24117522.197 9 -18779318.24248  21467761.485    21467760.7794   21467772.1454
        -0.000          -0.000
  18012227.467 9  14036041.90546  24168700.814    24168700.9464   24168713.1914
        -0.000          -0.000
  -1870103.014 9  -1449258.62948  21424897.956    21424897.8224   21424907.7434
        -0.000          -0.000
 -13160852.105 9 -10236479.07049  20617045.327    20617044.8774   20617054.2884
        -0.000          -0.000
  18738783.093 8  14600753.45045  25223432.448    25223432.2814   25223452.0084
        -0.000          -0.000
  -9802583.702 9  -7617899.34546  21299279.454    21299279.7054   21299288.8684
        -0.000          -0.000
 99  5 10 19 52 30.0010000  0  8  6  8 10  4 24  5  9 30             0.000999950
 -14548952.775 9 -11158866.94046  23329987.375    23329987.2064   23330000.5124
        -0.000          -0.000
   6710413.692 9   5230276.84946  23327928.634    23327928.1614   23327943.5414
        -0.000          -0.000
 -24155614.804 9 -18809000.73648  21460512.657    21460511.9374   21460523.3174
        -0.000          -0.000
  18107265.024 9  14110097.00546  24186786.005    24186786.0864   24186798.3504
        -0.000          -0.000
  -1812054.981 9  -1404026.43948  21435944.136    21435944.0054   21435953.8914
        -0.000          -0.000
 -13136569.929 9 -10217557.93549  20621666.095    20621665.6484   20621675.0544
        -0.000          -0.000
  18825720.144 8  14668496.17745  25239976.275    25239976.0174   25239995.9434
        -0.000          -0.000
  -9853599.584 9  -7657651.96146  21289571.507    21289571.7564   21289580.8864
        -0.000          -0.000
 99  5 10 19 53  0.0010000  0  7  6  8 10  4 24  5 30                0.000999956
 -14616364.559 9 -11211395.49046  23317159.442    23317159.3964   23317172.5734
        -0.000          -0.000
   6789757.727 9   5292103.16346  23343027.473    23343027.0184   23343042.4384
        -0.000          -0.000
 -24193131.865 9 -18838234.75548  21453373.350    21453372.6194   21453384.0254
        -0.000          -0.000
  18202309.653 9  14184157.61146  24204872.500    24204872.5854   24204884.8354
        -0.000          -0.000
  -1753789.265 9  -1358624.63148  21447031.764    21447031.6294   21447041.5374
        -0.000          -0.000
 -13111741.160 9 -10198210.88549  20626390.873    20626390.4274   20626399.8524
        -0.000          -0.000
  -9904098.068 9  -7697001.42247  21279962.056    21279962.2994   21279971.3874
        -0.000          -0.000
 99  5 10 19 53 30.0010000  0  7  6  8 10  4 24  5 30                0.000999984
 -14683779.157 9 -11263926.24846  23304331.059    23304330.8974   23304343.9974
        -0.000          -0.000
   6869270.582 9   5354061.02846  23358158.437    23358157.9334   23358173.4044
        -0.000          -0.000
 -24230124.350 9 -18867060.01448  21446333.822    21446333.1134   21446344.5384
        -0.000          -0.000
  18297303.802 9  14258178.90146  24222949.348    24222949.5004   24222961.7744
        -0.000          -0.000
  -1695345.819 9  -1313084.33348  21458153.198    21458153.0604   21458162.9924
        -0.000          -0.000
 -13086397.523 9 -10178462.63749  20631213.614    20631213.1784   20631222.6254
        -0.000          -0.000
  -9954136.952 9  -7735992.73747  21270439.934    21270440.1914   21270449.3294
        -0.000          -0.000
 99  5 10 19 54  0.0010000  0  7  6  8 10  4 24  5 30                0.000999988
 -14751176.220 9 -11316443.34546  23291505.966    23291505.8164   23291518.6334
        -0.000          -0.000
   6948969.425 9   5416163.82346  23373324.756    23373324.2944   23373339.8214
        -0.000          -0.000
 -24266572.488 9 -18895461.10748  21439397.922    21439397.2044   21439408.6414
        -0.000          -0.000
  18392269.164 9  14332177.73046  24241020.681    24241020.8804   24241033.2514
        -0.000          -0.000
  -1636688.837 9  -1267377.64448  21469315.291    21469315.1624   21469325.1144
        -0.000          -0.000
 -13060510.170 9 -10158290.71749  20636139.825    20636139.3784   20636148.8674
        -0.000          -0.000
 -10003700.896 9  -7774613.97946  21261008.162    21261008.4214   21261017.6014
        -0.000          -0.000
 99  5 10 19 54 30.0010000  0  7  6  8 10  4 24  5 30                0.000999969
 -14818556.751 9 -11368947.56845  23278683.999    23278683.8734   23278696.4724
        -0.000          -0.000
   7028855.809 9   5478412.74046  23388526.724    23388526.2304   23388541.8724
        -0.000          -0.000
 -24302486.817 9 -18923446.24748  21432563.570    21432562.8664   21432574.3124
        -0.000          -0.000
  18487210.970 9  14406158.20146  24259087.589    24259087.8824   24259100.2884
        -0.000          -0.000
  -1577797.593 9  -1221488.41548  21480521.936    21480521.8244   21480531.7794
        -0.000          -0.000
 -13034069.500 9 -10137687.63949  20641171.297    20641170.8654   20641180.3854
        -0.000          -0.000
 -10052790.628 9  -7812865.69046  21251666.560    21251666.8674   21251676.1594
        -0.000          -0.000
 99  5 10 19 55  0.0010000  0  7  6  8 10  4 24  5 30                0.000999955
 -14885887.157 9 -11421412.72745  23265871.474    23265871.3024   23265883.7974
        -0.000          -0.000
   7108962.838 9   5540833.59546  23403770.699    23403770.2274   23403785.9304
        -0.000          -0.000
 -24337815.133 9 -18950974.75248  21425840.757    21425840.0504   21425851.4884
        -0.000          -0.000
  18582180.726 8  14480160.47446  24277159.864    24277160.2324   24277172.6184
        -0.000          -0.000
  -1518621.617 9  -1175377.30948  21491782.808    21491782.6784   21491792.6354
        -0.000          -0.000
 -13007028.534 9 -10116616.79849  20646317.059    20646316.6224   20646326.1704
        -0.000          -0.000
 -10101367.658 9  -7850717.89846  21242422.562    21242422.8774   21242432.2504
        -0.000          -0.000
 99  5 10 19 55 30.0010000  0  7  6  8 10  4 24  5 30                0.000999955
 -14953175.531 9 -11473845.13445  23253066.994    23253066.8174   23253079.2624
        -0.000          -0.000
   7189288.049 9   5603424.45746  23419056.125    23419055.6664   23419071.6194
        -0.000          -0.000
 -24372537.349 9 -18978030.97348  21419233.287    21419232.5844   21419244.0124
        -0.000          -0.000
  18677180.778 8  14554186.33245  24295237.834    24295237.9874   24295250.5764
        -0.000          -0.000
  -1459169.731 9  -1129051.21648  21503096.175    21503096.0564   21503106.0314
        -0.000          -0.000
 -12979414.996 9 -10095099.80449  20651571.784    20651571.3454   20651580.9304
        -0.000          -0.000
 -10149434.423 9  -7888172.49546  21233275.640    21233275.9594   21233285.4754
        -0.000          -0.000
 99  5 10 19 56  0.0010000  0  7  6  8 10  4 24  5 30                0.000999958
 -15020456.088 9 -11526271.41545  23240264.002    23240263.8604   23240276.3154
        -0.000          -0.000
   7269809.359 9   5666168.12146  23434378.889    23434378.4174   23434394.4064
        -0.000          -0.000
 -24406677.724 9 -19004633.80448  21412736.567    21412735.8724   21412747.2654
        -0.000          -0.000
  18772180.100 8  14628211.61845  24313315.658    24313315.7624   24313328.5754
        -0.000          -0.000
  -1399489.147 9  -1082546.91448  21514453.083    21514452.9544   21514462.9614
        -0.000          -0.000
 -12951276.852 9 -10073174.02149  20656926.348    20656925.9084   20656935.5154
        -0.000          -0.000
 -10197003.193 9  -7925239.05146  21224223.557    21224223.8864   21224233.3644
        -0.000          -0.000
 99  5 10 19 56 30.0010000  0  7  6  8 10  4 24  5 30                0.000999952
 -15087744.497 9 -11578703.85245  23227459.452    23227458.9424   23227471.9744
        -0.000          -0.000
   7350495.362 9   5729040.11046  23449733.049    23449732.5974   23449748.6574
        -0.000          -0.000
 -24440253.937 9 -19030797.03448  21406347.151    21406346.4654   21406357.8394
        -0.000          -0.000
  18867158.434 8  14702220.58645  24331389.458    24331389.6694   24331402.5634
        -0.000          -0.000
  -1339620.819 9  -1035896.32348  21525845.657    21525845.5274   21525855.5654
        -0.000          -0.000
 -12922642.614 9 -10050861.67549  20662375.308    20662374.8664   20662384.4604
        -0.000          -0.000
 -10244086.996 9  -7961927.71446  21215263.799    21215264.0784   21215273.5344
        -0.000          -0.000
 99  5 10 19 57  0.0010000  0  7  6  8 10  4 24  5 30                0.000999940
 -15155020.029 9 -11631126.14954  23214657.261    23214657.1594          0.0005
        -0.000          -0.000
   7431356.704 9   5792048.73246  23465120.546    23465120.1054   23465136.2264
        -0.000          -0.000
 -24473252.804 9 -19056510.38348  21400067.671    21400066.9724   21400078.3124
        -0.000          -0.000
  18962111.630 8  14776209.95145  24349458.403    24349458.5514   24349471.9314
        -0.000          -0.000
  -1279565.833 9   -989100.28048  21537273.812    21537273.6764   21537283.7424
        -0.000          -0.000
 -12893500.107 9 -10028153.27749  20667920.997    20667920.5564   20667930.1454
        -0.000          -0.000
 -10290672.172 9  -7998227.84447  21206398.921    21206399.1864   21206408.5674
        -0.000          -0.000
 99  5 10 19 57 30.0010000  0  7  6  8 10  4 24  5 30                0.000999951
 -15222234.613 9 -11683500.79954  23201866.702    23201866.1724          0.0005
        -0.000          -0.000
   7512448.519 9   5855236.93446  23480551.949    23480551.5624   23480567.6624
        -0.000          -0.000
 -24505643.137 9 -19081749.54948  21393903.970    21393903.2694   21393914.5814
        -0.000          -0.000
  19057074.428 8  14850206.77845  24367529.181    24367529.3114   24367542.9834
        -0.000          -0.000
  -1219293.498 9   -942134.87748  21548743.312    21548743.1754   21548753.2484
        -0.000          -0.000
 -12863796.572 9 -10005007.71549  20673573.433    20673572.9934   20673582.5744
        -0.000          -0.000
 -10336709.181 9  -8034100.82547  21197638.398    21197638.6504   21197647.8904
        -0.000          -0.000
 99  5 10 19 58  0.0010000  0  7  6  8 10  4 24  5 30                0.000999962
 -15289431.197 8 -11735861.70154  23189079.609    23189078.9864   23189094.4265
        -0.000          -0.000
   7593735.412 9   5918577.15846  23496020.475    23496020.0534   23496036.1824
        -0.000          -0.000
 -24537487.609 9 -19106563.36848  21387844.150    21387843.4544   21387854.7264
        -0.000          -0.000
  19152002.321 8  14924176.42045  24385593.243    24385593.3164   24385607.4334
        -0.000          -0.000
  -1158844.272 9   -895031.64348  21560246.463    21560246.3324   21560256.4244
        -0.000          -0.000
 -12833559.802 9  -9981446.64749  20679327.338    20679326.9004   20679336.4894
        -0.000          -0.000
 -10382255.083 9  -8069591.12147  21188971.309    21188971.5704   21188980.7014
        -0.000          -0.000
 99  5 10 19 58 30.0010000  0  7  6  8 10  4 24  5 30                0.000999979
 -15356593.963 8 -11788196.17044  23176298.809    23176298.6504   23176313.4844
        -0.000          -0.000
   7675221.891 9   5982072.89146  23511527.048    23511526.6394   23511542.7504
        -0.000          -0.000
 -24568771.938 9 -19130940.71048  21381890.974    21381890.2464   21381901.4654
        -0.000          -0.000
  19246913.648 8  14998133.15245  24403654.085    24403654.1724   24403668.4994
        -0.000          -0.000
  -1098173.591 9   -847755.84148  21571791.773    21571791.6494   21571801.7834
        -0.000          -0.000
 -12802765.727 9  -9957451.31349  20685187.308    20685186.8734   20685196.4714
        -0.000          -0.000
 -10427310.683 9  -8104699.37247  21180397.492    21180397.7964   21180406.8454
        -0.000          -0.000
 99  5 10 19 59  0.0010000  0  7  6  8 10  4 24  5 30                0.000999994
 -15423735.561 8 -11840514.20744  23163522.093    23163521.9814   23163536.4104
        -0.000          -0.000
   7756899.427 9   6045717.49746  23527069.891    23527069.4484   23527085.6854
        -0.000          -0.000
 -24599507.177 9 -19154890.19648  21376042.232    21376041.5044   21376052.6734
        -0.000          -0.000
  19341791.995 8  15072064.17945  24421708.779    24421709.1334   24421723.6084
        -0.000          -0.000
  -1037277.032 9   -800304.03748  21583380.054    21583379.9274   21583390.1014
        -0.000          -0.000
 -12771416.193 9  -9933023.15249  20691152.937    20691152.5034   20691162.1344
        -0.000          -0.000
 -10471887.047 9  -8139434.18247  21171914.919    21171915.2184   21171924.2824
        -0.000          -0.000
 99  5 10 19 59 30.0010000  0  7  6  8 10  4 24  5 30                0.001000017
 -15490858.960 7 -11892818.03354  23150748.738    23150748.2794          0.0005
        -0.000          -0.000
   7838776.180 9   6109517.34046  23542650.674    23542650.2824   23542666.5024
        -0.000          -0.000
 -24629683.783 9 -19178404.38548  21370299.803    21370299.0804   21370310.2194
        -0.000          -0.000
  19436646.345 8  15145976.50745  24439758.972    24439758.8274   24439774.3114
        -0.000          -0.000
   -976154.767 9   -752676.34948  21595011.264    21595011.1654   21595021.3494
        -0.000          -0.000
 -12739518.123 9  -9908167.56049  20697222.954    20697222.5214   20697232.1794
        -0.000          -0.000
 -10515979.667 9  -8173792.05347  21163524.394    21163524.7174   21163533.8084
        -0.000          -0.000
 99  5 10 20  0  0.0010000  0  7  6  8 10  4 24  5 30                0.001000052
 -15557945.770 7 -11945093.32954  23137981.786    23137981.6394          0.0005
        -0.000          -0.000
   7920850.738 9   6173471.30646  23558269.110    23558268.6204   23558285.0344
        -0.000          -0.000
 -24659273.600 9 -19201461.33648  21364669.049    21364668.2984   21364679.4064
        -0.000          -0.000
  19531488.524 8  15219879.36945  24457806.967    24457806.8134   24457822.0774
        -0.000          -0.000
   -914778.338 9   -704850.61648  21606690.885    21606690.7594   21606700.9944
        -0.000          -0.000
 -12707075.750 9  -9882887.83849  20703396.564    20703396.1274   20703405.8114
        -0.000          -0.000
 -10559569.136 9  -8207757.85747  21155229.568    21155229.8594   21155239.0434
        -0.000          -0.000
 99  5 10 20  0 30.0010000  0  7  6  8 10  4 24  5 30                0.001000069
 -15625013.18317 -11997353.52654  23125217.821    23125217.2725          0.0005
        -0.000          -0.000
   8003073.816 9   6237541.01446  23573915.789    23573915.3174   23573931.7124
        -0.000          -0.000
 -24688284.027 9 -19224066.81848  21359148.511    21359147.7704   21359158.8394
        -0.000          -0.000
  19626279.908 8  15293742.66945  24475845.209    24475845.2244   24475860.2404
        -0.000          -0.000
   -853181.487 9   -656853.12548  21618412.431    21618412.2954   21618422.5984
        -0.000          -0.000
 -12674123.066 9  -9857210.46749  20709667.278    20709666.8364   20709676.5574
        -0.000          -0.000
 -10602656.258 9  -8241332.22147  21147030.304    21147030.6154   21147039.8594
        -0.000          -0.000
 99  5 10 20  1  0.0010000  0  7  6  8 10  4 24  5 30                0.001000081
 -15692025.98817 -12049571.08954         0.000           0.0005          0.0005
        -0.000          -0.000
   8085468.832 9   6301744.69846  23589595.229    23589594.7034   23589611.1764
        -0.000          -0.000
 -24716688.448 9 -19246200.08548  21353743.299    21353742.5724   21353753.6194
        -0.000          -0.000
  19721035.626 8  15367578.16945  24493876.714    24493876.7524   24493891.6984
        -0.000          -0.000
   -791374.525 9   -608691.91148  21630173.937    21630173.8024   21630184.1534
        -0.000          -0.000
 -12640641.208 9  -9831120.75349  20716038.698    20716038.2654   20716047.9864
        -0.000          -0.000
 -10645199.978 9  -8274483.15247  21138934.459    21138934.7514   21138944.0344
        -0.000          -0.000
 99  5 10 20  1 30.0010000  0  7  6  8 10  4 24  5 30                0.001000083
 -15759001.223 7 -12101759.44644  23099719.385    23099718.5864   23099735.7624
        -0.000          -0.000
   8168012.052 9   6366063.83846  23605302.773    23605302.2594   23605318.8454
        -0.000          -0.000
 -24744497.641 9 -19267869.54348  21348451.350    21348450.6154   21348461.6494
        -0.000          -0.000
  19815744.684 8  15441377.29745  24511899.355    24511899.4054   24511914.4604
        -0.000          -0.000
   -729384.138 9   -560387.76548  21641970.357    21641970.2064   21641980.6004
        -0.000          -0.000
 -12606656.975 9  -9804639.58649  20722505.704    20722505.2684   20722515.0074
        -0.000          -0.000
 -10687206.301 9  -8307215.35347  21130940.823    21130941.0944   21130950.4464
        -0.000          -0.000
 99  5 10 20  2  0.0010000  0  7  6  8 10  4 24  5 30                0.001000089
 -15825901.872 8 -12153889.73144  23086989.442    23086988.5204   23087005.0834
        -0.000          -0.000
   8250719.698 8   6430511.11646  23621041.658    23621041.1334   23621057.8064
        -0.000          -0.000
 -24771674.675 9 -19289046.40848  21343279.704    21343278.9864   21343289.9804
        -0.000          -0.000
  19910444.847 8  15515169.50445  24529920.323    24529920.4694   24529935.5614
        -0.000          -0.000
   -667175.873 9   -511913.84548  21653808.222    21653808.0814   21653818.5234
        -0.000          -0.000
 -12572135.623 9  -9777739.88049  20729074.958    20729074.5204   20729084.2534
        -0.000          -0.000
 -10728638.506 9  -8339500.17347  21123056.418    21123056.6834   21123066.1454
        -0.000          -0.000
 99  5 10 20  2 30.0010000  0  7  6  8 10  4 24  5 30                0.001000073
 -15892779.927 8 -12206002.43244  23074263.633    23074262.6594   23074278.2944
        -0.000          -0.000
   8333544.688 8   6495049.81046  23636802.914    23636802.3824   23636819.1604
        -0.000          -0.000
 -24798286.319 9 -19309782.70748  21338215.649    21338214.9214   21338225.9044
        -0.000          -0.000
  20005088.280 8  15588917.49545  24547930.519    24547930.7704   24547945.7404
        -0.000          -0.000
   -604824.065 9   -463328.07348  21665673.386    21665673.2664   21665683.7394
        -0.000          -0.000
 -12537122.630 9  -9750457.08149  20735737.757    20735737.3184   20735747.0734
        -0.000          -0.000
 -10769550.204 9  -8371379.40147  21115271.094    21115271.3624   21115280.9194
        -0.000          -0.000
 99  5 10 20  3  0.0010000  0  7  6  8 10  4 24  5 30                0.001000067
 -15959623.204 8 -12258087.97945  23061544.420    23061543.7754   23061558.3894
        -0.000          -0.000
   8416529.310 8   6559712.91946  23652594.489    23652593.9104   23652610.8024
        -0.000          -0.000
 -24824314.578 9 -19330064.42748  21333262.608    21333261.8804   21333272.8634
        -0.000          -0.000
  20099705.927 8  15662645.43245  24565935.887    24565936.1364   24565950.9944
        -0.000          -0.000
   -542313.100 9   -414618.28948  21677568.852    21677568.7014   21677579.2204
        -0.000          -0.000
 -12501596.871 9  -9722774.72249  20742498.131    20742497.6874   20742507.4704
        -0.000          -0.000
 -10809931.124 9  -8402845.03947  21107586.837    21107587.1124   21107596.6984
        -0.000          -0.000
 99  5 10 20  3 30.0010000  0  7  6  8 10  4 24  5 30                0.001000066
 -16026446.555 8 -12310158.00045  23048828.764    23048828.0164   23048842.4274
        -0.000          -0.000
   8499667.312 8   6624495.51746  23668415.195    23668414.6674   23668431.6884
        -0.000          -0.000
 -24849760.168 9 -19349892.11348  21328420.459    21328419.7124   21328430.6864
        -0.000          -0.000
  20194283.589 9  15736342.14745  24583933.461    24583933.5874   24583948.6124
        -0.000          -0.000
   -479643.063 9   -365784.54548  21689494.591    21689494.4654   21689504.9514
        -0.000          -0.000
 -12465567.989 9  -9694700.32749  20749354.233    20749353.7814   20749363.5924
        -0.000          -0.000
 -10849800.275 9  -8433911.90047  21100000.019    21100000.2844   21100009.8634
        -0.000          -0.000
 99  5 10 20  4  0.0010000  0  7  6  8 10  4 24  5 30                0.001000069
 -16093252.092 8 -12362214.18845  23036116.387    23036115.8074   23036129.4404
        -0.000          -0.000
   8582951.955 8   6689392.40346  23684263.993    23684263.5754   23684280.4774
        -0.000          -0.000
 -24874618.524 9 -19369262.22048  21323690.018    21323689.2874   21323700.2494
        -0.000          -0.000
  20288816.769 9  15810004.23045  24601922.746    24601922.9924   24601937.6824
        -0.000          -0.000
   -416819.964 9   -316831.53148  21701449.497    21701449.3794   21701459.8644
        -0.000          -0.000
 -12429040.717 9  -9666237.57349  20756305.157    20756304.7194   20756314.5514
        -0.000          -0.000
 -10889167.982 9  -8464588.03747  21092508.663    21092508.9304   21092518.4624
        -0.000          -0.000
 99  5 10 20  4 30.0010000  0  7  6  8 10  4 24  5 30                0.001000071
 -16160047.556 8 -12414262.50745  23023405.891    23023405.3574   23023418.8014
        -0.000          -0.000
   8666373.576 8   6754396.01146  23700138.826    23700138.3454   23700155.3154
        -0.000          -0.000
 -24898893.245 9 -19388177.55648  21319070.637    21319069.8854   21319080.8584
        -0.000          -0.000
  20383295.021 9  15883623.56145  24619901.642    24619901.8764   24619916.4124
        -0.000          -0.000
   -353846.754 9   -267761.55148  21713432.939    21713432.8134   21713443.3024
        -0.000          -0.000
 -12392012.133 9  -9637384.18949  20763351.534    20763351.0914   20763360.9334
        -0.000          -0.000
 -10928048.559 9  -8494884.58447  21085110.035    21085110.3224   21085119.7314
        -0.000          -0.000
 99  5 10 20  5  0.0010000  0  7  6  8 10  4 24  5 30                0.001000050
 -16226856.859 8 -12466321.52645  23010692.653    23010692.3804   23010706.0044
        -0.000          -0.000
   8749896.194 8   6819478.31946  23716032.827    23716032.3224   23716049.4264
        -0.000          -0.000
 -24922581.525 9 -19406635.92048  21314562.841    21314562.1064   21314573.0844
        -0.000          -0.000
  20477697.639 9  15957183.95145  24637866.053    24637866.3404   24637880.5604
        -0.000          -0.000
   -290727.119 9   -218577.47248  21725444.218    21725444.0884   21725454.5724
        -0.000          -0.000
 -12354490.463 9  -9608146.58549  20770491.694    20770491.2584   20770501.1294
        -0.000          -0.000
 -10966468.884 9  -8524822.50247  21077798.978    21077799.2444   21077808.5844
        -0.000          -0.000
 99  5 10 20  5 30.0010000  0  7  6  8 10  4 24  5 30                0.001000040
 -16293609.408 8 -12518336.33245  22997990.128    22997990.1324   22998003.9894
        -0.000          -0.000
   8833562.387 8   6884672.50646  23731954.193    23731953.7104   23731970.8464
        -0.000          -0.000
 -24945626.795 9 -19424593.23448  21310177.437    21310176.7124   21310187.6874
        -0.000          -0.000
  20572091.690 9  16030737.63545  24655828.842    24655829.1844   24655843.4474
        -0.000          -0.000
   -227390.914 9   -169224.63648  21737496.723    21737496.5744   21737507.1024
        -0.000          -0.000
 -12316411.899 9  -9578475.03449  20777737.870    20777737.4414   20777747.3064
        -0.000          -0.000
 -11004357.902 9  -8554346.40847  21070588.946    21070589.2254   21070598.4724
        -0.000          -0.000
 99  5 10 20  6  0.0010000  0  8  6  8 10  4 24  5 17 30             0.001000000
 -16360340.802 8 -12570334.72845  22985291.687    22985291.6424   22985305.4834
        -0.000          -0.000
   8917341.898 9   6949954.99146  23747897.131    23747896.7124   23747913.7984
        -0.000          -0.000
 -24968076.712 9 -19442086.64648  21305905.313    21305904.5894   21305915.5714
        -0.000          -0.000
  20666452.665 9  16104265.53945  24673785.371    24673785.5634   24673799.8834
        -0.000          -0.000
   -163864.517 9   -119723.59948  21749585.429    21749585.2754   21749595.8144
        -0.000          -0.000
 -12277795.409 9  -9548384.32749  20785086.393    20785085.9544   20785095.8304
        -0.000          -0.000
  -4937708.179 8  -2456045.77845  25642517.752    25642517.4054   25642539.0394
        -0.000          -0.000
 -11041737.218 9  -8583473.15047  21063475.924    21063476.2094   21063485.4154
        -0.000          -0.000
